.

MPMG - Transparência

Contracheque - Remuneração de todos os servidores ativos - Pós Resolução CNMP 200/2019

Período: 2022 - Dezembro

Ordem Matrícula Nome Cargo Efetivo Lotação Rendimentos Descontos Rendimento Líquido Total *14 Data de Referência
Remuneração básica Remuneração eventual ou Temporária Outras Remunerações Temporárias *7 Verbas Indenizatórias *8 Total de Rendimentos Brutos *9 Obrigatórios Legais Outros Descontos Eventuais Total de descontos *13
Remuneração do Cargo Efetivo *1 Outras Verbas Remuneratórias *2 Função de Confiança ou Cargo em Comissão *3 Gratificação Natalina *4 Férias 1/3 Constitucional *5 Abono de Permanência *6 Contribuição Previdenciária *10 Imposto de Renda *11 Retenção por Teto Constitucional *12
1 498900 ABDON MARCIO BARBOSA DA SILVA OFICIAL DO MP ABRE CAMPO - COMARCA; ABRE CAMPO-PJ-01PJ 6.694,66 1.338,93 0,00 2.938,20 2.677,86 0,00 0,00 1.911,00 15.560,65 1.078,59 2.614,39 0,00 0,00 3.692,98 11.867,67 31/12/2022
2 177800 ADALBERTO MENEZES FARIA SAMORA OFICIAL DO MP BELO HORIZONTE - COMARCA; DIRET DE PLANOS PROJETOS E PROGRAMAS INST 19.037,29 7.614,92 0,00 9.775,99 8.884,07 0,00 0,00 1.911,00 47.223,27 4.057,57 12.922,90 0,00 0,00 16.980,47 30.242,80 31/12/2022
3 306400 ADALBERTO MOREIRA GONCALVES ANALISTA DO MP BELO HORIZONTE - COMARCA; BH-24PJ JUIZO REG BARREIRO-SECRETARIA 19.791,01 5.937,30 0,00 9.444,33 8.576,10 0,00 0,00 1.911,00 45.659,74 3.909,74 12.619,92 0,00 0,00 16.529,66 29.130,08 31/12/2022
4 179300 ADENISE AUXILIADORA SOUZA SAD OFICIAL DO MP BARBACENA - COMARCA; BARBACENA-PJ-06PJ 18.312,36 7.324,94 0,00 14.062,97 8.545,77 0,00 0,00 1.911,00 50.157,04 3.895,18 12.360,98 0,00 0,00 16.256,16 33.900,88 31/12/2022
5 272200 ADILSON BATISTA ORNELAS OFICIAL DO MP LAVRAS - COMARCA; LAVRAS-PJ-SECRETARIA 6.694,66 2.008,40 0,00 3.165,83 2.901,02 0,00 0,00 1.911,00 16.680,91 1.185,70 3.089,34 0,00 0,00 4.275,04 12.405,87 31/12/2022
6 380100 ADILSON GONCALVES DE MELO JUNIOR ANALISTA DO MP ARAXÁ - COMARCA; ARAXA-PJ-05PJ 14.687,60 2.937,52 0,00 7.006,87 5.875,04 0,00 0,00 1.911,00 32.418,03 2.613,23 7.924,91 0,00 0,00 10.538,14 21.879,89 31/12/2022
7 148800 ADILSON JANUARIO OFICIAL DO MP BELO HORIZONTE - COMARCA; BH-22PJ PES COM DEF E IDOSOS-SECRETARIA 20.574,59 16.459,68 0,00 17.731,11 13.643,13 5.467,17 0,00 1.911,00 75.786,68 5.467,17 21.557,19 1.572,05 0,00 28.596,41 47.190,27 31/12/2022
8 322601 ADMILSON SILVEIRA ANALISTA DO MP SAO JOAO DO PARAISO COMARCA; SAO JOAO DO PARAISO-PJ-UNPJ 11.008,33 1.100,83 0,00 4.323,90 4.036,39 0,00 0,00 2.796,30 23.265,75 1.730,68 5.079,45 0,00 0,00 6.810,13 16.455,62 31/12/2022
9 333700 ADRIANA ABRITTA TEIXEIRA OFICIAL DO MP BELO HORIZONTE - COMARCA; DIRET DE PESSOAL DO MINISTERIO PUBLICO - DPMP 11.008,33 3.302,50 0,00 5.072,46 4.770,28 0,00 0,00 1.911,00 26.064,57 2.082,95 6.298,44 0,00 0,00 8.381,39 17.683,18 31/12/2022
10 468500 ADRIANA APARECIDA FIRMINO ANALISTA DO MP CARATINGA - COMARCA; CARATINGA-PJ-04PJ 11.008,33 2.201,67 0,00 4.698,19 4.403,33 0,00 0,00 1.911,00 24.222,52 1.906,81 5.584,67 0,00 0,00 7.491,48 16.731,04 31/12/2022
11 326100 ADRIANA AUGUSTA AMARAL BELO OFICIAL DO MP BARBACENA - COMARCA; BARBACENA-PJ-08PJ 11.008,33 3.302,50 0,00 5.072,46 4.770,28 0,00 0,00 1.911,00 26.064,57 2.082,95 6.089,89 0,00 0,00 8.172,84 17.891,73 31/12/2022
12 605700 ADRIANA COSTA LIRA OFICIAL DO MP BELO HORIZONTE - COMARCA; CAO-EDUCACAO 6.694,66 669,47 3.585,64 4.503,41 3.649,92 0,00 0,00 1.911,00 21.014,10 971,47 4.753,07 0,00 0,00 5.724,54 15.289,56 31/12/2022
13 541100 ADRIANA CRISTINA DE OLIVEIRA OFICIAL DO MP GUAPÉ - COMARCA; GUAPE-PJ-UNPJ 6.694,66 669,47 0,00 6.284,69 2.454,71 0,00 0,00 1.911,00 18.014,53 971,47 2.348,01 0,00 0,00 3.319,48 14.695,05 31/12/2022
14 254800 ADRIANA DAS GRACAS FERNANDES ANALISTA DO MP UBERABA - COMARCA; UBERABA-PJ-07PJ 20.574,59 14.402,22 0,00 12.098,90 11.658,94 0,00 0,00 1.911,00 60.645,65 5.389,50 17.636,23 0,00 0,00 23.025,73 37.619,92 31/12/2022
15 217400 ADRIANA DE CARVALHO CATAO BRAGA ASSESSOR ADMINISTRATIVO III BELO HORIZONTE - COMARCA; DIV FISCAL ADM CONT TERCEIRIZACAO 0,00 3.873,69 9.684,23 6.778,96 4.519,31 0,00 0,00 1.911,00 26.767,19 1.656,76 6.871,91 0,00 0,00 8.528,67 18.238,52 31/12/2022
16 434600 ADRIANA FERREIRA DA SILVA ANALISTA DO MP BELO HORIZONTE - COMARCA; BH-14PJ DEFESA CONSUMIDOR-GAB 112PJ 15.659,55 3.131,91 0,00 7.456,93 6.263,82 0,00 0,00 1.911,00 34.423,21 2.799,85 8.779,21 0,00 0,00 11.579,06 22.844,15 31/12/2022
17 499800 ADRIANA FERREIRA TIAGO OFICIAL DO MP SALINAS - COMARCA; SALINAS-PJ-02PJ 8.377,76 1.675,55 0,00 3.624,91 3.351,10 0,00 0,00 1.911,00 18.940,32 1.401,74 3.732,65 0,00 0,00 5.134,39 13.805,93 31/12/2022
18 543400 ADRIANA GUIMARAES NUNES DE PAULA ANALISTA DO MP PATROCÍNIO - COMARCA; PATROCINIO-PJ-01PJ 11.008,33 1.100,83 0,00 5.127,41 4.036,39 0,00 0,00 1.911,00 23.183,96 1.047,41 5.298,73 0,00 0,00 6.346,14 16.837,82 31/12/2022
19 471500 ADRIANA HORTA DE CARVALHO RODRIGUES DE SOUSA ANALISTA DO MP BELO HORIZONTE - COMARCA; GRUPO ESP PROM JUST DEF PROB ADM PAT PUB 11.008,33 2.201,67 0,00 11.303,19 8.806,66 0,00 0,00 1.911,00 35.230,85 1.906,81 6.795,59 0,00 0,00 8.702,40 26.528,45 31/12/2022
20 86400 ADRIANA MOREIRA CALDEIRA BRANT OFICIAL DO MP BELO HORIZONTE - COMARCA; BH-21PJ TUTELA FUNDACOES-SECRETARIA 18.312,36 12.818,66 0,00 15.565,51 11.968,40 4.774,18 0,00 1.911,00 65.350,11 4.774,18 18.674,65 0,00 0,00 23.448,83 41.901,28 31/12/2022
21 480700 ADRIANA MOREIRA DE AVELLAR CEZILIO OFICIAL DO MP BELO HORIZONTE - COMARCA; BH-12PJ JUIZO CRIMINAL-SECRETARIA 6.694,66 1.338,93 0,00 3.947,00 2.677,86 0,00 0,00 1.911,00 16.569,45 1.078,59 2.614,39 0,00 0,00 3.692,98 12.876,47 31/12/2022
22 326000 ADRIANA PEREIRA CARNEIRO RESENDE OFICIAL DO MP BELO HORIZONTE - COMARCA; BH-25PJ DEFESA DA EDUCACAO-SECRETARIA 11.008,33 3.302,50 0,00 5.072,46 4.770,28 0,00 0,00 1.911,00 26.064,57 2.082,95 6.298,44 0,00 0,00 8.381,39 17.683,18 31/12/2022
23 502200 ADRIANA PETRUCCI DAVINA OFICIAL DO MP PATROCÍNIO - COMARCA; PATROCINIO-PJ-01PJ 8.650,50 1.730,10 0,00 3.736,19 3.460,20 0,00 0,00 2.796,30 20.373,29 1.454,11 4.122,40 0,00 0,00 5.576,51 14.796,78 31/12/2022
24 201900 ADRIANA REIS PIMENTA OFICIAL DO MP TEÓFILO OTONI - COMARCA; TEOFILO OTONI-PJ-03PJ 18.312,36 7.324,94 0,00 10.055,13 8.545,77 0,00 0,00 1.911,00 46.149,20 3.895,18 12.569,53 0,00 0,00 16.464,71 29.684,49 31/12/2022
25 278700 ADRIANA RODRIGUES PINTO COELHO AMARAL ANALISTA DO MP BELO HORIZONTE - COMARCA; CGMP-ASSESSORIA JURIDICA 20.574,59 6.172,38 0,00 9.810,08 8.915,66 0,00 0,00 1.911,00 47.383,71 4.072,73 13.183,92 0,00 0,00 17.256,65 30.127,06 31/12/2022
26 468000 ADRIANA SANTOS DE SANTANA MOREIRA ANALISTA DO MP GOVERNADOR VALADARES - COMARCA; GAECO REGIONAL DE GOVERNADOR VALADARES 11.008,33 4.403,33 0,00 5.446,75 5.137,22 0,00 0,00 1.911,00 27.906,63 2.259,08 6.699,39 0,00 0,00 8.958,47 18.948,16 31/12/2022
27 194700 ADRIANA TSUKIDE OFICIAL DO MP UBERABA - COMARCA; COORD REG BACIAS PARANAIBA BAIXO RIO GRANDE 18.312,36 7.324,94 0,00 21.742,12 8.545,77 0,00 0,00 1.911,00 57.836,19 3.895,18 12.465,26 0,00 0,00 16.360,44 41.475,75 31/12/2022
28 465500 ADRIANO CASSIANO MATOS ANALISTA DO MP ARAXÁ - COMARCA; ARAXA-PJ-02PJ 11.008,33 2.201,67 0,00 4.698,19 8.806,66 0,00 0,00 1.911,00 28.625,85 1.906,81 6.899,87 0,00 0,00 8.806,68 19.819,17 31/12/2022
29 500500 ADRIANO DE ALMEIDA SILVA OFICIAL DO MP UBERABA - COMARCA; UBERABA-PJ-12PJ 8.650,50 1.730,10 0,00 8.926,49 3.460,20 0,00 0,00 2.796,30 25.563,59 1.454,11 3.122,50 0,00 0,00 4.576,61 20.986,98 31/12/2022
30 187200 ADRIANO DE FREITAS MARON OFICIAL DO MP PONTE NOVA - COMARCA; PONTE NOVA-PJ-03PJ 14.224,47 12.802,03 0,00 13.513,25 10.381,32 4.117,45 0,00 1.911,00 56.949,52 4.117,45 15.980,72 0,00 0,00 20.098,17 36.851,35 31/12/2022
31 477900 ADRIANO FERREIRA DE ALMEIDA OFICIAL DO MP TAIOBEIRAS - COMARCA; TAIOBEIRAS-PJ-UNPJ 9.378,86 1.875,77 0,00 4.470,38 3.751,54 0,00 0,00 2.643,72 22.120,27 1.593,95 4.397,77 0,00 0,00 5.991,72 16.128,55 31/12/2022
32 269101 ADRIANO PEREIRA SILVA ANALISTA DO MP UBERABA - COMARCA; UBERABA-PJ-02PJ 11.008,33 2.201,67 0,00 4.698,19 4.403,33 0,00 0,00 1.911,00 24.222,52 1.906,81 5.376,13 0,00 0,00 7.282,94 16.939,58 31/12/2022
33 414200 ADRIANO RODRIGUES FERNANDES ANALISTA DO MP CARANDAÍ - COMARCA; CARANDAI-PJ-UNPJ 11.008,33 2.201,67 0,00 4.698,19 4.403,33 0,00 0,00 1.911,00 24.222,52 1.906,81 5.376,13 0,00 0,00 7.282,94 16.939,58 31/12/2022
34 536700 ADRIELLE COSTA MARIA MOURAO FIGUEIREDO OFICIAL DO MP SERRO - COMARCA; SERRO-PJ-SECRETARIA 6.694,66 669,47 0,00 3.532,67 2.454,71 0,00 0,00 2.796,30 16.147,81 971,47 2.452,29 0,00 0,00 3.423,76 12.724,05 31/12/2022
35 514300 ADRIENE DAMASCENO BRAGA ANALISTA DO MP ALFENAS - COMARCA; ALFENAS-PJ-03PJ 11.008,33 2.201,67 0,00 4.698,19 4.403,33 0,00 0,00 1.911,00 24.222,52 1.906,81 5.688,95 0,00 0,00 7.595,76 16.626,76 31/12/2022
36 254600 ADRIENE DOMINGUES COSTA ANALISTA DO MP BELO HORIZONTE - COMARCA; SUPER DE GESTAO DE PESSOAS-LOTACAO TEMPORARIA 20.574,59 6.172,38 0,00 9.300,75 8.915,66 0,00 0,00 0,00 44.963,38 4.072,73 13.183,92 0,00 0,00 17.256,65 27.706,73 31/12/2022
37 252001 ADRIENE GOMES BARRETO ANALISTA DO MP BELO HORIZONTE - COMARCA; BH-19PJ SAUDE-SECRETARIA 047PJ 16.169,47 8.084,74 0,00 9.261,69 8.084,74 0,00 0,00 1.911,00 43.511,64 3.673,89 11.803,76 0,00 0,00 15.477,65 28.033,99 31/12/2022
38 714800 ADSON GUSTAVO DE OLIVEIRA ASSESSOR PROCURADOR JUSTICA BELO HORIZONTE - COMARCA; GABINETE DE PROCURADOR DE JUSTIÇA - SALA 803 0,00 0,00 7.857,77 7.857,77 2.619,26 0,00 0,00 1.911,00 20.245,80 1.656,76 3.214,31 0,00 0,00 4.871,07 15.374,73 31/12/2022
39 724600 AECIO BRAS SILVA JUNIOR ASSESSOR PROMOTOR JUSTICA BAMBUÍ - COMARCA; BAMBUI-PJ-UNPJ 0,00 0,00 7.857,77 3.928,88 0,00 0,00 0,00 1.911,00 13.697,65 1.397,95 1.844,90 0,00 0,00 3.242,85 10.454,80 31/12/2022
40 302500 AGENOR JOSE DA SILVA JUNIOR ANALISTA DO MP JUIZ DE FORA - COMARCA; JUIZ DE FORA-PJ-07PJ 19.791,01 5.937,30 0,00 9.444,33 8.576,10 0,00 0,00 1.911,00 45.659,74 3.909,74 12.307,10 0,00 0,00 16.216,84 29.442,90 31/12/2022
41 357500 AILSON WAGNER DE ALENCAR SILVA OFICIAL DO MP BELO HORIZONTE - COMARCA; BH-12PJ JUIZO CRIMINAL-SECRETARIA 12.118,97 4.847,59 0,00 5.975,42 5.655,52 0,00 0,00 1.911,00 30.508,50 2.507,86 7.456,01 0,00 0,00 9.963,87 20.544,63 31/12/2022
42 366400 AILTON ALEXSSANDRO ALVES OFICIAL DO MP PARÁ DE MINAS - COMARCA; PARA DE MINAS-PJ-05PJ 10.661,25 4.264,50 0,00 12.744,42 4.975,25 0,00 0,00 1.911,00 34.556,42 2.181,33 6.638,91 0,00 0,00 8.820,24 25.736,18 31/12/2022
43 318900 AILTON DE CASTRO RIBEIRO JUNIOR OFICIAL DO MP ITAJUBA - COMARCA; ITAJUBA-PJ-01PJ 11.008,33 3.302,50 0,00 7.256,32 4.770,28 0,00 0,00 1.911,00 28.248,43 2.082,95 5.881,35 0,00 0,00 7.964,30 20.284,13 31/12/2022
44 464400 ALAN MONTEIRO GASPAR ANALISTA DO MP SETE LAGOAS - COMARCA; SETE LAGOAS-PJ-08PJ 11.008,33 2.201,67 0,00 6.771,11 4.403,33 0,00 0,00 1.911,00 26.295,44 1.906,81 5.688,95 0,00 0,00 7.595,76 18.699,68 31/12/2022
45 492000 ALANA DE CASTRO FREITAS OFICIAL DO MP BELO HORIZONTE - COMARCA; SECRETARIA DO PROCON-MG 6.912,65 1.382,53 0,00 3.157,94 2.765,06 0,00 0,00 1.911,00 16.129,18 1.120,44 2.967,77 0,00 0,00 4.088,21 12.040,97 31/12/2022
46 306700 ALANA MARCIA DE OLIVEIRA OFICIAL DO MP BELO HORIZONTE - COMARCA; DIRETORIA DE ADMINISTRACAO FINANCEIRA 11.008,33 3.302,50 0,00 5.072,46 4.770,28 0,00 0,00 1.911,00 26.064,57 2.082,95 6.298,44 0,00 0,00 8.381,39 17.683,18 31/12/2022
47 324500 ALANMAR COUTINHO COSTA OFICIAL DO MP LEOPOLDINA - COMARCA; LEOPOLDINA-PJ-02PJ 11.008,33 3.302,50 0,00 5.072,46 4.770,28 0,00 0,00 1.911,00 26.064,57 2.082,95 6.089,89 0,00 0,00 8.172,84 17.891,73 31/12/2022
48 407300 ALBERTO LUIZ SOARES DE OLIVEIRA ANALISTA DO MP BELO HORIZONTE - COMARCA; DIRETORIA DE PROJETOS DE EDIFICACOES 15.659,55 3.131,91 0,00 7.456,93 6.263,82 0,00 0,00 1.911,00 34.423,21 2.799,85 8.779,21 0,00 0,00 11.579,06 22.844,15 31/12/2022
49 118200 ALBERTO PEREIRA DA COSTA OFICIAL DO MP DORES DO INDAIÁ - COMARCA; DORES DO INDAIA-PJ-UNPJ 19.791,01 17.811,91 0,00 17.731,11 13.643,13 5.467,17 0,00 1.911,00 76.355,33 5.467,17 21.609,32 2.140,70 0,00 29.217,19 47.138,14 31/12/2022
50 282400 ALCILENE MARISE DE ARAUJO ANALISTA DO MP BELO HORIZONTE - COMARCA; BH-23PJ INF-FISC MED SOC FEC 20.574,59 6.172,38 0,00 9.810,08 8.915,66 0,00 0,00 1.911,00 47.383,71 4.072,73 13.079,65 0,00 0,00 17.152,38 30.231,33 31/12/2022
51 112600 ALCIONE DA MOTA JARDIM OFICIAL DO MP BELO HORIZONTE - COMARCA; CAO-CRIANCAS E ADOLESCENTES-SECRETARIA 19.037,29 13.326,11 0,00 11.210,34 10.787,80 0,00 0,00 1.911,00 56.272,54 4.971,36 16.189,27 0,00 0,00 21.160,63 35.111,91 31/12/2022
52 396400 ALCIONE DE FREITAS E SILVA ANALISTA DO MP BELO HORIZONTE - COMARCA; ASSESS JUR DO CONS SUPERIOR DO MINISTERIO PUB 16.169,47 6.467,79 0,00 11.819,40 7.545,75 0,00 0,00 1.911,00 43.913,41 3.415,18 10.908,50 0,00 0,00 14.323,68 29.589,73 31/12/2022
53 657400 ALCIONE MARIA FERREIRA ASSESSOR PROCURADOR JUSTICA BELO HORIZONTE - COMARCA; GABINETE DE PROCURADOR DE JUSTIÇA - SALA 610 0,00 0,00 7.857,77 3.928,88 2.619,26 0,00 0,00 2.796,30 17.202,21 1.656,76 3.214,31 0,00 0,00 4.871,07 12.331,14 31/12/2022
54 161600 ALCIONE NERY SOUZA ASSESSOR ADMINISTRATIVO III BELO HORIZONTE - COMARCA; BH-18PJ DIREITOS HUMANOS-SECRETARIA 0,00 4.842,12 9.684,23 7.263,17 4.842,12 0,00 0,00 1.911,00 28.542,64 1.656,76 7.493,32 0,00 0,00 9.150,08 19.392,56 31/12/2022
55 376000 ALDA GOMES LANA OFICIAL DO MP BELO HORIZONTE - COMARCA; BH-18PJ VIOLENCIA DOMESTICA-SECRETARIA 11.008,33 2.201,67 0,00 5.303,42 4.403,33 0,00 0,00 1.911,00 24.827,75 1.906,81 5.584,67 0,00 0,00 7.491,48 17.336,27 31/12/2022
56 148000 ALDA MARTINS SIMOES OFICIAL DO MP BELO HORIZONTE - COMARCA; BH-23PJ CIVEL- FISC ENT AB POL 20.574,59 10.287,30 0,00 11.287,51 10.287,30 0,00 0,00 1.911,00 54.347,70 4.731,12 15.462,21 0,00 0,00 20.193,33 34.154,37 31/12/2022
57 318400 ALDO CREPALDI JUNIOR OFICIAL DO MP BELO HORIZONTE - COMARCA; DIVISAO DE MATERIAIS 11.008,33 3.302,50 0,00 7.334,53 4.770,28 0,00 0,00 1.911,00 28.326,64 2.082,95 6.194,17 0,00 0,00 8.277,12 20.049,52 31/12/2022
58 604500 ALENIZE APARECIDA RODRIGUES HENRIQUE OFICIAL DO MP RIO NOVO - COMARCA; RIO NOVO-PJ-UNPJ 6.081,20 608,12 0,00 3.278,01 2.229,77 0,00 0,00 1.911,00 14.108,10 865,50 2.077,57 0,00 0,00 2.943,07 11.165,03 31/12/2022
59 197900 ALESSA DE SOUSA E SILVA OFICIAL DO MP OLIVEIRA - COMARCA; OLIVEIRA-PJ-02PJ 19.037,29 7.614,92 0,00 9.775,99 8.884,07 0,00 0,00 1.911,00 47.223,27 4.057,57 12.922,90 0,00 0,00 16.980,47 30.242,80 31/12/2022
60 428500 ALESSANDRA ALVES DINIZ OFICIAL DO MP BELO HORIZONTE - COMARCA; CENTRAL DE APOIO TECNICO-SECRETARIA 8.932,15 4.466,08 0,00 11.461,30 4.466,08 0,00 0,00 1.911,00 31.236,61 1.936,93 5.793,17 0,00 0,00 7.730,10 23.506,51 31/12/2022
61 286801 ALESSANDRA BOTELHO JUNQUEIRA DE MENEZES ANALISTA DO MP PASSOS - COMARCA; PASSOS-PJ-05PJ 16.169,47 6.467,79 0,00 8.260,39 7.545,75 0,00 0,00 2.796,30 41.239,70 3.415,18 10.491,41 0,00 0,00 13.906,59 27.333,11 31/12/2022
62 307000 ALESSANDRA CRISTINA SANTOS MENDES ANALISTA DO MP BELO HORIZONTE - COMARCA; BH-18PJ VIOLENCIA DOMESTICA-SECRETARIA 18.312,36 5.493,71 0,00 13.059,19 7.935,36 0,00 0,00 1.911,00 46.711,62 3.602,18 11.451,37 0,00 0,00 15.053,55 31.658,07 31/12/2022
63 264400 ALESSANDRA DE SOUZA SANTOS ANALISTA DO MP BELO HORIZONTE - COMARCA; SUPERINTENDENCIA DOS ORGAOS COLEGIADOS 20.574,59 8.229,84 0,00 10.000,29 9.601,48 0,00 0,00 1.911,00 50.317,20 4.401,92 14.323,07 0,00 0,00 18.724,99 31.592,21 31/12/2022
64 441500 ALESSANDRA DRUMMOND DE FIGUEIREDO ROSSI ANALISTA DO MP BELO HORIZONTE - COMARCA; DIRETORIA DE PROJETOS DE EDIFICACOES 11.008,33 2.201,67 0,00 4.698,19 4.403,33 0,00 0,00 1.911,00 24.222,52 1.906,81 5.688,95 0,00 0,00 7.595,76 16.626,76 31/12/2022
65 524000 ALESSANDRA LUCIOLI DE BARROS GUERRA ANALISTA DO MP BELO HORIZONTE - COMARCA; BH-19PJ SAUDE--SECRETARIA 11.008,33 2.201,67 0,00 4.698,19 4.403,33 0,00 0,00 1.911,00 24.222,52 1.906,81 5.480,40 0,00 0,00 7.387,21 16.835,31 31/12/2022
66 479900 ALESSANDRA MARA ANDRADE DE FARIA OFICIAL DO MP UBERABA - COMARCA; UBERABA-PJ-09PJ 9.378,86 1.875,77 0,00 5.990,15 3.751,54 0,00 0,00 1.911,00 22.907,32 1.593,95 4.606,33 0,00 0,00 6.200,28 16.707,04 31/12/2022
67 226700 ALESSANDRA MARA VASCONCELOS REZENDE OFICIAL DO MP CONSELHEIRO LAFAIETE - COMARCA; CONSELHEIRO LAFAIETE-PJ-07PJ 15.659,55 6.263,82 0,00 10.993,43 7.307,79 0,00 0,00 1.911,00 42.135,59 3.300,95 10.513,26 0,00 0,00 13.814,21 28.321,38 31/12/2022
68 112100 ALESSANDRA MARCIA FERREIRA OFICIAL DO MP BELO HORIZONTE - COMARCA; BELO HORIZONTE- SECRETARIA DAS PROMOTORIAS 11.008,33 7.705,83 0,00 6.569,60 6.238,05 0,00 0,00 1.911,00 33.432,81 2.787,48 8.736,42 0,00 0,00 11.523,90 21.908,91 31/12/2022
69 196500 ALESSANDRA MARIA RIBEIRO LUCIANO OFICIAL DO MP RIO PARANAÍBA - COMARCA; RIO PARANAIBA-PJ-UNPJ 18.312,36 9.156,18 0,00 10.461,71 9.156,18 0,00 0,00 1.911,00 48.997,43 4.188,18 13.374,87 0,00 0,00 17.563,05 31.434,38 31/12/2022
70 651700 ALESSANDRA PROFIRIO SOUZA OFICIAL DO MP NOVA ERA - COMARCA; NOVA ERA-PJ-UNPJ 5.266,66 526,67 0,00 2.167,06 1.931,11 0,00 0,00 1.911,00 11.802,50 729,60 1.473,11 0,00 0,00 2.202,71 9.599,79 31/12/2022
71 384900 ALESSANDRA RODRIGUES ANALISTA DO MP VISCONDE DO RIO BRANCO - COMARCA; VISCONDE DO RIO BRANCO-PJ-03PJ 16.169,47 3.233,89 0,00 6.803,93 6.467,79 0,00 0,00 2.796,30 35.471,38 2.897,75 8.909,46 0,00 0,00 11.807,21 23.664,17 31/12/2022
72 390000 ALESSANDRA SPADANO MASSARA VASCONCELOS OFICIAL DO MP BETIM - COMARCA; BETIM-PJ-10PJ 9.999,62 1.999,92 0,00 4.286,63 3.999,85 0,00 0,00 1.911,00 22.197,02 1.713,14 5.018,76 0,00 0,00 6.731,90 15.465,12 31/12/2022
73 426500 ALESSANDRO CAMPOS DE PAIVA ANALISTA DO MP BELO HORIZONTE - COMARCA; DIR CRIACAO E MIDIAS 15.659,55 3.131,91 0,00 6.595,88 6.263,82 0,00 0,00 1.911,00 33.562,16 2.799,85 8.779,21 0,00 0,00 11.579,06 21.983,10 31/12/2022
74 623400 ALESSANDRO DE OLIVEIRA REZENDE ANALISTA DO MP BELO HORIZONTE - COMARCA; DIRET DE INFORMACAO E CONHECIMENTO-DINC/CEAF 10.325,15 1.032,52 0,00 9.747,23 3.785,89 0,00 0,00 1.911,00 26.801,79 1.610,44 4.663,38 0,00 0,00 6.273,82 20.527,97 31/12/2022
75 420600 ALESSANDRO SILVA OFICIAL DO MP VISCONDE DO RIO BRANCO - COMARCA; VISCONDE DO RIO BRANCO-PJ-02PJ 10.325,15 4.130,06 0,00 5.783,96 4.818,40 0,00 0,00 1.911,00 26.968,57 2.106,05 4.787,62 0,00 0,00 6.893,67 20.074,90 31/12/2022
76 375301 ALETHEIA PATRICIA ASSIS MORAIS MOREIRA ANALISTA DO MP ITABIRA - COMARCA; ITABIRA-PJ-02PJ 11.008,33 1.100,83 0,00 10.378,48 4.036,39 0,00 0,00 2.796,30 29.320,33 1.730,68 4.975,17 0,00 0,00 6.705,85 22.614,48 31/12/2022
77 382300 ALEX CARVALHO LIMA ANALISTA DO MP UBERLÂNDIA - COMARCA; UBERLANDIA-PJ-14PJ 16.169,47 3.233,89 0,00 16.505,61 6.467,79 0,00 0,00 2.796,30 45.173,06 2.897,75 9.118,00 0,00 0,00 12.015,75 33.157,31 31/12/2022
78 195201 ALEX DE CASTRO PEREIRA ANALISTA DO MP UBERABA - COMARCA; UBERABA-PJ-09PJ 20.574,59 8.229,84 0,00 10.548,80 9.601,48 0,00 0,00 1.911,00 50.865,71 4.401,92 14.323,07 0,00 0,00 18.724,99 32.140,72 31/12/2022
79 358900 ALEX DE PAULA LANZA ASSESSOR ADMINISTRATIVO IV BELO HORIZONTE - COMARCA; DIR CONTEUDO JORNALISTICO 0,00 0,00 12.920,95 6.460,47 4.306,98 0,00 0,00 2.796,30 26.484,70 1.656,76 6.463,19 0,00 0,00 8.119,95 18.364,75 31/12/2022
80 178400 ALEX RODRIGO SALDANHA GUIMARAES OFICIAL DO MP BELO HORIZONTE - COMARCA; DIRETORIA DE SISTEMAS DE INFORMACAO 6.694,66 2.677,86 0,00 3.393,44 3.124,17 0,00 0,00 1.911,00 17.801,13 1.292,82 3.564,27 0,00 0,00 4.857,09 12.944,04 31/12/2022
81 413500 ALEX VILELA OLIVEIRA ANALISTA DO MP GOVERNADOR VALADARES - COMARCA; COORD REG PJ DEF EDU DIR CRIANCA ADOL RIODOCE 16.169,47 3.233,89 0,00 16.505,61 6.467,79 0,00 0,00 1.911,00 44.287,76 2.897,75 9.118,00 0,00 0,00 12.015,75 32.272,01 31/12/2022
82 264300 ALEXANDRA FATIMA SARAIVA SOARES ANALISTA DO MP BELO HORIZONTE - COMARCA; CENTRAL DE APOIO TECN-SETOR DE MEIO AMBIENTE 20.574,59 6.172,38 0,00 9.300,75 8.915,66 0,00 0,00 1.911,00 46.874,38 4.072,73 13.183,92 0,00 0,00 17.256,65 29.617,73 31/12/2022
83 488000 ALEXANDRA LARA PAIS DE CARVALHO ANALISTA DO MP SABARÁ - COMARCA; SABARA-PJ-04PJ 11.008,33 2.201,67 0,00 11.303,19 4.403,33 0,00 0,00 1.911,00 30.827,52 1.906,81 5.376,13 0,00 0,00 7.282,94 23.544,58 31/12/2022
84 256300 ALEXANDRA SANTOS GOMES OFICIAL DO MP BELO HORIZONTE - COMARCA; DIRETORIA GESTAO COMPRAS LICITACOES 11.008,33 3.302,50 0,00 5.072,46 4.770,28 0,00 0,00 1.911,00 26.064,57 2.082,95 6.298,44 0,00 0,00 8.381,39 17.683,18 31/12/2022
85 403300 ALEXANDRE AUGUSTO RODRIGUES ANALISTA DO MP ÁGUAS FORMOSAS - COMARCA; AGUAS FORMOSAS-PJ-UNPJ 11.008,33 2.201,67 0,00 4.698,19 4.403,33 0,00 0,00 3.681,60 25.993,12 1.906,81 5.688,95 0,00 0,00 7.595,76 18.397,36 31/12/2022
86 640900 ALEXANDRE BARBOSA MASCARENHAS ANALISTA DO MP BETIM - COMARCA; BETIM-PJ-02PJ 8.377,76 837,78 0,00 4.102,89 3.071,85 0,00 0,00 1.911,00 18.301,28 927,17 3.274,48 0,00 0,00 4.201,65 14.099,63 31/12/2022
87 311700 ALEXANDRE BARCELOS RESENDE OFICIAL DO MP BELO HORIZONTE - COMARCA; BH-13ª PJ JUÍZO DE TÓXICOS-SECRETARIA 9.378,86 2.813,66 0,00 4.821,18 4.064,17 0,00 0,00 2.796,30 23.874,17 1.744,02 5.125,61 0,00 0,00 6.869,63 17.004,54 31/12/2022
88 285600 ALEXANDRE CAMPOS DE OLIVEIRA OFICIAL DO MP UBERABA - COMARCA; COORD REG BACIAS PARANAIBA BAIXO RIO GRANDE 11.008,33 3.302,50 0,00 5.072,46 4.770,28 0,00 0,00 1.911,00 26.064,57 2.082,95 5.985,62 0,00 0,00 8.068,57 17.996,00 31/12/2022
89 509200 ALEXANDRE CAPUANO DE REZENDE ANALISTA DO MP BELO HORIZONTE - COMARCA; BH-07PJ 03 TRIBUNAL DO JURI-GAB 061PJ 11.008,33 2.201,67 0,00 4.698,19 4.403,33 0,00 0,00 1.911,00 24.222,52 1.906,81 5.584,67 0,00 0,00 7.491,48 16.731,04 31/12/2022
90 229400 ALEXANDRE CARLOS BOTREL SUPERINTENDENTE BELO HORIZONTE - COMARCA; SUPERINTENDENCIA DOS ORGAOS COLEGIADOS 24.982,93 7.494,88 0,00 13.082,44 10.825,94 0,00 0,00 1.911,00 58.297,19 3.156,46 17.365,15 0,00 0,00 20.521,61 37.775,58 31/12/2022
91 411900 ALEXANDRE CARVALHO SANTOS RIBEIRO ANALISTA DO MP OLIVEIRA - COMARCA; OLIVEIRA-PJ-02PJ 15.659,55 3.131,91 0,00 6.595,88 6.263,82 0,00 0,00 2.796,30 34.447,46 2.799,85 8.779,21 0,00 0,00 11.579,06 22.868,40 31/12/2022
92 641600 ALEXANDRE DA SILVA ASSUNCAO OFICIAL DO MP BELO HORIZONTE - COMARCA; SERVICO MEDICO-DEPTO PERIC MEDICA SAUDE OCUP 5.889,39 588,94 0,00 2.654,56 2.159,44 0,00 546,34 7.871,06 19.709,73 832,79 1.960,17 0,00 0,00 2.792,96 16.916,77 31/12/2022
93 201200 ALEXANDRE DE ALENCAR CORDEIRO OFICIAL DO MP ÁGUAS FORMOSAS - COMARCA; AGUAS FORMOSAS-PJ-UNPJ 6.694,66 3.347,33 0,00 3.621,06 3.347,33 0,00 0,00 1.911,00 18.921,38 1.399,93 3.934,93 0,00 0,00 5.334,86 13.586,52 31/12/2022
94 288200 ALEXANDRE DE VASCONCELOS COSTA KER ANALISTA DO MP BELO HORIZONTE - COMARCA; BH-03PJ EMPRESARIAL-SECRETARIA 19.791,01 5.937,30 0,00 9.444,33 8.576,10 0,00 0,00 1.911,00 45.659,74 3.909,74 12.515,65 0,00 0,00 16.425,39 29.234,35 31/12/2022
95 445000 ALEXANDRE DIOGENES OLIVEIRA ANALISTA DO MP SALINAS - COMARCA; SALINAS-PJ-02PJ 12.118,97 2.423,79 0,00 5.380,55 4.847,59 0,00 0,00 2.796,30 27.567,20 2.120,06 6.426,85 0,00 0,00 8.546,91 19.020,29 31/12/2022
96 463400 ALEXANDRE LEAL WINKELSTROTER ANALISTA DO MP TEÓFILO OTONI - COMARCA; TEOFILO OTONI-PJ-04PJ 11.008,33 2.201,67 0,00 4.698,19 4.403,33 0,00 0,00 1.911,00 24.222,52 1.906,81 5.688,95 0,00 0,00 7.595,76 16.626,76 31/12/2022
97 615700 ALEXANDRE LUIZ DE CASTRO MACIEL ANALISTA DO MP BELO HORIZONTE - COMARCA; BH-08PJ JUIZADO ESPECIAL-SECRETARIA 10.325,15 1.032,52 0,00 4.247,44 3.785,89 0,00 0,00 1.911,00 21.302,00 1.610,44 4.663,38 0,00 0,00 6.273,82 15.028,18 31/12/2022
98 356900 ALEXANDRE MOISES MENDONCA E ARAUJO OFICIAL DO MP UBERABA - COMARCA; UBERABA-PJ-13PJ 8.377,76 2.513,33 0,00 3.909,75 3.630,36 0,00 0,00 1.911,00 20.342,20 1.535,79 4.405,05 0,00 0,00 5.940,84 14.401,36 31/12/2022
99 633300 ALEXANDRE NONATO MARTINS OFICIAL DO MP IGARAPÉ - COMARCA; IGARAPE-PJ-02PJ 5.889,39 588,94 0,00 2.329,21 2.159,44 0,00 0,00 1.911,00 12.877,98 832,79 1.855,90 0,00 0,00 2.688,69 10.189,29 31/12/2022
100 469900 ALEXANDRE PEREIRA GUEDES ANALISTA DO MP CATAGUASES - COMARCA; CATAGUASES-PJ-03PJ 11.008,33 2.201,67 0,00 4.698,19 4.403,33 0,00 0,00 1.911,00 24.222,52 1.906,81 5.688,95 0,00 0,00 7.595,76 16.626,76 31/12/2022
101 208700 ALEXANDRE RESENDE FRAGA ANALISTA DO MP BELO HORIZONTE - COMARCA; BH-19PJ SAUDE-SECRETARIA 130PJ 20.574,59 8.229,84 0,00 10.000,29 9.601,48 0,00 0,00 1.911,00 50.317,20 4.401,92 14.010,24 0,00 0,00 18.412,16 31.905,04 31/12/2022
102 216401 ALEXANDRE RIBEIRO DE LIMA MAIORINO ANALISTA DO MP UBERABA - COMARCA; UBERABA-PJ-03PJ 19.791,01 7.916,40 0,00 10.154,90 9.235,80 0,00 0,00 1.911,00 49.009,11 4.226,40 13.611,41 0,00 0,00 17.837,81 31.171,30 31/12/2022
103 475100 ALEXANDRE TEOTONIO COSTA ANALISTA DO MP ARAGUARI - COMARCA; ARAGUARI-PJ-01PJ 11.008,33 2.201,67 0,00 4.698,19 4.403,33 0,00 0,00 1.911,00 24.222,52 1.906,81 5.480,40 0,00 0,00 7.387,21 16.835,31 31/12/2022
104 339000 ALEXANDRE VITOR CARDOSO OFICIAL DO MP BELO HORIZONTE - COMARCA; BH-23PJ INFRACIONAL-SEC EXP 6.694,66 2.008,40 0,00 3.165,83 2.901,02 0,00 0,00 1.911,00 16.680,91 1.185,70 2.880,78 0,00 0,00 4.066,48 12.614,43 31/12/2022
105 623100 ALEXSANDER BATISTA AGUIAR COORDENADOR II BELO HORIZONTE - COMARCA; DIRETORIA DE SUPORTE E MANUTENCAO 18.312,36 1.831,24 0,00 8.461,36 6.714,53 0,00 0,00 2.796,30 38.115,79 1.610,44 10.092,46 0,00 0,00 11.702,90 26.412,89 31/12/2022
106 513300 ALFSON MIRANDA BRAGA ANALISTA DO MP BELO HORIZONTE - COMARCA; BH-12PJ JUIZO CRIMINAL-GAB 087PJ 11.008,33 2.201,67 0,00 4.698,19 4.403,33 0,00 0,00 1.911,00 24.222,52 1.906,81 5.688,95 0,00 0,00 7.595,76 16.626,76 31/12/2022
107 618400 ALICE MAGALHAES MACEDO DE CARVALHO ANALISTA DO MP IPATINGA - COMARCA; IPATINGA-PJ-10PJ 10.325,15 1.032,52 0,00 4.247,44 3.785,89 0,00 0,00 2.796,30 22.187,30 1.610,44 4.663,38 0,00 0,00 6.273,82 15.913,48 31/12/2022
108 707000 ALICE MARIA RIBEIRO DINIZ ASSESSOR PROMOTOR JUSTICA BELO HORIZONTE - COMARCA; PROC JUST ATUACAO TRIBUNAIS SUPERIORES-GAB004 0,00 0,00 7.857,77 7.857,77 2.619,26 0,00 0,00 1.911,00 20.245,80 1.656,76 3.214,31 0,00 0,00 4.871,07 15.374,73 31/12/2022
109 471000 ALICE TITONELI MOREIRA ANALISTA DO MP MIRADOURO - COMARCA; MIRADOURO-PJ-UNPJ 11.008,33 2.201,67 0,00 4.698,19 4.403,33 0,00 0,00 2.796,30 25.107,82 1.906,81 5.480,40 0,00 0,00 7.387,21 17.720,61 31/12/2022
110 731600 ALICIA PAULA RODRIGUES DE LIMA ASSESSOR PROMOTOR JUSTICA TIROS - COMARCA; TIROS-PJ-UNPJ 0,00 0,00 7.857,77 654,81 0,00 0,00 2.357,33 2.913,14 13.783,05 877,49 1.546,94 0,00 0,00 2.424,43 11.358,62 31/12/2022
111 725800 ALINE ALBIERI FRANCISCO ASSESSOR PROMOTOR JUSTICA BELO HORIZONTE - COMARCA; CAO-ORDEM ECONOMICA E TRIBUTARIA-ASSESS TECN 0,00 0,00 7.857,77 3.928,89 0,00 0,00 0,00 1.911,00 13.697,66 1.214,60 1.606,90 0,00 0,00 2.821,50 10.876,16 31/12/2022
112 622400 ALINE BALBINO PORTUGAL LOPES ANALISTA DO MP TRÊS PONTAS - COMARCA; TRES PONTAS-PJ-03PJ 10.325,15 1.032,52 0,00 4.247,44 3.785,89 0,00 0,00 2.796,30 22.187,30 1.610,44 4.663,38 0,00 0,00 6.273,82 15.913,48 31/12/2022
113 373000 ALINE BOTELHO RESENDE OFICIAL DO MP JUIZ DE FORA - COMARCA; JUIZ DE FORA-PJ-22PJ 10.661,25 2.132,25 0,00 4.758,24 4.264,50 0,00 0,00 1.911,00 23.727,24 1.840,17 5.458,35 0,00 0,00 7.298,52 16.428,72 31/12/2022
114 699800 ALINE CRISTINA DE OLIVEIRA AMARAL BARBOSA ASSESSOR PROCURADOR JUSTICA BELO HORIZONTE - COMARCA; GABINETE DE PROCURADOR DE JUSTIÇA - SALA 904 0,00 0,00 7.857,77 4.822,80 2.619,26 0,00 0,00 1.911,00 17.210,83 1.656,76 3.005,77 0,00 0,00 4.662,53 12.548,30 31/12/2022
115 407700 ALINE CRISTINA RODRIGUES PEREIRA COORDENADOR II BELO HORIZONTE - COMARCA; DIRETORIA DE PROJETOS DE EDIFICACOES 18.312,36 3.662,47 0,00 9.080,60 7.324,94 0,00 0,00 1.911,00 40.291,37 1.906,81 11.313,05 0,00 0,00 13.219,86 27.071,51 31/12/2022
116 193100 ALINE CRISTINA SENA OLIVEIRA OFICIAL DO MP UBERLÂNDIA - COMARCA; UBERLANDIA-PJ-03PJ 16.695,70 6.678,28 0,00 8.153,94 7.791,33 0,00 0,00 2.796,30 42.115,55 3.533,05 11.212,13 0,00 0,00 14.745,18 27.370,37 31/12/2022
117 554200 ALINE CRISTINA SILVA SOUZA OFICIAL DO MP TIROS - COMARCA; TIROS-PJ-UNPJ 6.694,66 669,47 0,00 3.640,64 2.454,71 0,00 0,00 1.911,00 15.370,48 971,47 2.452,29 0,00 0,00 3.423,76 11.946,72 31/12/2022
118 505500 ALINE DA CUNHA MARREIROS OLIVEIRA ANALISTA DO MP EUGENÓPOLIS - COMARCA; EUGENOPOLIS-PJ-UNPJ 11.008,33 2.201,67 0,00 4.698,19 4.403,33 0,00 0,00 3.681,60 25.993,12 1.906,81 5.584,67 0,00 0,00 7.491,48 18.501,64 31/12/2022
119 433500 ALINE DE MELO QUEIROZ OFICIAL DO MP BELO HORIZONTE - COMARCA; ASSESSORIA JURIDICA DO PROCON-MG 9.684,23 1.936,85 3.585,64 5.950,77 5.068,91 0,00 0,00 2.796,30 29.022,70 1.652,59 7.110,01 0,00 0,00 8.762,60 20.260,10 31/12/2022
120 691100 ALINE DE MELO SOUZA ASSESSOR PROCURADOR JUSTICA BELO HORIZONTE - COMARCA; GABINETE DE PROCURADOR DE JUSTIÇA - SALA 401 0,00 0,00 7.857,77 7.857,77 2.619,26 0,00 0,00 1.911,00 20.245,80 1.656,76 3.214,31 0,00 0,00 4.871,07 15.374,73 31/12/2022
121 542700 ALINE DE SOUSA ALBINO ANALISTA DO MP CONTAGEM - COMARCA; CONTAGEM-PJ-09PJ 11.008,33 1.100,83 0,00 4.203,66 4.036,39 0,00 0,00 1.911,00 22.260,21 1.730,68 5.079,45 0,00 0,00 6.810,13 15.450,08 31/12/2022
122 330000 ALINE DIORIO MAYRINK OFICIAL DO MP BELO HORIZONTE - COMARCA; NUCLEO DE ACORDOS DE NAO PERSECUCAO PENAL BH 8.650,50 1.730,10 0,00 3.736,19 3.460,20 0,00 0,00 1.911,00 19.487,99 1.454,11 4.122,40 0,00 0,00 5.576,51 13.911,48 31/12/2022
123 499000 ALINE FERREIRA LOPES ANALISTA DO MP TEÓFILO OTONI - COMARCA; TEOFILO OTONI-PJ-09PJ 11.008,33 2.201,67 0,00 4.698,19 4.403,33 0,00 0,00 1.911,00 24.222,52 1.906,81 5.584,67 0,00 0,00 7.491,48 16.731,04 31/12/2022
124 405300 ALINE LAIA CARDOZO SUPERINTENDENTE BELO HORIZONTE - COMARCA; SUPERINTENDENCIA LOGISTICA SERVICOS 24.982,93 4.996,59 0,00 12.092,01 9.993,17 0,00 0,00 1.911,00 53.975,70 2.897,75 15.904,38 0,00 0,00 18.802,13 35.173,57 31/12/2022
125 278200 ALINE MARCIA FARIA BARBOSA FERNANDES OFICIAL DO MP BARBACENA - COMARCA; BARBACENA-PJ-SECRETARIA 8.377,76 2.513,33 0,00 5.477,19 3.630,36 0,00 0,00 1.911,00 21.909,64 1.535,79 4.196,49 0,00 0,00 5.732,28 16.177,36 31/12/2022
126 389000 ALINE NERI NOBRE ANALISTA DO MP MONTES CLAROS - COMARCA; COORD REG PJ DEF EDUC DIR CRIANCA ADOL NORTE 16.695,70 6.678,28 0,00 9.330,77 7.791,33 0,00 1.669,57 1.911,00 44.076,65 3.533,05 10.930,73 0,00 267,13 14.730,91 29.345,74 31/12/2022
127 294600 ALINE PATRICIA SILVA VIEIRA OFICIAL DO MP UBERLÂNDIA - COMARCA; UBERLANDIA-PJ-03PJ 12.118,97 3.635,69 0,00 6.353,37 5.778,22 0,00 1.580,00 1.911,00 31.377,25 2.313,96 7.694,57 0,00 0,00 10.008,53 21.368,72 31/12/2022
128 420000 ALINE RODRIGUES CAMOROPIN ANALISTA DO MP SABARÁ - COMARCA; SABARA-PJ-02PJ 15.659,55 3.131,91 0,00 6.595,88 6.263,82 0,00 0,00 1.911,00 33.562,16 2.799,85 8.779,21 0,00 0,00 11.579,06 21.983,10 31/12/2022
129 715800 ALINE SANTOS PEDROSA MAIA BARBOSA ASSESSOR PROCURADOR JUSTICA BELO HORIZONTE - COMARCA; GABINETE DE PROCURADOR DE JUSTIÇA - SALA 1010 0,00 0,00 7.857,77 7.857,77 2.619,26 0,00 0,00 1.911,00 20.245,80 1.656,76 3.214,31 0,00 0,00 4.871,07 15.374,73 31/12/2022
130 699600 ALINE SEPULVEDA ROSA PIRES ASSESSOR PROCURADOR JUSTICA BELO HORIZONTE - COMARCA; GABINETE DE PROCURADOR DE JUSTIÇA - SALA 905 0,00 0,00 7.857,77 3.928,88 2.619,26 0,00 0,00 1.911,00 16.316,91 1.656,76 3.214,31 0,00 0,00 4.871,07 11.445,84 31/12/2022
131 408300 ALINE SILVA ARAUJO DE PAULA ANALISTA DO MP SÃO SEBASTIÃO DO PARAÍSO - COMARCA; SAO SEBASTIAO DO PARAISO-PJ-02PJ 16.169,47 3.233,89 0,00 9.080,46 6.467,79 0,00 0,00 1.911,00 36.862,61 927,17 9.964,74 0,00 0,00 10.891,91 25.970,70 31/12/2022
132 425400 ALINE TRINDADE DE FREITAS CAMPOS OFICIAL DO MP BELO HORIZONTE - COMARCA; BH-14PJ DEFESA CONSUMIDOR-SECRETARIA 9.999,62 1.999,92 0,00 10.286,40 3.999,85 0,00 0,00 1.911,00 28.196,79 1.713,14 5.018,76 0,00 0,00 6.731,90 21.464,89 31/12/2022
133 517200 ALISSOM PEREIRA DA SILVA ANALISTA DO MP BORDA DA MATA - COMARCA; BORDA DA MATA-PJ-UNPJ 11.008,33 2.201,67 0,00 4.698,19 4.403,33 0,00 0,00 2.796,30 25.107,82 1.906,81 5.688,95 0,00 0,00 7.595,76 17.512,06 31/12/2022
134 442400 ALISSON LABRE ANALISTA DO MP VARGINHA - COMARCA; VARGINHA-PJ-03PJ 11.736,91 2.347,38 0,00 6.337,04 4.694,76 0,00 0,00 1.911,00 27.027,09 927,17 6.788,76 0,00 0,00 7.715,93 19.311,16 31/12/2022
135 643800 ALLAN PAUL FONSECA DE CASTRO OFICIAL DO MP CONTAGEM - COMARCA; CONTAGEM-PJ-SECRETARIA 5.889,39 588,94 2.602,68 5.009,05 3.027,00 0,00 0,00 2.796,30 19.913,36 931,63 3.603,04 0,00 0,00 4.534,67 15.378,69 31/12/2022
136 612900 ALLAN VINICIUS VIEIRA ARAUJO COORDENADOR II BELO HORIZONTE - COMARCA; DIRETORIA DE GESTAO DOCUMENTAL 18.312,36 1.831,24 0,00 9.100,33 6.714,53 0,00 0,00 1.911,00 37.869,46 971,47 10.529,89 0,00 445,68 11.947,04 25.922,42 31/12/2022
137 349000 ALLEC RODRIGUES VIEIRA OFICIAL DO MP CAPINÓPOLIS - COMARCA; CAO-CIVEL 11.008,33 3.302,50 0,00 5.072,46 4.770,28 0,00 0,00 1.911,00 26.064,57 2.082,95 6.298,44 0,00 0,00 8.381,39 17.683,18 31/12/2022
138 297300 ALLYSON SALIBA MONTEIRO LAIZO ANALISTA DO MP CONSELHEIRO LAFAIETE - COMARCA; CONSELHEIRO LAFAIETE-PJ-03PJ 20.574,59 6.172,38 0,00 9.300,75 8.915,66 0,00 0,00 2.796,30 47.759,68 4.072,73 13.183,92 0,00 0,00 17.256,65 30.503,03 31/12/2022
139 303700 ALMIR LOPES LOURES ANALISTA DO MP BELO HORIZONTE - COMARCA; CENTRAL DE APOIO TECN-SETOR DE MEIO AMBIENTE 20.574,59 6.172,38 0,00 22.674,24 8.915,66 0,00 0,00 1.911,00 60.247,87 4.072,73 13.183,92 0,00 0,00 17.256,65 42.991,22 31/12/2022
140 696600 ALOIZIO MARTINS JALES JUNIOR ASSESSOR PROMOTOR JUSTICA CAMPESTRE - COMARCA; CAMPESTRE-PJ-SECRETARIA 0,00 0,00 7.857,77 4.874,93 2.619,26 0,00 0,00 1.911,00 17.262,96 1.656,76 3.214,31 0,00 0,00 4.871,07 12.391,89 31/12/2022
141 515900 ALTAIR NEVES JUNIOR OFICIAL DO MP BELO HORIZONTE - COMARCA; BH-01PJ FAZENDA PUBLICA-SECRETARIA 8.377,76 1.675,55 0,00 8.651,57 3.351,10 0,00 0,00 1.911,00 23.966,98 1.401,74 3.941,19 0,00 0,00 5.342,93 18.624,05 31/12/2022
142 233300 ALVARINDO BATISTA ANALISTA DO MP BELO HORIZONTE - COMARCA; NUCLEO APOIO TECNICO ESP COMUNICACAO 20.574,59 6.172,38 0,00 9.300,75 17.831,32 0,00 0,00 2.796,30 56.675,34 4.072,73 15.531,45 0,00 0,00 19.604,18 37.071,16 31/12/2022
143 274100 ALYSSON CARVALHO VIDAL DE LACERDA OFICIAL DO MP MANHUAÇU - COMARCA; MANHUACU-PJ-01PJ 11.008,33 3.302,50 0,00 12.227,88 4.770,28 0,00 0,00 1.911,00 33.219,99 2.082,95 6.298,44 0,00 0,00 8.381,39 24.838,60 31/12/2022
144 621000 AMANDA BASTOS ALVES ANALISTA DO MP BELO HORIZONTE - COMARCA; BH-07PJ 02 TRIBUNAL DO JURI-GAB 066PJ 10.325,15 1.032,52 0,00 4.930,71 3.785,89 0,00 0,00 1.911,00 21.985,27 927,17 4.863,02 0,00 0,00 5.790,19 16.195,08 31/12/2022
145 521700 AMANDA CRISTINA AGUIAR MACHADO OFICIAL DO MP CONGONHAS - COMARCA; CONGONHAS-PJ-01PJ 6.694,66 1.338,93 0,00 2.938,20 2.677,86 0,00 0,00 1.911,00 15.560,65 1.078,59 2.718,67 0,00 0,00 3.797,26 11.763,39 31/12/2022
146 713900 AMANDA DE ARAUJO CARVALHO ASSESSOR PROMOTOR JUSTICA ARAÇUAÍ - COMARCA; ARACUAI-PJ-01PJ 0,00 0,00 7.857,77 3.928,88 2.619,26 0,00 0,00 1.911,00 16.316,91 1.656,76 3.214,31 0,00 0,00 4.871,07 11.445,84 31/12/2022
147 613400 AMANDA DE ASSIS IUNES SANTOS ANALISTA DO MP CONGONHAS - COMARCA; CONGONHAS-PJ-01PJ 10.325,15 1.032,52 0,00 4.011,10 3.785,89 0,00 0,00 1.911,00 21.065,66 1.610,44 4.663,38 0,00 0,00 6.273,82 14.791,84 31/12/2022
148 695900 AMANDA DE OLIVEIRA ASSESSOR PROCURADOR JUSTICA BELO HORIZONTE - COMARCA; PROC JUST ATUACAO TRIBUNAIS SUPERIORES-GAB004 0,00 0,00 7.857,77 7.857,77 2.619,26 0,00 0,00 1.911,00 20.245,80 1.656,76 3.214,31 0,00 0,00 4.871,07 15.374,73 31/12/2022
149 520800 AMANDA DE SOUZA MACHADO ANALISTA DO MP BAEPENDI - COMARCA; BAEPENDI-PJ-UNPJ 11.008,33 2.201,67 0,00 4.698,19 4.403,33 0,00 0,00 1.911,00 24.222,52 1.906,81 5.480,40 0,00 0,00 7.387,21 16.835,31 31/12/2022
150 663900 AMANDA DENISE GONCALVES DA SILVA ASSESSOR ADMINISTRATIVO I BELO HORIZONTE - COMARCA; BH-12PJ JUIZO CRIMINAL-SECRETARIA 0,00 0,00 4.345,58 2.172,79 1.448,53 0,00 0,00 1.911,00 9.877,90 1.075,73 1.158,62 0,00 0,00 2.234,35 7.643,55 31/12/2022
151 677000 AMANDA LETICIA MESSIAS PEGO ASSESSOR PROMOTOR JUSTICA CORAÇÃO DE JESUS - COMARCA; CORACAO DE JESUS-PJ-UNPJ 0,00 0,00 7.857,77 3.928,88 5.238,52 0,00 0,00 1.911,00 18.936,17 1.656,76 3.934,61 0,00 0,00 5.591,37 13.344,80 31/12/2022
152 543100 AMANDA VIEIRA FREITAS BRESSANE ANALISTA DO MP VARGINHA - COMARCA; COORD REG DEF ORDEM ECON TRIB VARGINHA 11.008,33 1.100,83 0,00 6.061,36 4.036,39 0,00 0,00 1.911,00 24.117,91 1.730,68 5.079,45 0,00 0,00 6.810,13 17.307,78 31/12/2022
153 434400 AMARILIS ASSIS SIMAO CURCIO ANALISTA DO MP BELO HORIZONTE - COMARCA; DIRETORIA GESTAO COMPRAS LICITACOES 11.008,33 2.201,67 0,00 4.698,19 4.403,33 0,00 0,00 1.911,00 24.222,52 1.906,81 5.688,95 0,00 0,00 7.595,76 16.626,76 31/12/2022
154 652000 AMAURI SILVA ALVES ASSESSOR ADMINISTRATIVO III BELO HORIZONTE - COMARCA; BH-23PJ INFRACIONAL-SEC EXP 9.684,23 968,42 0,00 9.923,05 3.550,88 0,00 0,00 1.911,00 26.037,58 729,60 4.695,45 0,00 0,00 5.425,05 20.612,53 31/12/2022
155 58000 AMELIA GUARIZE DE CASTRO OFICIAL DO MP JUIZ DE FORA - COMARCA; JUIZ DE FORA-PJ-SECRETARIA 7.370,10 7.370,10 0,00 7.370,10 5.630,62 2.151,65 0,00 1.911,00 31.803,57 2.151,65 7.916,82 0,00 0,00 10.068,47 21.735,10 31/12/2022
156 324301 AMERICA SUELI FERREIRA DA SILVA ANALISTA DO MP UBERLÂNDIA - COMARCA; UBERLANDIA-PJ-02PJ 11.008,33 2.201,67 0,00 4.698,19 4.403,33 0,00 0,00 1.911,00 24.222,52 1.906,81 5.584,67 0,00 0,00 7.491,48 16.731,04 31/12/2022
157 273300 AMUJACY DE BRITO ASSIZ OFICIAL DO MP BELO HORIZONTE - COMARCA; BH-12PJ JUIZO CRIMINAL-SECRETARIA 11.008,33 3.302,50 0,00 5.072,46 4.770,28 0,00 0,00 1.911,00 26.064,57 2.082,95 5.881,35 0,00 0,00 7.964,30 18.100,27 31/12/2022
158 482200 ANA ALICE LOPES ACHTSCHIN ANALISTA DO MP BELO HORIZONTE - COMARCA; PROC JUST ATUACAO TRIBUNAIS SUPERIORES-GAB002 13.341,69 2.668,34 0,00 6.383,83 5.336,68 0,00 0,00 1.911,00 29.641,54 2.354,82 7.239,23 0,00 0,00 9.594,05 20.047,49 31/12/2022
159 490400 ANA AMELIA PAULINO GARCIA OFICIAL DO MP CONTAGEM - COMARCA; CONTAGEM-PJ-SECRETARIA 8.650,50 1.730,10 0,00 5.229,90 3.460,20 0,00 0,00 2.796,30 21.867,00 1.454,11 4.018,13 0,00 0,00 5.472,24 16.394,76 31/12/2022
160 690400 ANA ANGELICA MOREIRA DA CUNHA ASSESSOR PROMOTOR JUSTICA TIMÓTEO - COMARCA; TIMOTEO-PJ-02PJ 0,00 0,00 7.857,77 3.928,88 2.619,26 0,00 0,00 1.911,00 16.316,91 1.656,76 3.214,31 0,00 0,00 4.871,07 11.445,84 31/12/2022
161 714900 ANA BEATRIZ LOBATO ALVES DE CARVALHO ASSESSOR PROCURADOR JUSTICA BELO HORIZONTE - COMARCA; GABINETE DE PROCURADOR DE JUSTICA - SALA 309 0,00 2.357,33 7.857,77 5.107,55 3.405,03 0,00 0,00 1.911,00 20.638,68 1.656,76 4.726,94 0,00 0,00 6.383,70 14.254,98 31/12/2022
162 715000 ANA CARLA RODRIGUES DE SOUZA ASSESSOR PROMOTOR JUSTICA TRÊS CORACOES - COMARCA; TRES CORACOES-PJ-01PJ 0,00 0,00 7.857,77 3.928,88 2.619,26 0,00 0,00 1.911,00 16.316,91 1.656,76 3.214,31 0,00 0,00 4.871,07 11.445,84 31/12/2022
163 279100 ANA CAROLINA ARAUJO PEREIRA ANALISTA DO MP BELO HORIZONTE - COMARCA; DIRETORIA DE PROJETOS DE EDIFICACOES 20.574,59 6.172,38 0,00 13.994,08 8.915,66 0,00 0,00 1.911,00 51.567,71 4.072,73 13.079,65 0,00 0,00 17.152,38 34.415,33 31/12/2022
164 653300 ANA CAROLINA CYRNE DINIZ ASSESSOR ADMINISTRATIVO III BELO HORIZONTE - COMARCA; CENTRAL DE APOIO TECNICO-SETOR CONTABIL 0,00 0,00 9.684,23 4.842,11 3.228,08 0,00 0,00 1.911,00 19.665,42 1.656,76 4.386,30 0,00 0,00 6.043,06 13.622,36 31/12/2022
165 359400 ANA CAROLINA DE ABREU FARIA ASSESSOR ADMINISTRATIVO IV BELO HORIZONTE - COMARCA; SUPERINTENDÊNCIA DE ENGENHARIA E ARQUITETURA 0,00 0,00 12.920,95 6.460,47 4.306,98 0,00 0,00 2.796,30 26.484,70 1.656,76 6.358,91 0,00 0,00 8.015,67 18.469,03 31/12/2022
166 408500 ANA CAROLINA DE CASTRO CARVALHO ANALISTA DO MP BARBACENA - COMARCA; BARBACENA - SECRETARIA DAS PJS CRIMINAIS 16.169,47 3.233,89 0,00 7.109,88 6.467,79 0,00 0,00 2.796,30 35.777,33 2.897,75 9.118,00 0,00 0,00 12.015,75 23.761,58 31/12/2022
167 688000 ANA CAROLINA DE OLIVEIRA PINTO ASSESSOR PROCURADOR JUSTICA BELO HORIZONTE - COMARCA; GABINETE DE PROCURADOR DE JUSTIÇA - SALA 1005 0,00 0,00 7.857,77 3.928,88 5.238,52 0,00 0,00 1.911,00 18.936,17 1.656,76 3.934,61 0,00 0,00 5.591,37 13.344,80 31/12/2022
168 420200 ANA CAROLINA FERNANDES SILVA ANALISTA DO MP BELO HORIZONTE - COMARCA; GABINETE DE PROCURADOR DE JUSTIÇA - SALA 704 14.224,47 2.844,89 0,00 6.010,37 5.689,79 0,00 0,00 1.911,00 30.680,52 2.524,31 7.825,75 0,00 0,00 10.350,06 20.330,46 31/12/2022
169 522100 ANA CAROLINA FERNANDINO VIDAL PEREIRA SANTOS OFICIAL DO MP BELO HORIZONTE - COMARCA; SECRETARIA DO PROCON-MG 8.377,76 1.675,55 0,00 9.126,14 3.351,10 0,00 0,00 1.911,00 24.441,55 927,17 4.079,85 0,00 0,00 5.007,02 19.434,53 31/12/2022
170 716000 ANA CAROLINA FIGUEIREDO SILVA ASSESSOR PROCURADOR JUSTICA BELO HORIZONTE - COMARCA; PROC JUST ATUACAO TRIBUNAIS SUPERIORES-GAB001 0,00 0,00 7.857,77 4.707,09 2.619,26 0,00 0,00 1.911,00 17.095,12 1.656,76 3.034,24 0,00 0,00 4.691,00 12.404,12 31/12/2022
171 502400 ANA CAROLINA GONCALVES FERNANDES ANALISTA DO MP IPATINGA - COMARCA; IPATINGA-PJ-01PJ 11.008,33 2.201,67 0,00 6.932,04 4.403,33 0,00 0,00 3.681,60 28.226,97 463,58 5.975,19 0,00 0,00 6.438,77 21.788,20 31/12/2022
172 529900 ANA CAROLINA GONCALVES PECANHA CHEQUER ANALISTA DO MP MANHUAÇU - COMARCA; MANHUACU-PJ-04PJ 11.008,33 1.100,83 0,00 6.061,36 4.036,39 0,00 0,00 3.681,60 25.888,51 1.730,68 5.079,45 0,00 0,00 6.810,13 19.078,38 31/12/2022
173 431900 ANA CAROLINA MOTTA GUATIMOSIM ANALISTA DO MP BELO HORIZONTE - COMARCA; ASSESSORIA JURIDICO-ADMINISTRATIVA 14.224,47 2.844,89 0,00 6.010,37 5.689,79 0,00 0,00 2.796,30 31.565,82 2.524,31 7.825,75 0,00 0,00 10.350,06 21.215,76 31/12/2022
174 490600 ANA CAROLINA XAVIER GODOY ANALISTA DO MP BELO HORIZONTE - COMARCA; BH-18PJ DIREITOS HUMANOS-SECRETARIA 11.008,33 2.201,67 0,00 6.718,97 4.403,33 0,00 0,00 3.681,60 28.013,90 1.906,81 5.480,40 0,00 0,00 7.387,21 20.626,69 31/12/2022
175 600300 ANA CAROLINE PEREIRA DINIZ ANALISTA DO MP BELO HORIZONTE - COMARCA; PROC JUST ESP ACOES COMP ORIG CRIMINAL-SEC 11.008,33 1.100,83 0,00 4.699,64 4.036,39 0,00 0,00 2.796,30 23.641,49 1.730,68 5.079,45 0,00 0,00 6.810,13 16.831,36 31/12/2022
176 615800 ANA CAROLINE PEREIRA OLIVEIRA OFICIAL DO MP ALFENAS - COMARCA; ALFENAS-PJ-06PJ 6.694,66 669,47 0,00 2.826,66 2.454,71 0,00 0,00 1.911,00 14.556,50 971,47 2.452,29 0,00 0,00 3.423,76 11.132,74 31/12/2022
177 324800 ANA CECILIA MENDES DA SILVA OFICIAL DO MP OURO FINO - COMARCA; OURO FINO-PJ-01PJ 11.008,33 4.403,33 0,00 5.446,75 5.137,22 0,00 0,00 1.911,00 27.906,63 2.259,08 6.803,66 0,00 0,00 9.062,74 18.843,89 31/12/2022
178 704100 ANA CLARA MARTINS ALBUQUERQUE ASSESSOR ADMINISTRATIVO I BELO HORIZONTE - COMARCA; CAO-CRIANCAS E ADOLESCENTES-ASS TECNICA 0,00 0,00 4.345,58 2.172,79 1.448,53 0,00 0,00 1.911,00 9.877,90 1.075,73 1.158,62 0,00 0,00 2.234,35 7.643,55 31/12/2022
179 698700 ANA CLARA SANTOS ALMEIDA ASSESSOR PROMOTOR JUSTICA SABINÓPOLIS - COMARCA; SABINOPOLIS-PJ-UNPJ 0,00 0,00 7.857,77 4.874,93 2.619,26 0,00 0,00 1.911,00 17.262,96 1.656,76 3.214,31 0,00 0,00 4.871,07 12.391,89 31/12/2022
180 441300 ANA CLAUDIA ALKIMIM MIRANDA BOMTEMPO ANALISTA DO MP MONTES CLAROS - COMARCA; MONTES CLAROS-PJ-11PJ 14.224,47 2.844,89 0,00 6.010,37 5.689,79 0,00 0,00 1.911,00 30.680,52 2.524,31 7.617,20 0,00 0,00 10.141,51 20.539,01 31/12/2022
181 642500 ANA CLAUDIA DA COSTA NAVES OFICIAL DO MP MONTE CARMELO - COMARCA; MONTE CARMELO-PJ-02PJ 5.438,14 543,81 0,00 2.233,08 1.993,98 0,00 0,00 2.796,30 13.005,31 757,89 1.682,86 0,00 0,00 2.440,75 10.564,56 31/12/2022
182 716800 ANA CLAUDIA DOURADO MENDES ASSESSOR PROMOTOR JUSTICA ARAÇUAÍ - COMARCA; ARACUAI-PJ-02PJ 0,00 0,00 7.857,77 3.928,89 0,00 0,00 0,00 1.911,00 13.697,66 1.656,76 2.313,95 0,00 0,00 3.970,71 9.726,95 31/12/2022
183 604900 ANA CLAUDIA OLIVEIRA DE MIRANDA OFICIAL DO MP PONTE NOVA - COMARCA; PONTE NOVA-PJ-04PJ 6.081,20 608,12 0,00 2.479,16 2.229,77 0,00 539,61 7.797,60 19.735,46 865,50 1.973,29 0,00 0,00 2.838,79 16.896,67 31/12/2022
184 379300 ANA CRISTINA ALVES FLAVIO ANALISTA DO MP SÃO GOTARDO - COMARCA; SAO GOTARDO-PJ-01PJ 16.169,47 3.233,89 0,00 6.803,93 6.467,79 0,00 0,00 2.796,30 35.471,38 2.897,75 9.013,74 0,00 0,00 11.911,49 23.559,89 31/12/2022
185 461200 ANA CRISTINA ALVES PASCHOAL ANALISTA DO MP BELO HORIZONTE - COMARCA; BH-07PJ 03 TRIBUNAL DO JURI-GAB 064PJ 11.008,33 2.201,67 0,00 4.698,19 4.403,33 0,00 0,00 1.911,00 24.222,52 1.906,81 5.584,67 0,00 0,00 7.491,48 16.731,04 31/12/2022
186 514100 ANA CRISTINA ARAUJO ASSUNCAO ANALISTA DO MP BELO HORIZONTE - COMARCA; ASSESS JUR DO CONS SUPERIOR DO MINISTERIO PUB 11.008,33 2.201,67 0,00 11.303,19 4.403,33 0,00 0,00 2.796,30 31.712,82 1.906,81 5.584,67 0,00 0,00 7.491,48 24.221,34 31/12/2022
187 113401 ANA CRISTINA BRAGA ALBUQUERQUE ASSESSOR ADM. ESPECIAL BELO HORIZONTE - COMARCA; DIRETORIA-GERAL 0,00 0,00 24.982,93 12.491,46 8.327,64 0,00 0,00 1.333,00 47.135,03 1.656,76 14.202,96 0,00 0,00 15.859,72 31.275,31 31/12/2022
188 233800 ANA CRISTINA BRAGA SOARES OFICIAL DO MP CONTAGEM - COMARCA; CONTAGEM-PJ-SECRETARIA 13.341,69 4.002,51 0,00 6.377,29 5.781,40 0,00 0,00 1.911,00 31.413,89 2.568,29 7.769,37 0,00 0,00 10.337,66 21.076,23 31/12/2022
189 186400 ANA CRISTINA DE AZEVEDO LOPES OFICIAL DO MP UBÁ - COMARCA; UBA-PJ-01PJ 18.312,36 7.324,94 0,00 14.115,11 8.545,77 0,00 0,00 1.911,00 50.209,18 3.895,18 12.569,53 0,00 0,00 16.464,71 33.744,47 31/12/2022
190 693000 ANA CRISTINA DE MELO SILVEIRA ASSESSOR PROCURADOR JUSTICA BELO HORIZONTE - COMARCA; COORD DE CONTROLE CONSTITUCIONALIDADE 0,00 0,00 9.190,77 5.893,33 2.619,26 0,00 0,00 1.463,30 19.166,66 1.489,62 2.720,05 0,00 0,00 4.209,67 14.956,99 31/12/2022
191 465100 ANA CRISTINA DE OLIVEIRA GUIMARAES ANALISTA DO MP ITAJUBA - COMARCA; ITAJUBA-PJ-05PJ 11.008,33 2.201,67 0,00 4.698,19 4.403,33 0,00 0,00 2.796,30 25.107,82 1.906,81 5.480,40 0,00 0,00 7.387,21 17.720,61 31/12/2022
192 500600 ANA CRISTINA LATADO SUDARIO ANALISTA DO MP UBERLÂNDIA - COMARCA; UBERLANDIA-PJ-09PJ 11.008,33 2.201,67 0,00 4.698,19 4.403,33 0,00 0,00 1.911,00 24.222,52 1.906,81 5.688,95 0,00 0,00 7.595,76 16.626,76 31/12/2022
193 331400 ANA CRISTINA RIBEIRO ALVES OFICIAL DO MP BAMBUÍ - COMARCA; BAMBUI-PJ-UNPJ 11.008,33 3.302,50 0,00 5.072,46 4.770,28 0,00 0,00 1.911,00 26.064,57 2.082,95 6.194,17 0,00 0,00 8.277,12 17.787,45 31/12/2022
194 249300 ANA ELOINA MARTINS OFICIAL DO MP BETIM - COMARCA; BETIM-PJ-02PJ 14.224,47 7.112,24 0,00 11.556,09 7.112,24 0,00 1.422,45 1.911,00 43.338,49 3.207,09 9.859,85 0,00 227,59 13.294,53 30.043,96 31/12/2022
195 257400 ANA FLAVIA CAMBRAIA ANALISTA DO MP BELO HORIZONTE - COMARCA; BH-19PJ SAUDE-SECRETARIA 150PJ 20.574,59 6.172,38 0,00 9.300,75 8.915,66 0,00 0,00 1.911,00 46.874,38 4.072,73 13.079,65 0,00 0,00 17.152,38 29.722,00 31/12/2022
196 248201 ANA FLAVIA DE MORAIS SOUZA ANALISTA DO MP DIVINÓPOLIS - COMARCA; DIVINOPOLIS-PJ-01PJ 12.118,97 3.635,69 0,00 5.563,37 5.251,55 0,00 0,00 2.796,30 29.365,88 2.313,96 6.889,29 0,00 0,00 9.203,25 20.162,63 31/12/2022
197 621100 ANA FLAVIA DINIZ TEODORO OFICIAL DO MP SANTA LUZIA - COMARCA; SANTA LUZIA-PJ-06PJ 6.694,66 669,47 0,00 6.392,66 4.909,42 0,00 0,00 1.911,00 20.577,21 971,47 3.127,33 0,00 0,00 4.098,80 16.478,41 31/12/2022
198 238600 ANA FLAVIA FRANCO OFICIAL DO MP BELO HORIZONTE - COMARCA; DIRETORIA DE PESSOAL ADMINISTRATIVO - DPAD 15.659,55 6.263,82 0,00 11.437,11 7.307,79 0,00 0,00 1.911,00 42.579,27 3.300,95 10.513,26 0,00 0,00 13.814,21 28.765,06 31/12/2022
199 690000 ANA FLAVIA LURIAN DE PAIVA ASSESSOR PROCURADOR JUSTICA BELO HORIZONTE - COMARCA; GABINETE DE PROCURADOR DE JUSTIÇA - SALA 609 0,00 0,00 7.857,77 3.928,88 2.619,26 0,00 0,00 1.911,00 16.316,91 1.656,76 3.214,31 0,00 0,00 4.871,07 11.445,84 31/12/2022
200 402900 ANA FLAVIA PORTES DE CARVALHO ANALISTA DO MP BELO HORIZONTE - COMARCA; DIRET DE PLANOS PROJETOS E PROGRAMAS INST 16.169,47 3.233,89 0,00 6.803,93 6.467,79 0,00 0,00 1.911,00 34.586,08 2.897,75 9.013,74 0,00 0,00 11.911,49 22.674,59 31/12/2022
201 382700 ANA KARENINA SALDANHA GONTIJO ANALISTA DO MP BELO HORIZONTE - COMARCA; ASSESS TECNICO-JUR JUNTO AS PROC. DE JUST 15.659,55 3.131,91 0,00 6.595,88 6.263,82 0,00 0,00 1.911,00 33.562,16 2.799,85 8.779,21 0,00 0,00 11.579,06 21.983,10 31/12/2022
202 620500 ANA KARINE DE ANDRADE OLIVEIRA ANALISTA DO MP RIBEIRÃO DAS NEVES - COMARCA; RIBEIRAO NEVES-SEC PJ EXECUCAO PENAL 9.378,86 937,89 0,00 3.800,21 3.438,92 0,00 0,00 1.911,00 19.466,88 1.443,89 4.087,06 0,00 0,00 5.530,95 13.935,93 31/12/2022
203 462200 ANA LUCIA ANDRADE TOMICH OTTONI ANALISTA DO MP TEÓFILO OTONI - COMARCA; TEOFILO OTONI-PJ-07PJ 11.008,33 2.201,67 0,00 4.698,19 4.403,33 0,00 532,80 8.608,70 31.453,02 1.906,81 5.480,40 0,00 0,00 7.387,21 24.065,81 31/12/2022
204 504100 ANA LUCIA CATAO DE CARVALHO OFICIAL DO MP BELO HORIZONTE - COMARCA; DIR RELACOES INSTITUCIONAIS 8.650,50 1.730,10 0,00 3.736,19 3.460,20 0,00 0,00 1.911,00 19.487,99 1.454,11 4.018,13 0,00 0,00 5.472,24 14.015,75 31/12/2022
205 274700 ANA LUCIA DE ALENCAR BRAGATO OFICIAL DO MP UBERABA - COMARCA; UBERABA-PJ-07PJ 11.008,33 3.302,50 0,00 7.360,60 4.770,28 0,00 0,00 1.911,00 28.352,71 2.082,95 6.298,44 0,00 0,00 8.381,39 19.971,32 31/12/2022
206 509400 ANA LUCIA DORNELAS MALLOSTO ANALISTA DO MP JUIZ DE FORA - COMARCA; JUIZ DE FORA-PJ-25PJ 11.008,33 2.201,67 0,00 4.698,19 4.403,33 0,00 0,00 1.911,00 24.222,52 1.906,81 5.584,67 0,00 0,00 7.491,48 16.731,04 31/12/2022
207 302600 ANA LUCIA LOPES SANTOS OFICIAL DO MP BELO HORIZONTE - COMARCA; DIVISÃO DE FISCALIZAÇÃO DAS RELAÇÕES DE CONSU 11.008,33 3.302,50 0,00 5.862,46 5.296,94 0,00 1.580,00 1.911,00 28.961,23 2.082,95 7.208,00 0,00 0,00 9.290,95 19.670,28 31/12/2022
208 716700 ANA LUISA DE LANA COELHO ASSESSOR PROCURADOR JUSTICA BELO HORIZONTE - COMARCA; GABINETE DE PROCURADOR DE JUSTIÇA - SALA 715 0,00 0,00 7.857,77 3.928,89 2.619,26 0,00 0,00 1.911,00 16.316,92 1.656,76 3.034,24 0,00 0,00 4.691,00 11.625,92 31/12/2022
209 702000 ANA LUISA DE OLIVEIRA RIBEIRO ASSESSOR PROCURADOR JUSTICA BELO HORIZONTE - COMARCA; ASSESS TECNICO-JUR JUNTO AS PROC. DE JUST 0,00 0,00 7.857,77 3.928,88 2.619,26 0,00 0,00 1.911,00 16.316,91 1.656,76 3.214,31 0,00 0,00 4.871,07 11.445,84 31/12/2022
210 493400 ANA LUISA NOGUEIRA MOREIRA ANALISTA DO MP BELO HORIZONTE - COMARCA; BH-19PJ SAUDE-SECRETARIA 130PJ 11.008,33 2.201,67 0,00 4.698,19 4.403,33 0,00 0,00 1.911,00 24.222,52 1.906,81 5.688,95 0,00 0,00 7.595,76 16.626,76 31/12/2022
211 389300 ANA LUISA REUTER LIMA ANALISTA DO MP BELO HORIZONTE - COMARCA; DIRETORIA DE SISTEMAS DE INFORMACAO 16.169,47 3.233,89 4.939,72 21.445,33 8.114,36 0,00 0,00 1.911,00 55.813,77 2.897,75 12.287,66 0,00 0,00 15.185,41 40.628,36 31/12/2022
212 480600 ANA LUIZA FERNANDES FRAGA E GRECO COORDENADOR I BELO HORIZONTE - COMARCA; OUVIDORIA DO MPMG 14.687,60 2.937,52 0,00 7.410,82 5.875,04 0,00 0,00 1.911,00 32.821,98 1.401,74 8.799,77 0,00 0,00 10.201,51 22.620,47 31/12/2022
213 726800 ANA LUIZA GOMES PEREIRA ASSESSOR ADMINISTRATIVO I BELO HORIZONTE - COMARCA; OUVIDORIA DO MPMG 0,00 0,00 4.345,58 1.810,66 0,00 0,00 0,00 1.911,00 8.067,24 775,95 518,68 0,00 0,00 1.294,63 6.772,61 31/12/2022
214 517800 ANA LUIZA MAGALHAES CIRINO PIOTO DE MELO OFICIAL DO MP BELO HORIZONTE - COMARCA; DIVISAO DE MATERIAIS 5.889,39 588,94 0,00 5.645,54 2.159,44 0,00 0,00 3.681,60 17.964,91 832,79 1.960,17 0,00 0,00 2.792,96 15.171,95 31/12/2022
215 481400 ANA MARCIA CANDIDA FERREIRA OFICIAL DO MP BRUMADINHO - COMARCA; BRUMADINHO-PJ-02PJ 6.694,66 1.338,93 0,00 2.938,20 2.677,86 0,00 0,00 1.911,00 15.560,65 1.078,59 2.822,95 0,00 0,00 3.901,54 11.659,11 31/12/2022
216 716200 ANA MARIA COUTO GONTIJO ASSESSOR PROCURADOR JUSTICA BELO HORIZONTE - COMARCA; GABINETE DE PROCURADOR DE JUSTIÇA - SALA 1014 0,00 0,00 7.857,77 3.928,89 2.619,26 0,00 0,00 1.911,00 16.316,92 1.656,76 3.034,24 0,00 0,00 4.691,00 11.625,92 31/12/2022
217 643100 ANA MARIA LOPES MIRANDA ANALISTA DO MP BELO HORIZONTE - COMARCA; CAO-FUNDACOES 9.223,00 922,30 0,00 4.145,48 3.381,77 0,00 0,00 2.796,30 20.468,85 927,17 3.850,59 0,00 0,00 4.777,76 15.691,09 31/12/2022
218 556400 ANA MARIA OLIVEIRA SOUZA OFICIAL DO MP ITAPECERICA - COMARCA; ITAPECERICA-PJ-UNPJ 6.912,65 691,27 0,00 2.912,01 2.534,64 0,00 0,00 1.911,00 14.961,57 1.009,84 2.585,05 0,00 0,00 3.594,89 11.366,68 31/12/2022
219 409600 ANA OLIVIA FARIA ROSENBURG ANALISTA DO MP BELO HORIZONTE - COMARCA; DIRETORIA DO COLEGIO E DA CAMARA DE PJ 16.169,47 4.850,84 0,00 7.685,14 7.006,77 0,00 0,00 1.911,00 37.623,22 3.156,46 10.013,26 0,00 0,00 13.169,72 24.453,50 31/12/2022
220 461500 ANA PAULA ALVES CARVALHO ANALISTA DO MP UBERLÂNDIA - COMARCA; UBERLANDIA-PJ-25PJ 11.366,79 2.273,36 0,00 5.059,51 4.546,72 0,00 0,00 2.796,30 26.042,68 1.975,64 5.718,56 0,00 0,00 7.694,20 18.348,48 31/12/2022
221 523200 ANA PAULA ALVES DA SILVA OFICIAL DO MP GOVERNADOR VALADARES - COMARCA; GOVERNADOR VALADARES-PJ-10PJ 8.377,76 1.675,55 0,00 4.099,48 3.351,10 0,00 0,00 5.452,20 22.956,09 927,17 3.871,31 0,00 0,00 4.798,48 18.157,61 31/12/2022
222 381200 ANA PAULA BARROS PEREIRA RIGHI ANALISTA DO MP BELO HORIZONTE - COMARCA; PROC JUST ATUACAO TRIBUNAIS SUPERIORES-GAB003 16.169,47 3.233,89 0,00 8.774,51 6.467,79 0,00 0,00 2.796,30 37.441,96 927,17 9.589,51 0,00 0,00 10.516,68 26.925,28 31/12/2022
223 696400 ANA PAULA CARVALHO SILVA ASSESSOR PROMOTOR JUSTICA PERDÕES - COMARCA; PERDOES-PJ-UNPJ 0,00 0,00 7.857,77 3.928,88 2.619,26 0,00 0,00 2.796,30 17.202,21 1.656,76 3.110,05 0,00 0,00 4.766,81 12.435,40 31/12/2022
224 700900 ANA PAULA CRAVO SALOME ASSESSOR ADMINISTRATIVO I BELO HORIZONTE - COMARCA; PROCURADOR-GERAL DE JUSTIÇA 0,00 0,00 4.345,58 2.172,79 1.448,53 0,00 0,00 1.911,00 9.877,90 1.075,73 1.158,62 0,00 0,00 2.234,35 7.643,55 31/12/2022
225 227200 ANA PAULA DA SILVA CAMPOLINA ANALISTA DO MP BELO HORIZONTE - COMARCA; DIRETORIA DE ORCAMENTO-DIOR/SPC 20.574,59 10.287,30 0,00 10.699,82 10.287,30 0,00 0,00 1.911,00 53.760,01 4.731,12 15.462,21 0,00 0,00 20.193,33 33.566,68 31/12/2022
226 278500 ANA PAULA DIAS CAPANEMA OFICIAL DO MP BELO HORIZONTE - COMARCA; DIRETORIA DE SEGURANCA 11.736,91 3.521,07 0,00 5.635,07 5.085,99 0,00 0,00 1.911,00 27.890,04 2.234,49 6.822,85 0,00 0,00 9.057,34 18.832,70 31/12/2022
227 327300 ANA PAULA GARCIA MAXIMO OFICIAL DO MP UNAÍ - COMARCA; UNAI-PJ-01PJ 13.341,69 5.336,68 0,00 6.557,43 6.226,12 0,00 0,00 1.911,00 33.372,92 2.781,75 8.403,78 0,00 0,00 11.185,53 22.187,39 31/12/2022
228 270000 ANA PAULA GOULART CRUZ DE MAGALHAES ANALISTA DO MP BELO HORIZONTE - COMARCA; ASSESSORIA ESPECIAL DO PGJ 20.574,59 6.172,38 0,00 9.300,75 8.915,66 0,00 0,00 1.911,00 46.874,38 4.072,73 13.183,92 0,00 0,00 17.256,65 29.617,73 31/12/2022
229 262100 ANA PAULA KOMATSUZAKI ABIJAUDI ANALISTA DO MP BELO HORIZONTE - COMARCA; BH-17PJ PATRIMONIO PUBLICO-SECRETARIA 20.574,59 10.287,30 0,00 11.728,55 10.287,30 0,00 0,00 1.911,00 54.788,74 4.731,12 15.253,67 0,00 0,00 19.984,79 34.803,95 31/12/2022
230 278900 ANA PAULA MOREIRA GURGEL ANALISTA DO MP BELO HORIZONTE - COMARCA; ASSESSORIA JURIDICO-ADMINISTRATIVA 20.574,59 8.229,84 7.494,88 13.329,19 12.099,77 0,00 0,00 1.911,00 63.639,27 4.401,92 18.671,88 837,09 0,00 23.910,89 39.728,38 31/12/2022
231 425701 ANA PAULA ROCHA ANALISTA DO MP BELO HORIZONTE - COMARCA; ASSESSORIA DE COMUNICACAO INTEGRADA 11.008,33 1.100,83 0,00 6.004,07 4.036,39 0,00 0,00 2.796,30 24.945,92 1.730,68 5.079,45 0,00 0,00 6.810,13 18.135,79 31/12/2022
232 395601 ANA PAULA SALGE OLIVEIRA ANALISTA DO MP UBERABA - COMARCA; UBERABA-PJ-15PJ 11.008,33 3.302,50 0,00 5.072,46 4.770,28 0,00 0,00 1.911,00 26.064,57 2.082,95 6.298,44 0,00 0,00 8.381,39 17.683,18 31/12/2022
233 473200 ANA PAULA SCOTTON BRASIL ANALISTA DO MP JUIZ DE FORA - COMARCA; JUIZ DE FORA-PJ-09PJ 11.008,33 2.201,67 0,00 4.698,19 4.403,33 0,00 0,00 1.911,00 24.222,52 1.906,81 5.688,95 0,00 0,00 7.595,76 16.626,76 31/12/2022
234 633600 ANA PAULA SILVA FERNANDES OFICIAL DO MP CATAGUASES - COMARCA; CATAGUASES-PJ-04PJ 6.483,63 648,36 0,00 2.527,07 2.377,33 0,00 0,00 1.931,66 13.968,05 934,33 2.323,76 0,00 0,00 3.258,09 10.709,96 31/12/2022
235 470900 ANA PAULA VALADARES ANALISTA DO MP PITANGUI - COMARCA; PITANGUI-PJ-01PJ 11.008,33 2.201,67 0,00 6.718,97 8.806,66 0,00 0,00 1.911,00 30.646,63 1.906,81 6.691,31 0,00 0,00 8.598,12 22.048,51 31/12/2022
236 447000 ANA PAULA VALENTIM DE ARAUJO ANALISTA DO MP BELO HORIZONTE - COMARCA; PROC JUST ESP ACOES COMP ORIG CRIMINAL-ASSESS 12.118,97 2.423,79 0,00 5.380,55 4.847,59 0,00 0,00 1.911,00 26.681,90 2.120,06 6.426,85 0,00 0,00 8.546,91 18.134,99 31/12/2022
237 604200 ANA PAULA VIANA E SILVA OFICIAL DO MP BELO HORIZONTE - COMARCA; BH-17PJ PATRIMONIO PUBLICO-SECRETARIA 6.694,66 669,47 0,00 3.640,64 2.454,71 0,00 0,00 1.911,00 15.370,48 971,47 2.452,29 0,00 0,00 3.423,76 11.946,72 31/12/2022
238 505400 ANA PAULA VIEIRA SOUTO OFICIAL DO MP ALMENARA - COMARCA; ALMENARA-PJ-01PJ 6.694,66 2.677,86 0,00 8.079,70 3.124,17 0,00 0,00 1.911,00 22.487,39 1.292,82 3.459,99 0,00 0,00 4.752,81 17.734,58 31/12/2022
239 280200 ANA RACHEL BRANDAO LADEIRA ROLAND ANALISTA DO MP BELO HORIZONTE - COMARCA; SUPERINTENDENCIA GESTÃO DE PESSOAS 20.574,59 6.172,38 7.494,88 13.557,52 11.413,95 0,00 0,00 1.911,00 61.124,32 4.072,73 17.993,13 0,00 0,00 22.065,86 39.058,46 31/12/2022
240 691000 ANA RACHEL DOS REIS E SENA COSTA ASSESSOR PROMOTOR JUSTICA BELO HORIZONTE - COMARCA; GABINETE DE PROCURADOR DE JUSTIÇA - SALA 601 0,00 0,00 7.857,77 3.928,88 2.619,26 0,00 0,00 1.911,00 16.316,91 1.656,76 3.214,31 0,00 0,00 4.871,07 11.445,84 31/12/2022
241 601200 ANA REGINA RIBEIRO ANALISTA DO MP BELO HORIZONTE - COMARCA; DIV FISCAL ADM CONT TERCEIRIZACAO 11.008,33 1.100,83 4.406,28 7.510,09 5.505,15 0,00 0,00 1.911,00 31.441,68 927,17 8.141,59 0,00 0,00 9.068,76 22.372,92 31/12/2022
242 384700 ANA RODRIGUES PEREIRA MARRA ANALISTA DO MP COROMANDEL - COMARCA; COROMANDEL-PJ-01PJ 11.008,33 2.201,67 0,00 4.698,19 4.403,33 0,00 0,00 2.796,30 25.107,82 1.906,81 5.480,40 0,00 0,00 7.387,21 17.720,61 31/12/2022
243 232700 ANA SILVIA SEMBLANO NAKAMURA OFICIAL DO MP BELO HORIZONTE - COMARCA; CENT DE APOIO TEC-SETOR DEF,IDOSO E INFANC 11.008,33 3.302,50 3.585,64 6.865,28 5.965,49 0,00 0,00 1.911,00 32.638,24 2.082,95 8.599,23 0,00 0,00 10.682,18 21.956,06 31/12/2022
244 602100 ANACLETO FRANCISCO MARCIER PIMENTA OFICIAL DO MP SÃO JOÃO DEL REI - COMARCA; SAO JOAO DEL REI-PJ-03PJ 6.694,66 669,47 0,00 3.048,00 2.454,71 0,00 0,00 3.681,60 16.548,44 971,47 1.930,92 0,00 0,00 2.902,39 13.646,05 31/12/2022
245 310400 ANADEJE DO CARMO DINIZ ARAUJO OFICIAL DO MP BELO HORIZONTE - COMARCA; DIRETORIA DE PESSOAL ADMINISTRATIVO - DPAD 11.008,33 3.302,50 0,00 5.072,46 4.770,28 0,00 0,00 1.911,00 26.064,57 2.082,95 6.298,44 0,00 0,00 8.381,39 17.683,18 31/12/2022
246 337000 ANAILDES MARIA MENDES OFICIAL DO MP JANAÚBA - COMARCA; JANAUBA-PJ-02PJ 11.008,33 3.302,50 0,00 5.072,46 4.770,28 0,00 0,00 2.796,30 26.949,87 2.082,95 6.298,44 0,00 0,00 8.381,39 18.568,48 31/12/2022
247 192900 ANATALIA CERQUEIRA LIMA PERES OFICIAL DO MP UBERABA - COMARCA; COORD REG SAUDE MACROR SANIT TRIANGULO SUL 13.776,02 5.510,41 0,00 7.647,93 6.428,81 0,00 0,00 1.911,00 35.274,17 2.879,04 9.053,26 0,00 0,00 11.932,30 23.341,87 31/12/2022
248 377400 ANDEIRSON DA MATTA BARBOSA ANALISTA DO MP POUSO ALEGRE - COMARCA; POUSO ALEGRE-PJ-01PJ 11.008,33 2.201,67 0,00 4.698,19 4.403,33 0,00 0,00 2.796,30 25.107,82 1.906,81 5.688,95 0,00 0,00 7.595,76 17.512,06 31/12/2022
249 317400 ANDERSON DA SILVA BICALHO OFICIAL DO MP CONTAGEM - COMARCA; CONTAGEM-PJ-SECRETARIA 10.661,25 3.198,38 0,00 7.173,83 4.619,88 0,00 0,00 1.911,00 27.564,34 2.010,75 5.735,81 0,00 0,00 7.746,56 19.817,78 31/12/2022
250 506900 ANDERSON DE SOUZA DAMIANI ANALISTA DO MP BELO HORIZONTE - COMARCA; DIRETORIA DE PAGAMENTO DE PESSOAL-DPAG 11.008,33 3.302,50 4.939,72 10.012,18 6.416,85 0,00 0,00 1.911,00 37.590,58 2.082,95 9.363,82 0,00 0,00 11.446,77 26.143,81 31/12/2022
251 410000 ANDERSON DE SOUZA NETO ASSESSOR ADMINISTRATIVO II BELO HORIZONTE - COMARCA; DIRETORIA DE ADMINISTRACAO FINANCEIRA 0,00 0,00 6.694,66 3.347,33 2.231,55 0,00 0,00 1.911,00 14.184,54 1.601,81 2.483,10 0,00 0,00 4.084,91 10.099,63 31/12/2022
252 181900 ANDERSON FLAVIO DE OLIVEIRA OFICIAL DO MP ITAGUARA - COMARCA; ITAGUARA-PJ-SECRETARIA 16.169,47 6.467,79 0,00 12.036,77 7.545,75 0,00 0,00 1.911,00 44.130,78 3.415,18 10.908,50 0,00 0,00 14.323,68 29.807,10 31/12/2022
253 333200 ANDERSON JOSE DE FREITAS OFICIAL DO MP IPATINGA - COMARCA; IPATINGA-PJ-04PJ 11.008,33 3.302,50 0,00 5.862,46 5.296,94 0,00 1.580,00 2.796,30 29.846,53 2.082,95 6.999,45 0,00 0,00 9.082,40 20.764,13 31/12/2022
254 699400 ANDERSON LUIZ CABRAL ASSESSOR PROMOTOR JUSTICA ALÉM PARAÍBA - COMARCA; ALEM PARAIBA-PJ-03PJ 0,00 0,00 7.857,77 4.874,93 2.619,26 0,00 0,00 1.911,00 17.262,96 1.656,76 3.214,31 0,00 0,00 4.871,07 12.391,89 31/12/2022
255 462100 ANDERSON LUIZ GUIMARAES CARDOSO ANALISTA DO MP BARBACENA - COMARCA; BARBACENA-PJ-02PJ 13.341,69 2.668,34 0,00 8.717,30 5.336,68 0,00 0,00 1.911,00 31.975,01 2.354,82 7.239,23 0,00 0,00 9.594,05 22.380,96 31/12/2022
256 429700 ANDERSON MELO DE SOUZA ASSESSOR ADMINISTRATIVO IV BELO HORIZONTE - COMARCA; DIRET DE ESTAGIOS E CONVENIOS ACADEMICOS 12.920,95 2.584,19 0,00 6.673,98 5.168,38 0,00 2.156,56 1.911,00 31.415,06 1.078,59 7.617,19 0,00 0,00 8.695,78 22.719,28 31/12/2022
257 545600 ANDERSON MENDES PROCOPIO FERREIRA ANALISTA DO MP BELO HORIZONTE - COMARCA; BH-12PJ JUIZO CRIMINAL-GAB 089PJ 11.008,33 1.100,83 0,00 4.203,66 4.036,39 0,00 0,00 1.911,00 22.260,21 1.730,68 5.079,45 0,00 0,00 6.810,13 15.450,08 31/12/2022
258 519900 ANDERSON MOREIRA DOEHLER ANALISTA DO MP TEÓFILO OTONI - COMARCA; COORD REG SAUDE MACRORREGIAO SANIT NORDESTE 11.008,33 3.302,50 0,00 5.072,46 4.770,28 0,00 0,00 1.911,00 26.064,57 2.082,95 6.298,44 0,00 0,00 8.381,39 17.683,18 31/12/2022
259 103000 ANDERSON TADEU DE DEUS ASSESSOR ADMINISTRATIVO II BELO HORIZONTE - COMARCA; BH-26 CRIME CONT CRIAN ADOL-SECRETARIA 0,00 4.686,26 6.694,66 5.690,46 3.793,64 0,00 0,00 1.911,00 22.776,02 1.656,76 5.475,00 0,00 0,00 7.131,76 15.644,26 31/12/2022
260 309200 ANDITYAS SOARES DE MOURA COSTA MATOS ANALISTA DO MP BELO HORIZONTE - COMARCA; GABINETE DE PROCURADOR DE JUSTIÇA - SALA 909 16.695,70 5.008,71 0,00 7.586,28 7.234,80 0,00 0,00 1.911,00 38.436,49 3.265,92 10.392,01 0,00 0,00 13.657,93 24.778,56 31/12/2022
261 519200 ANDRE BORJA LANA ANALISTA DO MP BELO HORIZONTE - COMARCA; DIR CONTEUDO JORNALISTICO 11.008,33 2.201,67 0,00 4.698,19 4.403,33 0,00 1.168,64 1.911,00 25.391,16 1.906,81 6.010,33 0,00 0,00 7.917,14 17.474,02 31/12/2022
262 637200 ANDRE FERNANDES DA CUNHA OFICIAL DO MP MORADA NOVA DE MINAS - COMARCA; MORADA NOVA DE MINAS-PJ-UNPJ 6.483,63 648,36 0,00 3.057,31 2.377,33 0,00 0,00 1.911,00 14.477,63 463,58 2.327,70 0,00 0,00 2.791,28 11.686,35 31/12/2022
263 651500 ANDRE GONCALVES MARANHAO OFICIAL DO MP ANDRADAS - COMARCA; ANDRADAS-PJ-02PJ 5.266,66 526,67 0,00 5.063,73 1.931,11 0,00 0,00 1.911,00 14.699,17 729,60 1.577,39 0,00 0,00 2.306,99 12.392,18 31/12/2022
264 521900 ANDRE LUIS GOMES SILVA ANALISTA DO MP FORMIGA - COMARCA; FORMIGA-PJ-02PJ 11.008,33 2.201,67 0,00 4.698,19 4.403,33 0,00 0,00 3.681,60 25.993,12 1.906,81 5.190,42 0,00 0,00 7.097,23 18.895,89 31/12/2022
265 304300 ANDRE LUIZ AVELAR ANALISTA DO MP BELO HORIZONTE - COMARCA; DIRETORIA DE REDES E BANCOS DE DADOS 9.223,00 2.766,90 0,00 6.091,67 3.996,63 0,00 0,00 1.911,00 23.989,20 1.711,60 4.909,15 0,00 0,00 6.620,75 17.368,45 31/12/2022
266 397400 ANDRE PATARO MYRRHA DE PAULA E SILVA ANALISTA DO MP BELO HORIZONTE - COMARCA; ASSESSORIA JURIDICO-ADMINISTRATIVA 16.169,47 3.233,89 0,00 6.803,93 6.467,79 0,00 0,00 2.796,30 35.471,38 2.897,75 9.118,00 0,00 0,00 12.015,75 23.455,63 31/12/2022
267 650100 ANDRE THOME VARGAS OFICIAL DO MP LEOPOLDINA - COMARCA; LEOPOLDINA-PJ-04PJ 5.703,71 570,37 0,00 2.653,10 2.091,36 0,00 0,00 1.911,00 12.929,54 400,85 1.846,21 0,00 0,00 2.247,06 10.682,48 31/12/2022
268 548500 ANDRE VINICIUS CARVALHO MEIRA ANALISTA DO MP JUIZ DE FORA - COMARCA; JUIZ DE FORA-PJ-24PJ 11.008,33 1.100,83 0,00 5.503,15 4.036,39 0,00 0,00 1.911,00 23.559,70 927,17 5.314,23 0,00 0,00 6.241,40 17.318,30 31/12/2022
269 297200 ANDRE WILLE ROSARIO ANALISTA DO MP BELO HORIZONTE - COMARCA; ASSESSORIA ESPECIAL DO PGJ 20.574,59 6.172,38 0,00 9.810,08 8.915,66 0,00 0,00 1.911,00 47.383,71 4.072,73 12.975,37 0,00 0,00 17.048,10 30.335,61 31/12/2022
270 423600 ANDREA COSTA GUALBERTO ALVES ANALISTA DO MP GOVERNADOR VALADARES - COMARCA; COORD REG PJ DEF EDU DIR CRIANCA ADOL RIODOCE 15.659,55 10.961,69 0,00 26.621,24 10.224,62 4.052,61 0,00 1.911,00 69.430,71 4.052,61 15.610,45 0,00 0,00 19.663,06 49.767,65 31/12/2022
271 467300 ANDREA DE CASSIA PENNA ALVERNAZ ANALISTA DO MP PONTE NOVA - COMARCA; PONTE NOVA-PJ-01PJ 11.008,33 2.201,67 0,00 4.698,19 4.403,33 0,00 0,00 1.911,00 24.222,52 1.906,81 5.584,67 0,00 0,00 7.491,48 16.731,04 31/12/2022
272 308000 ANDREA DE CASSIA SANTOS OLIVEIRA ANALISTA DO MP BELO HORIZONTE - COMARCA; COORD DE GABINETE DO PGJ 19.791,01 5.937,30 0,00 9.444,33 8.576,10 0,00 915,62 1.911,00 46.575,36 3.909,74 12.515,65 0,00 0,00 16.425,39 30.149,97 31/12/2022
273 349500 ANDREA DE OLIVEIRA LOIOLA REGIS OFICIAL DO MP IGUATAMA - COMARCA; IGUATAMA-PJ-UNPJ 11.008,33 3.302,50 0,00 5.072,46 4.770,28 0,00 0,00 1.911,00 26.064,57 2.082,95 6.089,89 0,00 0,00 8.172,84 17.891,73 31/12/2022
274 287900 ANDREA FERNANDES PENA MARTINS OFICIAL DO MP MONTES CLAROS - COMARCA; MONTES CLAROS-PJ-09PJ 11.008,33 3.302,50 0,00 5.072,46 4.770,28 0,00 0,00 1.911,00 26.064,57 2.082,95 6.089,89 0,00 0,00 8.172,84 17.891,73 31/12/2022
275 300800 ANDREA FERREIRA ANALISTA DO MP LAVRAS - COMARCA; LAVRAS-PJ-04PJ 19.037,29 5.711,19 0,00 20.995,51 8.249,49 0,00 0,00 1.911,00 55.904,48 3.752,97 12.077,42 0,00 0,00 15.830,39 40.074,09 31/12/2022
276 395100 ANDREA LANNA MENDES NOVAIS ANALISTA DO MP BELO HORIZONTE - COMARCA; PROMOT ESTADUAL DE DEF PATRI CULT E TUR DE MG 16.695,70 3.339,14 0,00 17.036,05 6.678,28 0,00 0,00 1.911,00 45.660,17 2.998,79 9.363,36 0,00 0,00 12.362,15 33.298,02 31/12/2022
277 67300 ANDREA LEAO MAGALHAES ROQUE ASSESSOR ADMINISTRATIVO IV BELO HORIZONTE - COMARCA; COORD ESTADUAL COMBATE CRIMES CIBERNETICOS 0,00 9.044,67 12.920,95 10.982,81 7.321,87 0,00 0,00 1.911,00 42.181,30 1.656,76 12.162,57 0,00 0,00 13.819,33 28.361,97 31/12/2022
278 335700 ANDREA LOPES PEREIRA ANALISTA DO MP GOVERNADOR VALADARES - COMARCA; COORD REG DO MA DA BACIA DO RIO DOCE 19.037,29 5.711,19 0,00 8.621,27 8.249,49 0,00 0,00 1.911,00 43.530,24 3.752,97 12.077,42 0,00 0,00 15.830,39 27.699,85 31/12/2022
279 419000 ANDREIA BARBOSA DE ALMEIDA ANALISTA DO MP BELO HORIZONTE - COMARCA; SUPER DE RECURSOS HUMANOS-COOP REMOTA 15.659,55 3.131,91 0,00 7.456,93 6.263,82 0,00 0,00 1.911,00 34.423,21 2.799,85 8.779,21 0,00 0,00 11.579,06 22.844,15 31/12/2022
280 281501 ANDREIA CARLA COSTA ANALISTA DO MP UBÁ - COMARCA; UBA-PJ-02PJ 16.169,47 3.233,89 0,00 7.109,88 6.467,79 0,00 0,00 1.911,00 34.892,03 2.897,75 9.118,00 0,00 0,00 12.015,75 22.876,28 31/12/2022
281 477100 ANDREIA DE ALMEIDA RIBEIRO MELO OFICIAL DO MP CONTAGEM - COMARCA; CONTAGEM-PJ-SECRETARIA 8.650,50 1.730,10 0,00 3.736,19 3.460,20 0,00 0,00 1.911,00 19.487,99 1.454,11 4.122,40 0,00 0,00 5.576,51 13.911,48 31/12/2022
282 619000 ANDREIA FERREIRA NORONHA COORDENADOR II BELO HORIZONTE - COMARCA; DIRETORIA DE SERVICO CRIMINAL 18.312,36 1.831,24 0,00 9.100,33 6.714,53 0,00 0,00 1.911,00 37.869,46 971,47 10.652,45 0,00 0,00 11.623,92 26.245,54 31/12/2022
283 424000 ANDREIA LUCIA COUTO ANALISTA DO MP BELO HORIZONTE - COMARCA; BH-18PJ DIREITOS HUMANOS-SECRETARIA 16.169,47 3.233,89 0,00 7.109,88 6.467,79 0,00 0,00 1.911,00 34.892,03 2.897,75 9.118,00 0,00 0,00 12.015,75 22.876,28 31/12/2022
284 370100 ANDREIA MARIA SILVA PINTO OFICIAL DO MP CORONEL FABRICIANO - COMARCA; CORONEL FABRICIANO-PJ-01PJ 11.008,33 3.302,50 0,00 6.228,24 4.770,28 0,00 0,00 2.796,30 28.105,65 927,17 6.636,15 0,00 0,00 7.563,32 20.542,33 31/12/2022
285 382100 ANDREIA NATALI PEREIRA DE OLIVEIRA OFICIAL DO MP PRADOS - COMARCA; PRADOS-PJ-UNPJ 11.008,33 2.201,67 0,00 5.303,42 4.403,33 0,00 0,00 1.911,00 24.827,75 1.906,81 5.688,95 0,00 0,00 7.595,76 17.231,99 31/12/2022
286 275200 ANDREIA RIBEIRO FREITAS OFICIAL DO MP VIÇOSA - COMARCA; VICOSA-PJ-04PJ 11.366,79 3.410,04 0,00 5.463,90 4.925,61 0,00 0,00 1.911,00 27.077,34 2.157,51 6.452,18 0,00 0,00 8.609,69 18.467,65 31/12/2022
287 352200 ANDREIA XAVIER PEREIRA OFICIAL DO MP CLÁUDIO - COMARCA; CLAUDIO-PJ-UNPJ 11.008,33 3.302,50 0,00 7.360,60 4.770,28 0,00 0,00 3.238,95 29.680,66 2.082,95 6.298,44 0,00 0,00 8.381,39 21.299,27 31/12/2022
288 638500 ANDRESA ALVES FEITOSA CASAGRANDE ANALISTA DO MP LAVRAS - COMARCA; COORD REG DO MA DA BACIA DO RIO GRANDE 9.999,62 999,96 0,00 4.999,76 3.666,53 0,00 0,00 1.911,00 21.576,87 927,17 4.809,40 0,00 0,00 5.736,57 15.840,30 31/12/2022
289 383700 ANDRESSA EDUARDO SOUZA ANALISTA DO MP OURO BRANCO - COMARCA; OURO BRANCO-PJ-SECRETARIA 16.169,47 3.233,89 0,00 10.087,65 6.467,79 0,00 0,00 2.796,30 38.755,10 2.897,75 9.118,00 0,00 0,00 12.015,75 26.739,35 31/12/2022
290 678400 ANDRESSA LUIZA SILVA LOPES ASSESSOR PROMOTOR JUSTICA CARMO DO PARANAÍBA - COMARCA; CARMO DO PARANAIBA-PJ-02PJ 0,00 0,00 7.857,77 4.874,93 2.619,26 0,00 0,00 1.911,00 17.262,96 1.656,76 3.214,31 0,00 0,00 4.871,07 12.391,89 31/12/2022
291 426200 ANDRESSA MENDES CASAL OFICIAL DO MP BELO HORIZONTE - COMARCA; DIR ESTRUTURA E PROCESSOS ORGANIZACIONAIS 8.650,50 1.730,10 0,00 3.899,83 3.460,20 0,00 0,00 2.796,30 20.536,93 1.454,11 4.018,13 0,00 0,00 5.472,24 15.064,69 31/12/2022
292 390100 ANDRESSA RIBEIRO PUCCI OFICIAL DO MP UBERABA - COMARCA; UBERABA-PJ-14PJ 8.377,76 1.675,55 0,00 5.361,26 3.351,10 0,00 0,00 1.911,00 20.676,67 1.401,74 3.941,19 0,00 0,00 5.342,93 15.333,74 31/12/2022
293 462500 ANDREZA APARECIDA COSTA E SILVA ANALISTA DO MP CONSELHEIRO LAFAIETE - COMARCA; CONSELHEIRO LAFAIETE-PJ-02PJ 11.008,33 2.201,67 0,00 5.677,83 4.403,33 0,00 0,00 1.911,00 25.202,16 927,17 5.975,19 0,00 0,00 6.902,36 18.299,80 31/12/2022
294 677700 ANDREZA DE LOURDES FERREIRA DE PAIVA ASSESSOR PROMOTOR JUSTICA ABRE CAMPO - COMARCA; ABRE CAMPO-PJ-01PJ 0,00 0,00 7.857,77 7.857,77 2.619,26 0,00 547,43 7.882,91 26.765,14 1.656,76 3.214,31 0,00 0,00 4.871,07 21.894,07 31/12/2022
295 537800 ANDREZZA LUZIA DE OLIVEIRA ALVES ANALISTA DO MP PATOS DE MINAS - COMARCA; COORD REG PJ DEF EDU DIR CRI ADO AL PAR NOROE 11.008,33 1.100,83 0,00 4.203,66 4.036,39 0,00 0,00 1.911,00 22.260,21 1.730,68 4.975,17 0,00 0,00 6.705,85 15.554,36 31/12/2022
296 491600 ANE PATRICIA RIBEIRO DUARTE ANALISTA DO MP SETE LAGOAS - COMARCA; SETE LAGOAS-PJ-11PJ 11.008,33 2.201,67 0,00 6.745,04 4.403,33 0,00 0,00 1.911,00 26.269,37 1.906,81 5.584,67 0,00 0,00 7.491,48 18.777,89 31/12/2022
297 465800 ANELISE GAMA ASSESSOR ADMINISTRATIVO III BELO HORIZONTE - COMARCA; BH-18PJ VIOLENCIA DOMESTICA-SECRETARIA 0,00 0,00 9.684,23 6.039,30 3.228,08 0,00 0,00 1.911,00 20.862,61 1.656,76 4.386,30 0,00 0,00 6.043,06 14.819,55 31/12/2022
298 535200 ANELIZE FERNANDA ALVES VILARINHO OFICIAL DO MP CAPINÓPOLIS - COMARCA; CAPINOPOLIS-PJ-UNPJ 6.694,66 669,47 0,00 2.710,59 2.454,71 0,00 0,00 2.796,30 15.325,73 971,47 2.452,29 0,00 0,00 3.423,76 11.901,97 31/12/2022
299 197200 ANGELA COELHO SALDANHA OFICIAL DO MP PARÁ DE MINAS - COMARCA; PARA DE MINAS-PJ-03PJ 19.037,29 7.614,92 0,00 9.775,99 8.884,07 0,00 0,00 1.911,00 47.223,27 4.057,57 13.131,46 0,00 0,00 17.189,03 30.034,24 31/12/2022
300 307400 ANGELA CRISTINA GONCALVES MUNIZ ANALISTA DO MP UBERLÂNDIA - COMARCA; UBERLANDIA-PJ-SEC FAMILIA 20.574,59 8.229,84 0,00 10.548,80 19.202,96 0,00 0,00 1.911,00 60.467,19 4.401,92 16.754,93 0,00 0,00 21.156,85 39.310,34 31/12/2022
301 191800 ANGELA MARIA DE OLIVEIRA OFICIAL DO MP GUARANÉSIA - COMARCA; GUARANESIA-PJ-SECRETARIA 19.037,29 13.326,11 0,00 16.797,89 12.444,92 4.971,36 0,00 1.911,00 68.488,57 4.971,36 19.483,51 0,00 0,00 24.454,87 44.033,70 31/12/2022
302 497400 ANGELA MARIA HENRIQUES ANALISTA DO MP BELO HORIZONTE - COMARCA; COORD REG BACIAS RIO VELHAS E PARAOPEBA 11.008,33 2.201,67 0,00 4.698,19 4.403,33 0,00 0,00 1.911,00 24.222,52 1.906,81 5.688,95 0,00 0,00 7.595,76 16.626,76 31/12/2022
303 260700 ANGELICA CRISTINA AZEVEDO MOREIRA MOUCO OFICIAL DO MP UBÁ - COMARCA; UBA-PJ-05PJ 14.224,47 4.267,34 0,00 6.494,00 6.163,94 0,00 0,00 1.911,00 33.060,75 2.751,90 8.613,32 0,00 0,00 11.365,22 21.695,53 31/12/2022
304 708300 ANGELICA NUNES VIEIRA DA SILVA ASSESSOR PROMOTOR JUSTICA IBIRITÉ - COMARCA; IBIRITE-PJ-02PJ 0,00 0,00 7.857,77 7.857,77 2.619,26 0,00 0,00 1.911,00 20.245,80 1.656,76 3.214,31 0,00 0,00 4.871,07 15.374,73 31/12/2022
305 334600 ANGELICA PANISSA DE FREITAS GALLATI OFICIAL DO MP GUAXUPÉ - COMARCA; GUAXUPE-PJ-02PJ 11.008,33 3.302,50 0,00 5.072,46 4.770,28 0,00 0,00 2.796,30 26.949,87 2.082,95 6.194,17 0,00 0,00 8.277,12 18.672,75 31/12/2022
306 521100 ANGELICA SALES MOREIRA OFICIAL DO MP BELO HORIZONTE - COMARCA; BH-02PJ FAMILIA-SECRETARIA 8.377,76 1.675,55 0,00 3.624,91 3.351,10 0,00 0,00 1.911,00 18.940,32 1.401,74 3.941,19 0,00 0,00 5.342,93 13.597,39 31/12/2022
307 466500 ANGELLO MARQUES AGRELLI ANALISTA DO MP MAR DE ESPANHA - COMARCA; MAR DE ESPANHA-PJ-UNPJ 11.008,33 2.201,67 0,00 4.698,19 4.403,33 0,00 0,00 1.911,00 24.222,52 1.906,81 5.688,95 0,00 0,00 7.595,76 16.626,76 31/12/2022
308 363300 ANGELO VERDOLIN HENRIQUES ANALISTA DO MP SETE LAGOAS - COMARCA; SETE LAGOAS-PJ-04PJ 18.312,36 7.324,94 0,00 13.425,92 8.545,77 0,00 0,00 1.911,00 49.519,99 3.895,18 12.569,53 0,00 0,00 16.464,71 33.055,28 31/12/2022
309 250900 ANISIO APARECIDO SANTOS OFICIAL DO MP BETIM - COMARCA; BETIM - SECRETARIA DAS PJS CRIMINAIS 6.605,40 2.677,86 0,00 3.393,44 3.124,17 0,00 0,00 1.911,00 17.711,87 1.292,82 2.135,33 0,00 0,00 3.428,15 14.283,72 31/12/2022
310 698100 ANNA CAROLINA POLICARIO BERTOLIN ASSESSOR PROCURADOR JUSTICA BELO HORIZONTE - COMARCA; PROC. JUSTICA DIR. DIFUSOS E COLETIVOS-SEC 0,00 0,00 7.857,77 3.928,88 2.619,26 0,00 0,00 1.911,00 16.316,91 1.656,76 3.214,31 0,00 0,00 4.871,07 11.445,84 31/12/2022
311 253400 ANNA FLAVIA LEHMAN ANALISTA DO MP BELO HORIZONTE - COMARCA; SUPRIN DE PLANEJAMENTO E COORDENACAO 20.574,59 6.172,38 7.494,88 13.048,19 11.413,95 0,00 0,00 1.911,00 60.614,99 4.072,73 17.680,31 0,00 0,00 21.753,04 38.861,95 31/12/2022
312 688800 ANNA LUIZA MATTOS DUARTE ASSESSOR PROCURADOR JUSTICA BELO HORIZONTE - COMARCA; GABINETE DE PROCURADOR DE JUSTICA - SALA 311 0,00 0,00 7.857,77 4.874,93 2.619,26 0,00 0,00 1.911,00 17.262,96 1.656,76 3.214,31 0,00 0,00 4.871,07 12.391,89 31/12/2022
313 447600 ANNGELUCE ALCANTARA DE CAMPOS OFICIAL DO MP DIVINÓPOLIS - COMARCA; DIVINOPOLIS-PJ-SECRETARIA 8.932,15 2.679,65 0,00 4.601,41 3.870,60 0,00 0,00 1.911,00 21.994,81 1.651,10 4.804,08 0,00 0,00 6.455,18 15.539,63 31/12/2022
314 119600 ANSELMO BORGES PARREIRAS OFICIAL DO MP BONFIM - COMARCA; BONFIM-PJ-UNPJ 9.684,23 8.715,81 0,00 10.361,10 7.045,75 2.737,22 0,00 1.911,00 40.455,11 2.737,22 10.214,61 0,00 0,00 12.951,83 27.503,28 31/12/2022
315 630300 ANTONIA GOMES RAMALHO OFICIAL DO MP NOVO CRUZEIRO - COMARCA; NOVO CRUZEIRO-PJ-UNPJ 6.483,63 648,36 0,00 6.197,66 2.377,33 0,00 0,00 3.681,60 19.388,58 934,33 2.323,76 0,00 0,00 3.258,09 16.130,49 31/12/2022
316 401600 ANTONIO CARLOS GUEDES AROUCA ANALISTA DO MP BELO HORIZONTE - COMARCA; ASSESSORIA JURIDICO-ADMINISTRATIVA 14.687,60 2.937,52 0,00 6.477,21 5.875,04 0,00 0,00 1.911,00 31.888,37 2.613,23 8.133,45 0,00 0,00 10.746,68 21.141,69 31/12/2022
317 333900 ANTONIO GONCALVES DE SOUZA FILHO OFICIAL DO MP BELO HORIZONTE - COMARCA; DIRETORIA DE CONTABILIDADE 11.008,33 3.302,50 0,00 5.072,46 4.770,28 0,00 0,00 1.911,00 26.064,57 2.082,95 6.298,44 0,00 0,00 8.381,39 17.683,18 31/12/2022
318 176100 ANTONIO MARCELO CAMPOS CAMPANELLA OFICIAL DO MP BELO HORIZONTE - COMARCA; COORD DE GABINETE DO PGJ 19.037,29 9.518,65 0,00 10.459,51 9.518,65 0,00 0,00 1.911,00 50.445,10 4.362,16 14.185,49 0,00 0,00 18.547,65 31.897,45 31/12/2022
319 321001 ANTONIO OLINTO VIEIRA MACHADO ANALISTA DO MP BELO HORIZONTE - COMARCA; CENTRAL DE APOIO TECN-SETOR DE MEIO AMBIENTE 16.695,70 3.339,14 0,00 10.333,16 7.677,88 2.998,79 0,00 1.911,00 42.955,67 2.998,79 11.183,31 0,00 0,00 14.182,10 28.773,57 31/12/2022
320 356200 ANTONIO PAULA DA SILVA OFICIAL DO MP JUIZ DE FORA - COMARCA; JUIZ DE FORA-PJ-20PJ 10.661,25 4.264,50 0,00 6.033,07 4.975,25 0,00 0,00 1.911,00 27.845,07 2.181,33 6.638,91 0,00 0,00 8.820,24 19.024,83 31/12/2022
321 119900 ANTONIO RODRIGUES DE PINHO OFICIAL DO MP GUANHÃES - COMARCA; GUANHAES-PJ-01PJ 18.312,36 12.818,65 0,00 26.356,83 10.377,00 0,00 0,00 1.911,00 69.775,84 4.774,18 15.402,66 0,00 0,00 20.176,84 49.599,00 31/12/2022
322 373300 ANTONIO SERGIO ANANIAS OFICIAL DO MP SÃO JOÃO NEPOMUCENO - COMARCA; SAO JOAO NEPOMUCENO-PJ-01PJ 9.684,23 1.936,85 0,00 4.883,37 3.873,69 0,00 0,00 1.911,00 22.289,14 927,17 5.103,92 0,00 0,00 6.031,09 16.258,05 31/12/2022
323 608100 ANTONIO SIDINEY VIEIRA LEMOS ANALISTA DO MP PIRAPORA - COMARCA; PIRAPORA-PJ-01PJ 10.325,15 4.130,06 0,00 5.048,63 4.818,40 0,00 0,00 2.796,30 27.118,54 2.106,05 6.274,10 0,00 0,00 8.380,15 18.738,39 31/12/2022
324 374700 ANTONIO SILVA NETO OFICIAL DO MP BELO HORIZONTE - COMARCA; BH-12PJ JUIZO CRIMINAL-SECRETARIA 9.999,62 1.999,92 0,00 4.286,63 3.999,85 0,00 0,00 2.796,30 23.082,32 1.713,14 5.018,76 0,00 0,00 6.731,90 16.350,42 31/12/2022
325 636700 ANTONIUS VITORIANO FERNANDES OFICIAL DO MP BELO HORIZONTE - COMARCA; ASSESSORIA JURIDICA DO PROCON-MG 5.889,39 588,94 0,00 5.645,54 2.159,44 0,00 0,00 1.911,00 16.194,31 832,79 1.960,17 0,00 0,00 2.792,96 13.401,35 31/12/2022
326 413200 ANY PEREIRA SILVA ANALISTA DO MP TRÊS PONTAS - COMARCA; TRES PONTAS-PJ-01PJ 14.224,47 2.844,89 0,00 6.010,37 5.689,79 0,00 0,00 1.911,00 30.680,52 2.524,31 7.825,75 0,00 0,00 10.350,06 20.330,46 31/12/2022
327 151401 APARECIDA DE FATIMA MENDES DE ALMEIDA ASSESSOR ADMINISTRATIVO II JUIZ DE FORA - COMARCA; JUIZ DE FORA-PJ-SECRETARIA 0,00 0,00 6.694,66 3.347,33 2.231,55 0,00 0,00 1.911,00 14.184,54 1.601,81 2.483,10 0,00 0,00 4.084,91 10.099,63 31/12/2022
328 329300 APARECIDA MARIA MELO DE ASSIS OFICIAL DO MP BELO HORIZONTE - COMARCA; BH-18PJ DIREITOS HUMANOS-SECRETARIA 11.008,33 3.302,50 0,00 5.072,46 9.540,56 0,00 0,00 1.911,00 30.834,85 2.082,95 7.610,27 0,00 0,00 9.693,22 21.141,63 31/12/2022
329 653000 APARECIDA ROSA DE LIMA ASSESSOR ADMINISTRATIVO III BELO HORIZONTE - COMARCA; SECRETARIA PROCESSOS DISCIPES ADMINISTRATIVOS 0,00 0,00 9.684,23 4.842,11 6.456,16 0,00 0,00 1.911,00 22.893,50 1.656,76 5.274,02 0,00 0,00 6.930,78 15.962,72 31/12/2022
330 354500 APARECIDA VIEIRA DE CARVALHO OFICIAL DO MP BELO HORIZONTE - COMARCA; DIVISÃO DE EDUCAÇÃO PARA O CONSUMO 9.378,86 2.813,66 0,00 4.825,67 4.064,17 0,00 0,00 1.911,00 22.993,36 1.744,02 5.125,61 0,00 0,00 6.869,63 16.123,73 31/12/2022
331 551000 ARACELES BICALHO FELIX ANALISTA DO MP MANHUAÇU - COMARCA; MANHUACU-PJ-SECRETARIA 11.008,33 1.100,83 0,00 4.699,64 4.036,39 0,00 0,00 3.681,60 24.526,79 1.730,68 5.079,45 0,00 0,00 6.810,13 17.716,66 31/12/2022
332 286200 ARACELI MEDRADO DOS SANTOS LIMA OFICIAL DO MP PARACATU - COMARCA; PARACATU-PJ-03PJ 6.694,66 2.008,40 0,00 3.165,83 2.901,02 0,00 0,00 1.911,00 16.680,91 1.185,70 3.193,60 0,00 0,00 4.379,30 12.301,61 31/12/2022
333 112200 ARAQUEM AUGUSTO DE MATOS AGENTE DO MP BELO HORIZONTE - COMARCA; BH-23PJ CIVEL-SEC EXP CIVEIS 11.366,79 10.230,12 0,00 12.097,27 8.281,88 3.248,72 0,00 1.911,00 47.135,78 3.248,72 12.208,55 0,00 0,00 15.457,27 31.678,51 31/12/2022
334 280600 ARDUINO FRATTEZI ANALISTA DO MP BELO HORIZONTE - COMARCA; CENTRAL DE APOIO TECNICO-SETOR CONTABIL 20.574,59 6.172,38 0,00 9.810,08 8.915,66 0,00 0,00 1.911,00 47.383,71 4.072,73 13.183,92 0,00 0,00 17.256,65 30.127,06 31/12/2022
335 520201 ARIANE DE FATIMA CARVALHO ALMEIDA RODRIGUES ANALISTA DO MP VESPASIANO - COMARCA; VESPASIANO-PJ-SECRETARIA 10.325,15 1.032,52 0,00 5.810,02 3.785,89 0,00 0,00 3.238,95 24.192,53 1.610,44 4.350,56 0,00 0,00 5.961,00 18.231,53 31/12/2022
336 537600 ARIELA FREIRE MONTIJO ANALISTA DO MP ARCOS - COMARCA; ARCOS-PJ-01PJ 11.008,33 1.100,83 0,00 4.203,66 4.036,39 0,00 0,00 1.911,00 22.260,21 1.730,68 4.870,90 0,00 0,00 6.601,58 15.658,63 31/12/2022
337 182000 ARILSON ALEXANDRE MARTINS MAGALHAES OFICIAL DO MP JOÃO MONLEVADE - COMARCA; JOAO MONLEVADE-PJ-01PJ 16.695,70 8.347,85 0,00 8.721,59 8.347,85 0,00 0,00 5.009,55 47.122,54 3.800,18 11.719,42 0,00 0,00 15.519,60 31.602,94 31/12/2022
338 511000 ARISLANE CAROLINA DA SILVA ANALISTA DO MP MONTE CARMELO - COMARCA; MONTE CARMELO-PJ-02PJ 11.008,33 2.201,67 0,00 4.698,19 4.403,33 0,00 0,00 3.681,60 25.993,12 1.906,81 5.688,95 0,00 0,00 7.595,76 18.397,36 31/12/2022
339 170000 ARLEY BRITES DA SILVA ASSESSOR ADMINISTRATIVO II BELO HORIZONTE - COMARCA; BH-14PJ DEFESA CONSUMIDOR-SECRETARIA 0,00 2.677,86 6.694,66 4.686,26 3.124,17 0,00 0,00 1.911,00 19.093,95 1.656,76 3.494,93 0,00 0,00 5.151,69 13.942,26 31/12/2022
340 120400 ARLINDO CASSIO DA CRUZ OFICIAL DO MP SÃO GONÇALO DO SAPUCAÍ - COMARCA; SAO GONCALO DO SAPUCAI-PJ-01PJ 20.574,59 16.459,68 0,00 17.731,11 13.643,13 5.467,17 0,00 1.911,00 75.786,68 5.467,17 21.452,92 1.572,05 0,00 28.492,14 47.294,54 31/12/2022
341 243700 ARLINDO MARCIO LACERDA OFICIAL DO MP CONTAGEM - COMARCA; CONTAGEM-PJ-SECRETARIA 15.659,55 6.263,82 0,00 9.455,29 7.834,46 0,00 1.580,00 1.911,00 42.704,12 3.300,95 11.527,09 0,00 0,00 14.828,04 27.876,08 31/12/2022
342 392100 ARNALDO DE ANDRADE OFICIAL DO MP DIVINÓPOLIS - COMARCA; DIVINOPOLIS-PJ-02PJ 11.008,33 2.201,67 0,00 6.093,42 4.930,00 0,00 1.580,00 2.589,73 28.403,15 1.906,81 6.598,51 0,00 0,00 8.505,32 19.897,83 31/12/2022
343 642400 ARTANE INARDE DE SIQUEIRA DAMASCENO ANALISTA DO MP BELO HORIZONTE - COMARCA; SECRETARIA DE ASSUNTOS INTERNACIONAIS 8.932,15 893,22 0,00 3.985,51 3.275,12 0,00 0,00 1.911,00 18.997,00 927,17 3.943,00 0,00 0,00 4.870,17 14.126,83 31/12/2022
344 712100 ARTUR FONTE BOA TEOFILO ASSESSOR ADMINISTRATIVO I BELO HORIZONTE - COMARCA; DIRET DE ESTAGIOS E CONVENIOS ACADEMICOS 0,00 0,00 4.345,58 4.345,58 1.448,53 0,00 0,00 1.911,00 12.050,69 1.075,73 1.158,62 0,00 0,00 2.234,35 9.816,34 31/12/2022
345 302100 AUGUSTO ROUSSEAU DE CASTRO ANALISTA DO MP CATAGUASES - COMARCA; CATAGUASES-PJ-02PJ 20.574,59 6.172,38 0,00 9.300,75 8.915,66 0,00 0,00 1.911,00 46.874,38 4.072,73 13.183,92 0,00 0,00 17.256,65 29.617,73 31/12/2022
346 540200 AUREA AVELAR BITTENCOURT OFICIAL DO MP BELO HORIZONTE - COMARCA; GRUPO ESP PROM JUST DEF PROB ADM PAT PUB 6.694,66 669,47 0,00 2.754,89 2.454,71 0,00 0,00 1.911,00 14.484,73 927,17 2.269,62 0,00 0,00 3.196,79 11.287,94 31/12/2022
347 633501 AUREA GONTIJO BIRCHAL ASSESSOR DE GABINETE I BELO HORIZONTE - COMARCA; PROCURADOR-GERAL DE JUSTIÇA 0,00 0,00 16.169,47 8.084,73 5.389,82 0,00 0,00 1.911,00 31.555,02 1.656,76 8.547,66 0,00 0,00 10.204,42 21.350,60 31/12/2022
348 183200 AURELIANO MAGELA DE REZENDE OFICIAL DO MP BELO HORIZONTE - COMARCA; COORD DE GABINETE DO PGJ 17.614,89 7.045,96 5.493,71 11.338,33 10.051,52 0,00 0,00 1.911,00 53.455,41 3.738,95 15.554,03 0,00 0,00 19.292,98 34.162,43 31/12/2022
349 629400 AYESKA DA COSTA VAL MOURA DABIEN OFICIAL DO MP BELO HORIZONTE - COMARCA; BH-09PJ AUDITORIA MILITAR-SECRETARIA 5.889,39 588,94 0,00 2.406,37 2.159,44 0,00 0,00 1.911,00 12.955,14 832,79 1.960,17 0,00 0,00 2.792,96 10.162,18 31/12/2022
350 707400 AYMEE JOHANSSENN TYNEE CORREIA ALVES ASSESSOR PROMOTOR JUSTICA NOVA LIMA - COMARCA; NOVA LIMA-PJ-01PJ 0,00 0,00 7.857,77 3.928,88 2.619,26 0,00 0,00 1.911,00 16.316,91 1.656,76 3.214,31 0,00 0,00 4.871,07 11.445,84 31/12/2022
351 701600 BARBARA CHAVES OLIVEIRA ASSESSOR PROCURADOR JUSTICA BELO HORIZONTE - COMARCA; PROC. JUSTICA DIR. DIFUSOS E COLETIVOS-SEC 0,00 0,00 7.857,77 3.928,88 2.619,26 0,00 0,00 1.911,00 16.316,91 1.656,76 3.214,31 0,00 0,00 4.871,07 11.445,84 31/12/2022
352 691900 BARBARA COUTINHO REIS ASSESSOR PROCURADOR JUSTICA BELO HORIZONTE - COMARCA; GABINETE DE PROCURADOR DE JUSTIÇA - SALA 910 0,00 0,00 7.857,77 3.928,88 2.619,26 0,00 0,00 1.911,00 16.316,91 1.656,76 3.214,31 0,00 0,00 4.871,07 11.445,84 31/12/2022
353 692200 BARBARA CRISTINA MENDES BANDEIRA DE MELO DUTRA ASSESSOR PROCURADOR JUSTICA BELO HORIZONTE - COMARCA; GABINETE DE PROCURADOR DE JUSTIÇA - SALA 1009 0,00 0,00 7.857,77 3.928,88 2.619,26 0,00 0,00 1.911,00 16.316,91 1.656,76 3.214,31 0,00 0,00 4.871,07 11.445,84 31/12/2022
354 723400 BARBARA CRISTINA TAVARES CARNEIRO ASSESSOR PROCURADOR JUSTICA BELO HORIZONTE - COMARCA; GABINETE DE PROCURADOR DE JUSTIÇA - SALA 502 0,00 0,00 7.857,77 3.928,89 0,00 0,00 0,00 1.911,00 13.697,66 1.489,62 1.999,76 0,00 0,00 3.489,38 10.208,28 31/12/2022
355 727200 BARBARA FERNANDES AMARAL ASSESSOR PROMOTOR JUSTICA GOVERNADOR VALADARES - COMARCA; GOVERNADOR VALADARES-PJ-SECRETARIA 0,00 0,00 7.857,77 3.274,07 0,00 0,00 0,00 1.911,00 13.042,84 1.130,27 1.521,33 0,00 0,00 2.651,60 10.391,24 31/12/2022
356 652800 BARBARA JULIANNE MOREIRA CASTRO ASSESSOR PROCURADOR JUSTICA BELO HORIZONTE - COMARCA; ASSESS TECNICO-JUR JUNTO AS PROC. DE JUST 0,00 0,00 7.857,77 3.928,88 2.619,26 0,00 0,00 1.911,00 16.316,91 1.656,76 3.214,31 0,00 0,00 4.871,07 11.445,84 31/12/2022
357 707700 BARBARA LOUISE PUFF DE OLIVEIRA ASSESSOR PROMOTOR JUSTICA RIBEIRÃO DAS NEVES - COMARCA; RIBEIRAO DAS NEVES-PJ-02PJ 0,00 0,00 7.857,77 3.928,88 2.619,26 0,00 0,00 1.911,00 16.316,91 1.656,76 3.214,31 0,00 0,00 4.871,07 11.445,84 31/12/2022
358 663600 BARBARA REGINA PEREIRA DE PINHO MAGALHAES ASSESSOR PROMOTOR JUSTICA BELO HORIZONTE - COMARCA; CAO-DH CONT EXT ATIV POLIC E AP COMUNIT 0,00 0,00 7.857,77 4.874,93 2.619,26 0,00 0,00 1.911,00 17.262,96 1.656,76 3.214,31 0,00 0,00 4.871,07 12.391,89 31/12/2022
359 692400 BARBARA SOUZA OLIVEIRA ASSESSOR PROMOTOR JUSTICA DIVINO - COMARCA; DIVINO-PJ-UNPJ 0,00 0,00 7.857,77 3.928,88 2.619,26 0,00 0,00 1.911,00 16.316,91 1.656,76 3.214,31 0,00 0,00 4.871,07 11.445,84 31/12/2022
360 546500 BARBARA ZACARONI GOULART OFICIAL DO MP BETIM - COMARCA; BETIM-PJ-08PJ 6.694,66 669,47 0,00 3.640,64 2.454,71 0,00 0,00 1.911,00 15.370,48 971,47 2.452,29 0,00 0,00 3.423,76 11.946,72 31/12/2022
361 316500 BEATRIZ ABILVIA DA SILVA ANALISTA DO MP GOVERNADOR VALADARES - COMARCA; GOVERNADOR VALADARES-PJ-07PJ 19.791,01 5.937,30 0,00 13.110,51 9.879,35 3.909,74 0,00 1.911,00 54.538,91 3.909,74 14.053,50 0,00 0,00 17.963,24 36.575,67 31/12/2022
362 311800 BEATRIZ APARECIDA SOARES GANEM OFICIAL DO MP ITAMBACURI - COMARCA; ITAMBACURI-PJ-02PJ 12.118,97 4.847,59 0,00 6.242,86 5.655,52 0,00 0,00 1.911,00 30.775,94 2.507,86 7.456,01 0,00 0,00 9.963,87 20.812,07 31/12/2022
363 266800 BEATRIZ AUGUSTA VILACA GOMES DE HUBER OFICIAL DO MP BELO HORIZONTE - COMARCA; BH-05PJ-JUÍZO SUCESSÕES-SEC 11.008,33 3.302,50 0,00 12.227,88 4.770,28 0,00 0,00 1.911,00 33.219,99 2.082,95 6.298,44 0,00 0,00 8.381,39 24.838,60 31/12/2022
364 235200 BEATRIZ BOTELHO BATISTA OFICIAL DO MP MATEUS LEME - COMARCA; MATEUS LEME-PJ-02PJ 11.008,33 4.403,33 0,00 5.446,75 5.137,22 0,00 0,00 1.911,00 27.906,63 2.259,08 6.907,94 0,00 0,00 9.167,02 18.739,61 31/12/2022
365 182300 BEATRIZ PAULA SOUSA RAMOS OFICIAL DO MP MARIANA - COMARCA; MARIANA-PJ-01PJ 16.695,70 8.347,85 0,00 21.243,37 16.695,70 0,00 0,00 1.911,00 64.893,62 3.800,18 14.536,45 0,00 0,00 18.336,63 46.556,99 31/12/2022
366 507000 BELCHIOR FRANKLIN AMARAL LEITE ANALISTA DO MP BELO HORIZONTE - COMARCA; CAO ORGAOS MPMG DESIG FUNC ELEITORAIS-SEC 11.736,91 2.347,38 0,00 7.161,08 4.694,76 0,00 0,00 2.707,77 28.647,90 2.046,70 5.860,19 0,00 0,00 7.906,89 20.741,01 31/12/2022
367 345100 BENITO ELIAS RODRIGUES ANALISTA DO MP BARBACENA - COMARCA; BARBACENA - SECRETARIA DAS PJS CRIMINAIS 19.037,29 5.711,19 0,00 9.092,47 8.249,49 0,00 0,00 1.911,00 44.001,44 3.752,97 11.973,15 0,00 0,00 15.726,12 28.275,32 31/12/2022
368 207300 BENITO VIEIRA DOS SANTOS ANALISTA DO MP BELO HORIZONTE - COMARCA; PROC JUST ESP ACOES COMP ORIG CRIMINAL-ASSESS 20.574,59 8.229,84 0,00 14.402,21 11.068,78 4.401,92 0,00 1.911,00 60.588,34 4.401,92 14.093,46 0,00 0,00 18.495,38 42.092,96 31/12/2022
369 480200 BERNADETE NUNES DOS SANTOS ANALISTA DO MP GUANHÃES - COMARCA; GUANHAES-PJ-02PJ 11.008,33 3.302,50 0,00 5.072,46 4.770,28 0,00 0,00 1.911,00 26.064,57 2.082,95 6.298,44 0,00 0,00 8.381,39 17.683,18 31/12/2022
370 378400 BETANIA FARNESI DE SOUZA E SILVA OFICIAL DO MP CURVELO - COMARCA; CURVELO-PJ-01PJ 9.999,62 3.999,85 0,00 11.966,34 4.666,49 0,00 0,00 1.911,00 32.543,30 2.033,13 6.021,78 0,00 0,00 8.054,91 24.488,39 31/12/2022
371 387400 BETANIA MENDONCA DE ASSIS CARVALHO ANALISTA DO MP JUIZ DE FORA - COMARCA; JUIZ DE FORA-PJ-03PJ 16.169,47 3.233,89 0,00 6.803,93 6.467,79 0,00 0,00 2.796,30 35.471,38 2.897,75 9.013,74 0,00 0,00 11.911,49 23.559,89 31/12/2022
372 714400 BIANCA DE CASTRO RAMOS ASSESSOR PROMOTOR JUSTICA BETIM - COMARCA; BETIM-PJ-13PJ 0,00 0,00 7.857,77 7.857,77 2.619,26 0,00 0,00 1.911,00 20.245,80 1.656,76 3.214,31 0,00 0,00 4.871,07 15.374,73 31/12/2022
373 712700 BIANCA DE JESUS SOUZA ASSESSOR ADMINISTRATIVO I GOVERNADOR VALADARES - COMARCA; COOR REG APOIO COM INC MOB VALE DO RIO DOCE 0,00 0,00 4.345,58 2.172,79 1.448,53 0,00 0,00 1.911,00 9.877,90 1.075,73 1.158,62 0,00 0,00 2.234,35 7.643,55 31/12/2022
374 450300 BIANCA OLIVEIRA DE ALBUQUERQUE ANALISTA DO MP BELO HORIZONTE - COMARCA; BH-10PJ EXECUÇÃO PENAL-SECRETARIA 11.008,33 2.201,67 0,00 4.698,19 4.403,33 0,00 0,00 2.796,30 25.107,82 1.906,81 5.688,95 0,00 0,00 7.595,76 17.512,06 31/12/2022
375 535400 BIANCA SALOTO ROSSI ANALISTA DO MP SANTOS DUMONT - COMARCA; SANTOS DUMONT-PJ-01PJ 11.008,33 1.100,83 0,00 4.203,66 4.036,39 0,00 0,00 2.796,30 23.145,51 1.730,68 5.079,45 0,00 0,00 6.810,13 16.335,38 31/12/2022
376 120800 BRAS MARQUES DE SOUZA ANALISTA DO MP BELO HORIZONTE - COMARCA; SUPERINTENDENCIA DE GESTAO ADMINISTRATIVA 25.971,96 23.374,77 0,00 17.731,11 13.643,13 5.467,17 0,00 1.911,00 88.099,14 5.467,17 22.581,56 13.884,51 0,00 41.933,24 46.165,90 31/12/2022
377 724400 BRENDA PIMENTEL DE SOUZA VIANA ASSESSOR PROMOTOR JUSTICA MANHUMIRIM - COMARCA; MANHUMIRIM-PJ-01PJ 0,00 0,00 7.857,77 3.928,88 0,00 0,00 0,00 1.911,00 13.697,65 1.397,95 1.844,90 0,00 0,00 3.242,85 10.454,80 31/12/2022
378 710500 BRENNO VINICIUS MAGESTE ROSA ASSESSOR PROMOTOR JUSTICA MANHUAÇU - COMARCA; MANHUACU-PJ-02PJ 0,00 0,00 7.857,77 3.928,88 2.619,26 0,00 0,00 1.911,00 16.316,91 1.656,76 3.214,31 0,00 0,00 4.871,07 11.445,84 31/12/2022
379 460900 BRENO CRISTIANO DE SOUZA REZENDE ANALISTA DO MP ITAÚNA - COMARCA; ITAUNA-PJ-02PJ 11.008,33 2.201,67 0,00 4.698,19 4.403,33 0,00 0,00 1.911,00 24.222,52 1.906,81 5.688,95 0,00 0,00 7.595,76 16.626,76 31/12/2022
380 239000 BRENO VENANCIO ROMANINI OFICIAL DO MP BELO HORIZONTE - COMARCA; BH-20PJ ORD ECON TRIBUTARIA-SECRETARIA 11.008,33 3.302,50 0,00 12.227,88 4.770,28 0,00 0,00 1.911,00 33.219,99 2.082,95 6.298,44 0,00 0,00 8.381,39 24.838,60 31/12/2022
381 722700 BRUNA DE SA FERREIRA LIMA ASSESSOR PROMOTOR JUSTICA MANGA - COMARCA; MANGA-PJ-01PJ 0,00 0,00 7.857,77 3.928,89 0,00 0,00 0,00 1.911,00 13.697,66 1.489,62 1.999,76 0,00 0,00 3.489,38 10.208,28 31/12/2022
382 722100 BRUNA HENRIQUE DE SOUZA ASSESSOR PROMOTOR JUSTICA PIRAPETINGA - COMARCA; PIRAPETINGA-PJ-UNPJ 0,00 0,00 7.857,77 3.928,88 0,00 0,00 0,00 1.911,00 13.697,65 1.581,29 2.154,63 0,00 0,00 3.735,92 9.961,73 31/12/2022
383 642300 BRUNA IZABELITA DE FATIMA OLIVEIRA COSTA OFICIAL DO MP BELO HORIZONTE - COMARCA; BH-02PJ FAMILIA-SECRETARIA 6.483,63 648,36 0,00 6.197,66 4.754,66 0,00 0,00 1.911,00 19.995,31 934,33 2.977,53 0,00 0,00 3.911,86 16.083,45 31/12/2022
384 513600 BRUNA KARLA MARTINS CARVALHO ANALISTA DO MP GOVERNADOR VALADARES - COMARCA; GOVERNADOR VALADARES-PJ-14PJ 11.008,33 2.201,67 0,00 5.677,83 4.403,33 0,00 0,00 1.911,00 25.202,16 927,17 5.975,19 0,00 0,00 6.902,36 18.299,80 31/12/2022
385 415100 BRUNA MARIA SOARES OLIVEIRA COSTA RAMOS ANALISTA DO MP UBÁ - COMARCA; COORD REG BACIA DO RIO PARAIBA DO SUL 16.169,47 3.233,89 0,00 11.102,12 6.467,79 0,00 0,00 1.911,00 38.884,27 463,58 9.693,78 0,00 0,00 10.157,36 28.726,91 31/12/2022
386 692900 BRUNA MENDES COELHO ASSESSOR PROCURADOR JUSTICA BELO HORIZONTE - COMARCA; GABINETE DE PROCURADOR DE JUSTIÇA - SALA 801 0,00 0,00 7.857,77 4.874,93 2.619,26 0,00 0,00 1.911,00 17.262,96 1.656,76 3.214,31 0,00 0,00 4.871,07 12.391,89 31/12/2022
387 470000 BRUNA MORAES ANALISTA DO MP TOMBOS - COMARCA; TOMBOS-PJ-UNPJ 14.224,47 2.844,89 0,00 6.279,44 5.689,79 0,00 0,00 1.911,00 30.949,59 2.524,31 7.512,93 0,00 0,00 10.037,24 20.912,35 31/12/2022
388 614700 BRUNA NATTANY DE LIMA OFICIAL DO MP MANTENA - COMARCA; MANTENA-PJ-01PJ 6.694,66 669,47 0,00 2.826,66 2.454,71 0,00 0,00 2.796,30 15.441,80 971,47 2.452,29 0,00 0,00 3.423,76 12.018,04 31/12/2022
389 729800 BRUNA PAULA AMARAL CEOLIN ASSESSOR PROMOTOR JUSTICA COMARCA - JUATUBA; JUATUBA-PJ-UNPJ 0,00 0,00 7.857,77 1.964,44 0,00 0,00 0,00 1.911,00 11.733,21 987,00 1.430,30 0,00 0,00 2.417,30 9.315,91 31/12/2022
390 631800 BRUNA RAPOSO JORGE OFICIAL DO MP JUIZ DE FORA - COMARCA; JUIZ DE FORA-PJ-06PJ 6.483,63 648,36 0,00 2.631,66 2.377,33 0,00 0,00 1.911,00 14.051,98 934,33 2.323,76 0,00 0,00 3.258,09 10.793,89 31/12/2022
391 707800 BRUNA ROMIE WERDINE ASSESSOR PROMOTOR JUSTICA IBIRITÉ - COMARCA; IBIRITE-PJ-06PJ 0,00 0,00 7.857,77 3.928,88 2.619,26 0,00 0,00 1.911,00 16.316,91 1.656,76 3.214,31 0,00 0,00 4.871,07 11.445,84 31/12/2022
392 697400 BRUNA SILVA SANTOS ASSESSOR PROMOTOR JUSTICA TIMÓTEO - COMARCA; TIMOTEO-PJ-04PJ 0,00 0,00 7.857,77 3.928,88 2.619,26 0,00 0,00 1.911,00 16.316,91 1.656,76 3.214,31 0,00 0,00 4.871,07 11.445,84 31/12/2022
393 699300 BRUNA URSINE TIMO ASSESSOR PROCURADOR JUSTICA BELO HORIZONTE - COMARCA; PROC JUST ESP ACOES COMP ORIG CRIMINAL-ASSESS 0,00 0,00 7.857,77 3.928,88 2.619,26 0,00 288,12 5.054,11 19.748,14 1.656,76 3.214,31 0,00 0,00 4.871,07 14.877,07 31/12/2022
394 463800 BRUNO ALVES TEIXEIRA ANALISTA DO MP UBERLÂNDIA - COMARCA; UBERLANDIA-PJ-04PJ 11.008,33 2.201,67 0,00 4.698,19 4.403,33 0,00 0,00 1.911,00 24.222,52 1.906,81 5.688,95 0,00 0,00 7.595,76 16.626,76 31/12/2022
395 538500 BRUNO AUGUSTO DA SILVA OFICIAL DO MP SANTA LUZIA - COMARCA; SANTA LUZIA-PJ-03PJ 6.694,66 669,47 0,00 6.392,66 2.454,71 0,00 0,00 1.911,00 18.122,50 971,47 2.452,29 0,00 0,00 3.423,76 14.698,74 31/12/2022
396 318200 BRUNO BARROS DE SOUZA OFICIAL DO MP UBÁ - COMARCA; UBA-PJ-04PJ 11.008,33 3.302,50 0,00 6.228,24 4.770,28 0,00 0,00 1.911,00 27.220,35 927,17 5.719,35 0,00 0,00 6.646,52 20.573,83 31/12/2022
397 427400 BRUNO CESAR RIBEIRO DE PAIVA ANALISTA DO MP BELO HORIZONTE - COMARCA; DIRETORIA DO COLEGIO E DA CAMARA DE PJ 16.169,47 3.233,89 0,00 7.109,88 6.467,79 0,00 0,00 1.911,00 34.892,03 2.897,75 9.118,00 0,00 0,00 12.015,75 22.876,28 31/12/2022
398 380900 BRUNO CIRILO ANTUNES OFICIAL DO MP VARGINHA - COMARCA; VARGINHA-PJ-05PJ 10.325,15 2.065,03 0,00 4.419,45 4.130,06 0,00 0,00 1.911,00 22.850,69 1.775,64 5.235,04 0,00 0,00 7.010,68 15.840,01 31/12/2022
399 329000 BRUNO DE MELO REIS ANALISTA DO MP PATROCÍNIO - COMARCA; PATROCINIO-PJ-02PJ 19.037,29 7.614,92 0,00 10.220,40 8.884,07 0,00 0,00 3.681,60 49.438,28 4.057,57 12.922,90 0,00 0,00 16.980,47 32.457,81 31/12/2022
400 697800 BRUNO GAZZOLA BEZERRA FALCAO ASSESSOR PROCURADOR JUSTICA BELO HORIZONTE - COMARCA; PROCURADOR-GERAL ADJUNTO JURIDICO- GABINETE 0,00 0,00 7.857,77 3.928,88 2.619,26 0,00 0,00 1.911,00 16.316,91 1.656,76 3.214,31 0,00 0,00 4.871,07 11.445,84 31/12/2022
401 378300 BRUNO HERDY LOPES DE OLIVEIRA ANALISTA DO MP GOVERNADOR VALADARES - COMARCA; GOVERNADOR VALADARES-PJ-03PJ 16.169,47 3.233,89 0,00 6.803,93 6.467,79 0,00 0,00 1.911,00 34.586,08 2.897,75 9.118,00 0,00 0,00 12.015,75 22.570,33 31/12/2022
402 529700 BRUNO JOSE BUENO DIAS OFICIAL DO MP SÃO SEBASTIÃO DO PARAÍSO - COMARCA; SAO SEBASTIAO DO PARAISO-PJ-02PJ 6.694,66 669,47 0,00 2.710,59 2.454,71 0,00 0,00 1.911,00 14.440,43 971,47 2.348,01 0,00 0,00 3.319,48 11.120,95 31/12/2022
403 691600 BRUNO JOSE RIBEIRO ASSESSOR PROMOTOR JUSTICA CLÁUDIO - COMARCA; CLAUDIO-PJ-UNPJ 0,00 0,00 7.857,77 3.928,88 2.619,26 0,00 0,00 1.911,00 16.316,91 1.656,76 3.214,31 0,00 0,00 4.871,07 11.445,84 31/12/2022
404 350100 BRUNO LAUD SERRANO DOS REIS OFICIAL DO MP UBÁ - COMARCA; UBA-PJ-02PJ 11.008,33 3.302,50 0,00 5.000,27 4.770,28 0,00 0,00 1.911,00 25.992,38 2.082,95 6.194,17 0,00 0,00 8.277,12 17.715,26 31/12/2022
405 728900 BRUNO LIMA PITANGA ASSESSOR PROMOTOR JUSTICA BELO HORIZONTE - COMARCA; NUCLEO DA EXECUCAO PENAL 0,00 0,00 7.857,77 2.619,26 0,00 0,00 0,00 2.796,30 13.273,33 1.051,69 1.467,20 0,00 0,00 2.518,89 10.754,44 31/12/2022
406 373800 BRUNO MARTINO DE ALBUQUERQUE ANALISTA DO MP PONTE NOVA - COMARCA; PONTE NOVA-PJ-03PJ 16.169,47 3.233,89 0,00 6.803,93 6.467,79 0,00 0,00 1.911,00 34.586,08 2.897,75 8.909,46 0,00 0,00 11.807,21 22.778,87 31/12/2022
407 470400 BRUNO NOVAIS CABRAL ANALISTA DO MP MUTUM - COMARCA; MUTUM-PJ-UNPJ 11.008,33 2.201,67 0,00 4.698,19 4.403,33 0,00 0,00 1.911,00 24.222,52 1.906,81 5.355,65 0,00 0,00 7.262,46 16.960,06 31/12/2022
408 648600 BRUNO RIBEIRO E MELO ASSESSOR ADMINISTRATIVO IV BELO HORIZONTE - COMARCA; DIR RELACOES INSTITUCIONAIS 0,00 0,00 12.920,95 6.460,47 4.306,98 0,00 0,00 1.911,00 25.599,40 1.656,76 6.463,19 0,00 0,00 8.119,95 17.479,45 31/12/2022
409 369200 BRUNO ROBERTO DIAS DE OLIVEIRA OFICIAL DO MP BELO HORIZONTE - COMARCA; BH-22PJ PES COM DEF E IDOSOS-SECRETARIA 11.008,33 3.302,50 0,00 6.228,24 4.770,28 0,00 0,00 1.911,00 27.220,35 927,17 6.636,15 0,00 0,00 7.563,32 19.657,03 31/12/2022
410 547700 BRUNO ROBERTO SOUZA GONCALVES ANALISTA DO MP PARACATU - COMARCA; PARACATU-PJ-03PJ 11.008,33 1.100,83 0,00 4.699,64 4.036,39 0,00 0,00 2.796,30 23.641,49 1.730,68 5.079,45 0,00 0,00 6.810,13 16.831,36 31/12/2022
411 546100 BRUNO SA VIEIRA ANALISTA DO MP BARBACENA - COMARCA; BARBACENA-PJ-SECRETARIA 11.008,33 1.100,83 0,00 4.203,66 4.036,39 0,00 0,00 2.796,30 23.145,51 1.730,68 4.870,90 0,00 0,00 6.601,58 16.543,93 31/12/2022
412 438200 BRUNO SALES PEREIRA ANALISTA DO MP BELO HORIZONTE - COMARCA; CENTRAL DE APOIO TECNICO-SETOR CONTABIL 13.776,02 2.755,20 0,00 5.827,40 5.510,41 0,00 0,00 1.911,00 29.780,03 2.438,21 7.423,52 0,00 0,00 9.861,73 19.918,30 31/12/2022
413 537400 BRUNO SANT'ANA CESAR ANALISTA DO MP BELO HORIZONTE - COMARCA; BH-12PJ JUIZO CRIMINAL-GAB 105PJ 11.008,33 1.100,83 0,00 4.203,66 4.036,39 0,00 0,00 1.911,00 22.260,21 1.730,68 5.079,45 0,00 0,00 6.810,13 15.450,08 31/12/2022
414 727700 BYANKA DA SILVA MORAIS ASSESSOR PROCURADOR JUSTICA BELO HORIZONTE - COMARCA; GABINETE DE PROCURADOR DE JUSTIÇA - SALA 805 0,00 0,00 7.857,77 3.274,07 0,00 0,00 0,00 1.911,00 13.042,84 1.130,27 1.521,33 0,00 0,00 2.651,60 10.391,24 31/12/2022
415 405800 CAIO FERNANDO RODRIGUES DE OLIVEIRA ANALISTA DO MP BELO HORIZONTE - COMARCA; ASSESSORIA JURIDICO-ADMINISTRATIVA 16.169,47 3.233,89 0,00 9.080,46 6.467,79 0,00 0,00 1.911,00 36.862,61 927,17 9.964,74 0,00 0,00 10.891,91 25.970,70 31/12/2022
416 530000 CAIO GUEDES DE OLIVEIRA ANALISTA DO MP DIAMANTINA - COMARCA; DIAMANTINA-PJ-02PJ 11.008,33 1.100,83 0,00 6.155,53 4.036,39 0,00 0,00 1.911,00 24.212,08 1.730,68 4.975,17 0,00 0,00 6.705,85 17.506,23 31/12/2022
417 491400 CAIO MIRANDA JUNQUEIRA ANALISTA DO MP BUENO BRANDAO - COMARCA; BUENO BRANDAO-PJ-UNPJ 11.008,33 2.201,67 0,00 11.303,19 4.403,33 0,00 0,00 1.911,00 30.827,52 1.906,81 5.480,40 0,00 0,00 7.387,21 23.440,31 31/12/2022
418 415800 CAMILA ALVES DA SILVA ANALISTA DO MP CAETÉ - COMARCA; CAETE-PJ-01PJ 15.659,55 3.131,91 0,00 6.595,88 6.263,82 0,00 0,00 1.911,00 33.562,16 2.799,85 8.779,21 0,00 0,00 11.579,06 21.983,10 31/12/2022
419 555800 CAMILA CAROLINE ROCHA CHAVES OFICIAL DO MP SALINAS - COMARCA; SALINAS-PJ-01PJ 6.694,66 669,47 0,00 3.640,64 2.454,71 0,00 0,00 1.911,00 15.370,48 971,47 2.452,29 0,00 0,00 3.423,76 11.946,72 31/12/2022
420 445200 CAMILA CONDE ROCHA ANALISTA DO MP CONTAGEM - COMARCA; CONTAGEM-PJ-21PJ 11.736,91 2.347,38 0,00 4.995,44 4.694,76 0,00 0,00 1.911,00 25.685,49 2.046,70 6.173,02 0,00 0,00 8.219,72 17.465,77 31/12/2022
421 419900 CAMILA CUNNINGHAM PIMENTA DE PADUA ANALISTA DO MP BELO HORIZONTE - COMARCA; ASSESSORIA PSICOSSOCIAL 16.169,47 3.233,89 0,00 7.109,88 6.467,79 0,00 0,00 1.911,00 34.892,03 2.897,75 9.118,00 0,00 0,00 12.015,75 22.876,28 31/12/2022
422 714200 CAMILA DE SOUSA CUNHA ASSESSOR PROMOTOR JUSTICA PRADOS - COMARCA; PRADOS-PJ-UNPJ 0,00 0,00 7.857,77 3.928,88 2.619,26 0,00 0,00 1.911,00 16.316,91 1.656,76 3.214,31 0,00 0,00 4.871,07 11.445,84 31/12/2022
423 507700 CAMILA ELIZABETH RODRIGUES ANALISTA DO MP BELO HORIZONTE - COMARCA; BH-02PJ FAMILIA-SECRETARIA 13.341,69 2.668,34 0,00 6.383,83 5.336,68 0,00 0,00 1.911,00 29.641,54 2.354,82 7.239,23 0,00 0,00 9.594,05 20.047,49 31/12/2022
424 372700 CAMILA FONSECA LIMONGE ANALISTA DO MP BETIM - COMARCA; BETIM-PJ-01PJ 16.169,47 3.233,89 0,00 6.803,93 6.467,79 0,00 0,00 1.911,00 34.586,08 2.897,75 9.118,00 0,00 0,00 12.015,75 22.570,33 31/12/2022
425 621300 CAMILA GOLFETO DE SOUSA VALENTE OFICIAL DO MP CARANGOLA - COMARCA; CARANGOLA-PJ-SECRETARIA 6.694,66 669,47 0,00 2.826,66 2.454,71 0,00 0,00 3.238,95 15.884,45 971,47 2.243,74 0,00 0,00 3.215,21 12.669,24 31/12/2022
426 409800 CAMILA GONCALVES COSTA RIBEIRO ANALISTA DO MP INHAPIM - COMARCA; INHAPIM-PJ-02PJ 11.008,33 2.201,67 0,00 4.698,19 4.403,33 0,00 0,00 2.796,30 25.107,82 1.906,81 5.480,40 0,00 0,00 7.387,21 17.720,61 31/12/2022
427 335000 CAMILA GONTIJO DE PAIVA ANALISTA DO MP BELO HORIZONTE - COMARCA; COORD DE CONTROLE CONSTITUCIONALIDADE 18.312,36 5.493,71 0,00 12.419,23 7.935,36 0,00 0,00 1.911,00 46.071,66 3.602,18 11.451,37 0,00 0,00 15.053,55 31.018,11 31/12/2022
428 693400 CAMILA HECKSHER MONTEIRO ASSESSOR PROCURADOR JUSTICA BELO HORIZONTE - COMARCA; GABINETE DE PROCURADOR DE JUSTIÇA - SALA 613 0,00 0,00 7.857,77 3.928,88 2.619,26 0,00 0,00 1.911,00 16.316,91 1.656,76 3.214,31 0,00 0,00 4.871,07 11.445,84 31/12/2022
429 696000 CAMILA IMACULADA OLIVEIRA ASSESSOR PROCURADOR JUSTICA BELO HORIZONTE - COMARCA; GABINETE DE PROCURADOR DE JUSTIÇA - SALA 816 0,00 0,00 7.857,77 7.857,77 2.619,26 0,00 0,00 1.911,00 20.245,80 1.656,76 3.214,31 0,00 0,00 4.871,07 15.374,73 31/12/2022
430 547800 CAMILA MATTARELLI DE ABREU E SILVA ANALISTA DO MP BELO HORIZONTE - COMARCA; CAO-VIOLENCIA DOMESTICA E FAMILIAR 11.008,33 1.100,83 0,00 4.699,64 4.036,39 0,00 0,00 1.911,00 22.756,19 1.730,68 5.079,45 0,00 0,00 6.810,13 15.946,06 31/12/2022
431 430000 CANDIDA MARINA COSTA ANALISTA DO MP BELO HORIZONTE - COMARCA; DIRET DE INFORMACAO E CONHECIMENTO-DINC/CEAF 15.659,55 3.131,91 0,00 6.595,88 6.263,82 0,00 0,00 1.911,00 33.562,16 2.799,85 8.779,21 0,00 0,00 11.579,06 21.983,10 31/12/2022
432 614300 CARINA CORTIELHA OFICIAL DO MP BELO HORIZONTE - COMARCA; BH-23PJ CIVEL-FISC AC POL PUB I 6.081,20 608,12 0,00 3.342,63 2.229,77 0,00 0,00 1.911,00 14.172,72 865,50 2.077,57 0,00 0,00 2.943,07 11.229,65 31/12/2022
433 380400 CARINA DIAS FACANHA DE SOUZA ANALISTA DO MP SANTA RITA DO SAPUCAÍ - COMARCA; SANTA RITA DO SAPUCAI-PJ-01PJ 16.169,47 3.233,89 0,00 6.803,93 6.467,79 0,00 0,00 2.796,30 35.471,38 2.897,75 9.118,00 0,00 0,00 12.015,75 23.455,63 31/12/2022
434 255000 CARLA ADRIANA DE MENEZES OFICIAL DO MP BELO HORIZONTE - COMARCA; CENT DE APOIO TEC-SETOR DEF,IDOSO E INFANC 11.008,33 3.302,50 0,00 5.072,46 4.770,28 0,00 0,00 1.911,00 26.064,57 2.082,95 6.298,44 0,00 0,00 8.381,39 17.683,18 31/12/2022
435 425100 CARLA ADRIANA DINIZ AMARAL OFICIAL DO MP CONTAGEM - COMARCA; CONTAGEM-PJ-SECRETARIA 9.999,62 1.999,92 2.602,68 7.078,54 4.867,41 0,00 0,00 1.911,00 28.459,17 1.713,14 6.688,81 0,00 0,00 8.401,95 20.057,22 31/12/2022
436 508100 CARLA ALESSANDRA FONSECA ANALISTA DO MP BELO HORIZONTE - COMARCA; CAO-ORDEM ECONOMICA E TRIBUTARIA-SECRETARIA 11.008,33 2.201,67 0,00 11.303,19 4.403,33 0,00 0,00 1.911,00 30.827,52 1.906,81 5.688,95 0,00 0,00 7.595,76 23.231,76 31/12/2022
437 607100 CARLA ANGELICA DIAS MIRANDA OFICIAL DO MP JABOTICATUBAS - COMARCA; JABOTICATUBAS-PJ-UNPJ 6.694,66 669,47 0,00 3.562,44 2.454,71 0,00 0,00 1.911,00 15.292,28 971,47 2.139,46 0,00 0,00 3.110,93 12.181,35 31/12/2022
438 351500 CARLA APARECIDA MENDES RAMIRIO OFICIAL DO MP PASSOS - COMARCA; PASSOS-PJ-01PJ 11.008,33 3.302,50 0,00 5.072,46 4.770,28 0,00 0,00 1.911,00 26.064,57 2.082,95 6.194,17 0,00 0,00 8.277,12 17.787,45 31/12/2022
439 713100 CARLA DOS SANTOS SOUZA ASSESSOR PROMOTOR JUSTICA ESPERA FELIZ - COMARCA; ESPERA FELIZ-PJ-UNPJ 0,00 0,00 7.857,77 3.928,88 5.238,52 0,00 0,00 1.911,00 18.936,17 1.656,76 3.934,61 0,00 0,00 5.591,37 13.344,80 31/12/2022
440 442800 CARLA GONCALVES COSTA SOALHEIRO ANALISTA DO MP GOVERNADOR VALADARES - COMARCA; GOVERNADOR VALADARES-PJ-11PJ 10.760,56 2.273,36 0,00 5.059,51 4.546,72 0,00 0,00 2.796,30 25.436,45 1.975,64 5.656,12 0,00 0,00 7.631,76 17.804,69 31/12/2022
441 321500 CARLA GONCALVES MASSOTE OFICIAL DO MP CAMPO BELO - COMARCA; CAMPO BELO-PJ-02PJ 11.008,33 3.302,50 0,00 5.072,46 4.770,28 0,00 0,00 1.911,00 26.064,57 2.082,95 6.298,44 0,00 0,00 8.381,39 17.683,18 31/12/2022
442 429200 CARLA HAUTEQUESTT BECHARA ANALISTA DO MP BELO HORIZONTE - COMARCA; DIRET DE INFORMACAO E CONHECIMENTO-DINC/CEAF 15.659,55 3.131,91 0,00 6.679,40 6.263,82 0,00 0,00 1.911,00 33.645,68 2.799,85 8.869,50 0,00 0,00 11.669,35 21.976,33 31/12/2022
443 247500 CARLA MATILDE GUIMARAES DE OLIVEIRA OFICIAL DO MP ITAJUBA - COMARCA; ITAJUBA-PJ-SECRETARIA 11.008,33 4.403,33 0,00 5.446,75 5.137,22 0,00 0,00 1.911,00 27.906,63 2.259,08 6.803,66 0,00 0,00 9.062,74 18.843,89 31/12/2022
444 226100 CARLA MERLI DA CONCEICAO ANALISTA DO MP BELO HORIZONTE - COMARCA; CENTRAL DE APOIO TECNICO-SETOR CONTABIL 20.574,59 8.229,84 0,00 11.029,03 9.601,48 0,00 2.057,48 1.911,00 53.403,42 4.401,92 13.743,52 0,00 329,20 18.474,64 34.928,78 31/12/2022
445 181401 CARLO MICHEL GAUDENSI COELHO ANALISTA DO MP BELO HORIZONTE - COMARCA; BH-08PJ JUIZADO ESPECIAL-SECRETARIA 15.659,55 6.263,82 0,00 8.665,29 7.307,79 0,00 0,00 1.911,00 39.807,45 3.300,95 10.513,26 0,00 0,00 13.814,21 25.993,24 31/12/2022
446 634000 CARLOS ALBERTO AMORMINO TRIGUEIRO ANALISTA DO MP BELO HORIZONTE - COMARCA; DIRET DE APOIO AS PROCURADORIAS DE JUSTICA 9.999,62 999,96 0,00 4.572,62 3.666,53 0,00 0,00 2.796,30 22.035,03 1.063,86 4.526,12 0,00 0,00 5.589,98 16.445,05 31/12/2022
447 637900 CARLOS ALBERTO DE MOURA OFICIAL DO MP SETE LAGOAS - COMARCA; SETE LAGOAS-PJ-07PJ 6.483,63 648,36 0,00 6.204,82 2.377,33 0,00 0,00 1.911,00 17.625,14 927,17 2.223,42 0,00 0,00 3.150,59 14.474,55 31/12/2022
448 638700 CARLOS ALBERTO FERREIRA BRAGA ANALISTA DO MP VESPASIANO - COMARCA; VESPASIANO-PJ-06PJ 9.999,62 999,96 0,00 4.999,76 3.666,53 0,00 0,00 1.911,00 21.576,87 927,17 4.600,85 0,00 0,00 5.528,02 16.048,85 31/12/2022
449 375801 CARLOS ALBERTO ROCHA ANALISTA DO MP VARGINHA - COMARCA; GAECO REGIONAL DE VARGINHA 11.008,33 1.100,83 0,00 10.378,48 4.036,39 0,00 0,00 2.796,30 29.320,33 1.730,68 4.975,17 0,00 0,00 6.705,85 22.614,48 31/12/2022
450 462800 CARLOS ANDREI SOARES FAGUNDES ANALISTA DO MP MONTES CLAROS - COMARCA; MONTES CLAROS-PJ-09PJ 11.008,33 2.201,67 0,00 11.303,19 4.403,33 0,00 0,00 1.911,00 30.827,52 1.906,81 5.584,67 0,00 0,00 7.491,48 23.336,04 31/12/2022
451 370300 CARLOS AUGUSTO BUENO DIAS ASSESSOR ADMINISTRATIVO IV BELO HORIZONTE - COMARCA; SUPERINTENDÊNCIA DE ENGENHARIA E ARQUITETURA 0,00 0,00 12.920,95 6.460,47 4.306,98 0,00 0,00 1.911,00 25.599,40 1.656,76 4.615,56 0,00 0,00 6.272,32 19.327,08 31/12/2022
452 505100 CARLOS CEZAR CARVALHO ANALISTA DO MP CONTAGEM - COMARCA; CONTAGEM-PJ-02PJ 11.008,33 4.403,33 0,00 7.897,96 5.137,22 0,00 0,00 1.911,00 30.357,84 2.259,08 6.699,39 0,00 0,00 8.958,47 21.399,37 31/12/2022
453 196800 CARLOS EDUARDO DE OLIVEIRA MARINHO OFICIAL DO MP ALPINÓPOLIS - COMARCA; ALPINOPOLIS-PJ-UNPJ 18.312,36 12.818,66 0,00 10.791,33 10.377,01 0,00 0,00 1.911,00 54.210,36 4.774,18 15.506,94 0,00 0,00 20.281,12 33.929,24 31/12/2022
454 650800 CARLOS EDUARDO NIZA DA SILVA OFICIAL DO MP IGARAPÉ - COMARCA; IGARAPE-PJ-01PJ 5.703,71 570,37 0,00 2.575,70 2.091,36 0,00 0,00 2.796,30 13.737,44 801,71 1.637,66 0,00 0,00 2.439,37 11.298,07 31/12/2022
455 491800 CARLOS EDUARDO ROMAN OFICIAL DO MP BARBACENA - COMARCA; BARBACENA-PJ-09PJ 8.650,50 1.730,10 0,00 3.736,19 3.460,20 0,00 0,00 1.911,00 19.487,99 1.454,11 4.122,40 0,00 0,00 5.576,51 13.911,48 31/12/2022
456 299300 CARLOS HENRIQUE BICALHO ANALISTA DO MP BELO HORIZONTE - COMARCA; BH-17PJ PATRIMONIO PUBLICO-SECRETARIA 20.574,59 8.229,84 0,00 10.548,80 9.601,48 0,00 0,00 2.796,30 51.751,01 4.401,92 14.323,07 0,00 0,00 18.724,99 33.026,02 31/12/2022
457 205100 CARLOS HENRIQUE ESTEVES OFICIAL DO MP ITAMBACURI - COMARCA; ITAMBACURI-PJ-01PJ 19.037,29 7.614,92 0,00 9.775,99 8.884,07 0,00 0,00 1.911,00 47.223,27 4.057,57 13.027,18 0,00 0,00 17.084,75 30.138,52 31/12/2022
458 351600 CARLOS HENRIQUE FELICIO DA FONSECA OFICIAL DO MP JUIZ DE FORA - COMARCA; JUIZ DE FORA-PJ-21PJ 11.008,33 3.302,50 0,00 5.072,46 4.770,28 0,00 0,00 1.911,00 26.064,57 2.082,95 6.194,17 0,00 0,00 8.277,12 17.787,45 31/12/2022
459 729100 CARLOS HENRIQUE TEIXEIRA BRAGA ASSESSOR ADMINISTRATIVO II BELO HORIZONTE - COMARCA; DIRETORIA DE SUPORTE E MANUTENCAO 0,00 0,00 6.694,66 2.231,55 0,00 0,00 0,00 1.911,00 10.837,21 1.011,04 1.121,31 0,00 0,00 2.132,35 8.704,86 31/12/2022
460 85400 CARLOS JOSE VIEIRA OFICIAL DO MP BELO HORIZONTE - COMARCA; DIRETORIA DO COLEGIO E DA CAMARA DE PJ 25.971,96 20.777,57 0,00 17.731,11 13.643,13 5.467,17 0,00 1.911,00 85.501,94 5.467,17 22.552,03 11.287,31 0,00 39.306,51 46.195,43 31/12/2022
461 229100 CARLOS MERCES DE OLIVEIRA ANALISTA DO MP BELO HORIZONTE - COMARCA; CENTRAL DE APOIO TECN-SETOR DE MEIO AMBIENTE 20.574,59 8.229,84 0,00 10.000,29 9.601,48 0,00 0,00 1.911,00 50.317,20 4.401,92 11.832,15 0,00 0,00 16.234,07 34.083,13 31/12/2022
462 538300 CARLOS RANGEL SILVA DE MELO ANALISTA DO MP BELO HORIZONTE - COMARCA; DIVISAO DE CONTROLE IMOBILIARIO 11.008,33 3.302,50 0,00 7.218,50 4.770,28 0,00 0,00 3.681,60 29.981,21 2.082,95 6.298,44 0,00 0,00 8.381,39 21.599,82 31/12/2022
463 265100 CARLOS REIFF MIRANDA ANALISTA DO MP BELO HORIZONTE - COMARCA; BH-19PJ SAUDE-SECRETARIA 150PJ 20.574,59 6.172,38 0,00 9.300,75 8.915,66 0,00 0,00 1.911,00 46.874,38 4.072,73 13.183,92 0,00 0,00 17.256,65 29.617,73 31/12/2022
464 305400 CARLOS ROCHA DE SOUZA OFICIAL DO MP MONTALVÂNIA - COMARCA; MONTALVANIA-PJ-SECRETARIA 6.694,66 2.008,40 0,00 3.165,83 2.901,02 0,00 0,00 2.554,69 17.324,60 1.185,70 2.776,51 0,00 0,00 3.962,21 13.362,39 31/12/2022
465 399900 CARMELITA EVANGELISTA DE SOUZA OFICIAL DO MP JOÃO PINHEIRO - COMARCA; JOAO PINHEIRO-PJ-01PJ 9.378,86 1.875,77 0,00 9.660,68 3.751,54 0,00 0,00 1.911,00 26.577,85 1.593,95 4.606,33 0,00 0,00 6.200,28 20.377,57 31/12/2022
466 202000 CARMEN LUCIA MARIZ DE MACEDO OFICIAL DO MP BELO HORIZONTE - COMARCA; DIRETORIA GESTAO COMPRAS LICITACOES 18.312,36 12.818,66 4.846,91 16.496,69 11.992,64 0,00 0,00 1.911,00 66.378,26 4.774,18 18.229,13 515,71 0,00 23.519,02 42.859,24 31/12/2022
467 701900 CAROLINA CARVALHO COSTA ASSESSOR PROCURADOR JUSTICA BELO HORIZONTE - COMARCA; GABINETE DE PROCURADOR DE JUSTIÇA - SALA 811 0,00 0,00 7.857,77 3.928,88 2.619,26 0,00 0,00 1.911,00 16.316,91 1.656,76 3.214,31 0,00 0,00 4.871,07 11.445,84 31/12/2022
468 228500 CAROLINA CHIARELLA DOS SANTOS RIBEIRO COORDENADOR I BELO HORIZONTE - COMARCA; DIVISAO TRANSPORTES 14.687,60 4.406,28 0,00 7.463,99 6.364,63 0,00 0,00 1.911,00 34.833,50 2.082,95 9.159,02 0,00 0,00 11.241,97 23.591,53 31/12/2022
469 446500 CAROLINA COSTA VAL RODRIGUES ANALISTA DO MP BELO HORIZONTE - COMARCA; DIVISAO DE MATERIAIS 15.659,55 3.131,91 4.406,28 9.660,07 7.732,58 0,00 0,00 1.911,00 42.501,39 2.799,85 11.606,58 0,00 0,00 14.406,43 28.094,96 31/12/2022
470 603501 CAROLINA DOMINGOS BRANDAO RABELLO ANALISTA DO MP BARROSO - COMARCA; BARROSO-PJ-01PJ 10.325,15 1.032,52 0,00 5.779,18 3.785,89 0,00 0,00 2.796,30 23.719,04 1.610,44 4.663,38 0,00 0,00 6.273,82 17.445,22 31/12/2022
471 404300 CAROLINA DOS SANTOS VIEIRA ANALISTA DO MP BELO HORIZONTE - COMARCA; BH-08PJ JUIZADO ESPECIAL-SECRETARIA 16.169,47 3.233,89 0,00 6.803,93 6.467,79 0,00 0,00 1.911,00 34.586,08 2.897,75 8.909,46 0,00 0,00 11.807,21 22.778,87 31/12/2022
472 551200 CAROLINA LOPES ARANTES MASCARENHAS ANALISTA DO MP BELO HORIZONTE - COMARCA; CAO-VIOLENCIA DOMESTICA E FAMILIAR 11.008,33 1.100,83 0,00 10.378,48 4.036,39 0,00 0,00 2.796,30 29.320,33 1.730,68 4.870,90 0,00 0,00 6.601,58 22.718,75 31/12/2022
473 622600 CAROLINA LOREDO LOPES CATIZANI OFICIAL DO MP RIBEIRÃO DAS NEVES - COMARCA; RIBEIRAO DAS NEVES-PJ-12PJ 6.081,20 608,12 0,00 2.584,65 2.229,77 0,00 0,00 1.911,00 13.414,74 865,50 2.077,57 0,00 0,00 2.943,07 10.471,67 31/12/2022
474 382200 CAROLINA MENDES CHAVES LIN ANALISTA DO MP BELO HORIZONTE - COMARCA; BH-12PJ JUIZO CRIMINAL-GAB 088PJ 11.008,33 2.201,67 0,00 4.698,19 4.403,33 0,00 0,00 2.796,30 25.107,82 1.906,81 5.584,67 0,00 0,00 7.491,48 17.616,34 31/12/2022
475 461900 CAROLINA MURTA TEIXEIRA DIAS ANALISTA DO MP BELO HORIZONTE - COMARCA; CENTRO AUTOCOMPOSICAO DE CONFLITOS 11.008,33 2.201,67 0,00 4.698,19 4.403,33 0,00 0,00 1.911,00 24.222,52 1.906,81 5.688,95 0,00 0,00 7.595,76 16.626,76 31/12/2022
476 509600 CAROLINA PINTO DE OLIVEIRA SOUZA ANALISTA DO MP MURIAÉ - COMARCA; MURIAE-PJ-01PJ 11.008,33 2.201,67 0,00 6.718,97 4.403,33 0,00 0,00 2.796,30 27.128,60 1.906,81 5.480,40 0,00 0,00 7.387,21 19.741,39 31/12/2022
477 629100 CAROLINA RODRIGUES AMARAL ANALISTA DO MP BELO HORIZONTE - COMARCA; PROC. JUSTICA DIR. DIFUSOS E COLETIVOS-SEC 10.325,15 1.032,52 0,00 4.247,44 3.785,89 0,00 0,00 1.911,00 21.302,00 1.610,44 4.663,38 0,00 0,00 6.273,82 15.028,18 31/12/2022
478 502600 CAROLINA RODRIGUES RUBEN ANALISTA DO MP BELO HORIZONTE - COMARCA; BH-18PJ VIOLENCIA DOMESTICA-GAB 007PJ 11.008,33 2.201,67 0,00 4.698,19 4.403,33 0,00 0,00 3.681,60 25.993,12 1.906,81 5.480,40 0,00 0,00 7.387,21 18.605,91 31/12/2022
479 529600 CAROLINA VAZ DE MELO MAMBRINI ANALISTA DO MP BELO HORIZONTE - COMARCA; BH-14PJ DEFESA CONSUMIDOR-GAB 005PJ 11.008,33 1.100,83 0,00 4.203,66 4.036,39 0,00 0,00 1.911,00 22.260,21 1.730,68 5.079,45 0,00 0,00 6.810,13 15.450,08 31/12/2022
480 619100 CAROLINA ZAKHIA NARDELLI RODRIGUES ANALISTA DO MP NEPOMUCENO - COMARCA; NEPOMUCENO-PJ-UNPJ 10.325,15 1.032,52 0,00 4.247,44 3.785,89 0,00 0,00 2.796,30 22.187,30 1.610,44 4.663,38 0,00 0,00 6.273,82 15.913,48 31/12/2022
481 517600 CAROLINE ALVES DE OLIVEIRA MULLER ANALISTA DO MP VISCONDE DO RIO BRANCO - COMARCA; VISCONDE DO RIO BRANCO-PJ-01PJ 11.008,33 2.201,67 0,00 4.698,19 4.403,33 0,00 0,00 1.911,00 24.222,52 1.906,81 5.584,67 0,00 0,00 7.491,48 16.731,04 31/12/2022
482 373200 CAROLINE ANTUNES RIBEIRO OFICIAL DO MP JACUI - COMARCA; JACUI-PJ-UNPJ 11.008,33 2.201,67 0,00 5.303,42 4.403,33 0,00 0,00 1.911,00 24.827,75 1.906,81 5.584,67 0,00 0,00 7.491,48 17.336,27 31/12/2022
483 723500 CAROLINE CORDEIRO FERNANDES MACHADO ASSESSOR PROMOTOR JUSTICA BELO HORIZONTE - COMARCA; COORD DE INCLUSAO E MOBILIZACAO SOCIAIS 0,00 0,00 7.857,77 3.928,88 0,00 0,00 0,00 1.911,00 13.697,65 1.397,95 1.844,90 0,00 0,00 3.242,85 10.454,80 31/12/2022
484 556800 CAROLINE DE SOUZA CARDOSO DOMINGUES OFICIAL DO MP BRASÍLIA DE MINAS - COMARCA; BRASILIA DE MINAS-PJ-02PJ 6.694,66 669,47 0,00 2.710,59 2.454,71 0,00 0,00 1.911,00 14.440,43 971,47 2.452,29 0,00 0,00 3.423,76 11.016,67 31/12/2022
485 499400 CAROLINE MARQUES DE LOURDES MARZULLO OFICIAL DO MP JUIZ DE FORA - COMARCA; JUIZ DE FORA-PJ-08PJ 8.650,50 1.730,10 0,00 4.263,13 6.920,40 0,00 0,00 3.238,95 24.803,08 927,17 5.227,93 0,00 0,00 6.155,10 18.647,98 31/12/2022
486 616800 CAROLINE MONTEIRO DE BARROS ANALISTA DO MP CONTAGEM - COMARCA; CONTAGEM-PJ-11PJ 10.325,15 1.032,52 0,00 10.430,50 3.785,89 0,00 0,00 1.911,00 27.485,06 927,17 4.863,02 0,00 0,00 5.790,19 21.694,87 31/12/2022
487 618100 CAROLINE VASCONCELOS COSTA LANZA ANALISTA DO MP PARAOPEBA - COMARCA; PARAOPEBA-PJ-UNPJ 10.325,15 1.032,52 0,00 5.888,23 3.785,89 0,00 0,00 3.740,62 24.772,41 1.610,44 4.663,38 0,00 0,00 6.273,82 18.498,59 31/12/2022
488 699000 CAROLLINA RODRIGUES SOUTO AMARAL ASSESSOR PROCURADOR JUSTICA BELO HORIZONTE - COMARCA; GABINETE DE PROCURADOR DE JUSTIÇA - SALA 405 0,00 0,00 7.857,77 3.928,88 2.619,26 0,00 0,00 1.911,00 16.316,91 1.656,76 3.214,31 0,00 0,00 4.871,07 11.445,84 31/12/2022
489 604000 CASSIA APARECIDA DA SILVA OFICIAL DO MP PARACATU - COMARCA; PARACATU-PJ-01PJ 6.694,66 669,47 0,00 2.710,59 2.454,71 0,00 0,00 1.911,00 14.440,43 971,47 2.452,29 0,00 0,00 3.423,76 11.016,67 31/12/2022
490 268800 CASSIA BEATRIZ TEIXEIRA OFICIAL DO MP BELO HORIZONTE - COMARCA; PROC. JUSTICA DE HABEAS CORPUS 14.224,47 4.267,34 3.876,29 6.494,00 7.456,03 0,00 3.876,29 1.911,00 42.105,42 2.751,90 9.963,56 0,00 494,46 13.209,92 28.895,50 31/12/2022
491 500000 CASSIA DE OLIVEIRA COSTA VIANA ANALISTA DO MP SETE LAGOAS - COMARCA; SETE LAGOAS-PJ-09PJ 11.008,33 7.705,83 0,00 15.926,68 6.238,05 0,00 0,00 1.911,00 42.789,89 2.787,48 8.736,42 0,00 0,00 11.523,90 31.265,99 31/12/2022
492 368800 CASSIA LUISA BATISTA MENDONCA WEBER COORDENADOR II BELO HORIZONTE - COMARCA; DIVISÃO DE EDUCAÇÃO PARA O CONSUMO 18.312,36 5.493,71 0,00 10.191,43 7.935,36 0,00 0,00 1.911,00 43.843,86 1.711,60 12.595,46 0,00 0,00 14.307,06 29.536,80 31/12/2022
493 622200 CASSIA VAZ DE AZEVEDO LISBOA MARZANO ASSESSOR ADMINISTRATIVO III BELO HORIZONTE - COMARCA; CGMP-SECRETARIA DA CORREGEDORIA-GERAL DO MP 0,00 0,00 9.684,23 4.842,11 3.228,08 0,00 0,00 1.911,00 19.665,42 1.656,76 4.073,47 0,00 0,00 5.730,23 13.935,19 31/12/2022
494 121000 CASSIO HENRIQUE AFONSO DA SILVA OFICIAL DO MP BELO HORIZONTE - COMARCA; CGMP-ASSESSORIA JURIDICA 20.574,59 16.459,68 0,00 12.263,94 11.820,74 0,00 0,00 1.911,00 63.029,95 5.467,17 17.944,81 1.572,05 0,00 24.984,03 38.045,92 31/12/2022
495 512001 CATARINA NATALINO CALIXTO COORDENADOR II BELO HORIZONTE - COMARCA; DIRETORIA GESTAO TRANSPORTES 18.312,36 1.831,24 0,00 8.518,65 6.714,53 0,00 0,00 2.796,30 38.173,08 1.553,15 10.332,52 0,00 0,00 11.885,67 26.287,41 31/12/2022
496 606200 CATARINE DE SIQUEIRA DE QUADROS ANALISTA DO MP CONTAGEM - COMARCA; CONTAGEM-PJ-08PJ 10.325,15 1.032,52 0,00 5.727,04 3.785,89 0,00 0,00 2.796,30 23.666,90 1.610,44 4.454,82 0,00 0,00 6.065,26 17.601,64 31/12/2022
497 622300 CECILIA APARECIDA PEREIRA ASSUNCAO OFICIAL DO MP TRÊS PONTAS - COMARCA; TRES PONTAS-PJ-SECRETARIA 6.912,65 691,27 0,00 3.028,08 2.534,64 0,00 0,00 2.796,30 15.962,94 1.009,84 2.480,77 0,00 0,00 3.490,61 12.472,33 31/12/2022
498 538000 CECILIA FONTES DE MATOS PIMENTEL ANALISTA DO MP PALMA - COMARCA; PALMA-PJ-UNPJ 11.008,33 1.100,83 0,00 4.203,66 4.036,39 0,00 0,00 2.796,30 23.145,51 1.730,68 5.079,45 0,00 0,00 6.810,13 16.335,38 31/12/2022
499 261300 CECILIO ANTONIO CAMPOS DOS REIS ANALISTA DO MP BELO HORIZONTE - COMARCA; AUDITORIA INTERNA 20.574,59 6.172,38 0,00 9.300,75 8.915,66 0,00 0,00 1.911,00 46.874,38 4.072,73 13.183,92 0,00 0,00 17.256,65 29.617,73 31/12/2022
500 386400 CEFAS AMORELI DE FIGUEIREDO OFICIAL DO MP CABO VERDE - COMARCA; CABO VERDE-PJ-SECRETARIA 6.694,66 1.338,93 0,00 2.938,20 2.677,86 0,00 0,00 1.911,00 15.560,65 1.078,59 2.822,95 0,00 0,00 3.901,54 11.659,11 31/12/2022
501 149000 CELIA MAGALHAES CLAROS SOSSI OFICIAL DO MP GOVERNADOR VALADARES - COMARCA; GAECO REGIONAL DE GOVERNADOR VALADARES 19.791,01 13.853,71 0,00 17.463,02 12.940,36 5.176,37 0,00 1.911,00 71.135,47 5.176,37 20.324,48 0,00 0,00 25.500,85 45.634,62 31/12/2022
502 421000 CELINA BENEDITA DE SOUZA ALMEIDA OFICIAL DO MP CAMBUÍ - COMARCA; CAMBUI-PJ-01PJ 9.999,62 6.999,73 0,00 6.254,64 5.666,45 0,00 0,00 1.911,00 30.831,44 2.513,11 7.682,71 0,00 0,00 10.195,82 20.635,62 31/12/2022
503 252900 CELIO DE MELO CASTOR ANALISTA DO MP BELO HORIZONTE - COMARCA; DIVISAO FROTA 20.574,59 6.172,38 0,00 9.300,75 8.915,66 0,00 0,00 1.911,00 46.874,38 4.072,73 13.183,92 0,00 0,00 17.256,65 29.617,73 31/12/2022
504 395700 CELIO FERREIRA LIMA OFICIAL DO MP CONTAGEM - COMARCA; CONTAGEM-PJ-SECRETARIA 10.325,15 2.065,03 0,00 4.419,45 4.130,06 0,00 0,00 1.911,00 22.850,69 1.775,64 5.130,77 0,00 0,00 6.906,41 15.944,28 31/12/2022
505 281300 CELMA REGINA PEREIRA SANTOS ANALISTA DO MP BELO HORIZONTE - COMARCA; PROMOT ESTADUAL DE DEF PATRI CULT E TUR DE MG 20.574,59 6.172,38 0,00 9.300,75 8.915,66 0,00 0,00 1.911,00 46.874,38 4.072,73 13.183,92 0,00 0,00 17.256,65 29.617,73 31/12/2022
506 535600 CELSO MEDEIROS DE PAIVA OFICIAL DO MP RIO PRETO - COMARCA; RIO PRETO-PJ-SECRETARIA 6.694,66 669,47 0,00 2.602,62 2.454,71 0,00 0,00 2.294,40 14.715,86 971,47 2.348,01 0,00 0,00 3.319,48 11.396,38 31/12/2022
507 367000 CESAR NARVAES DE AVELAR OFICIAL DO MP BELO HORIZONTE - COMARCA; DIRET DE INFORMACAO E CONHECIMENTO-DINC/CEAF 11.008,33 3.302,50 0,00 7.360,60 4.770,28 0,00 0,00 1.911,00 28.352,71 2.082,95 6.298,44 0,00 0,00 8.381,39 19.971,32 31/12/2022
508 226500 CESAR SILVEIRA BARROUIN OFICIAL DO MP BELO HORIZONTE - COMARCA; DIRETORIA DE ADMINISTRACAO FINANCEIRA 15.659,55 6.263,82 0,00 8.665,29 7.307,79 0,00 0,00 1.911,00 39.807,45 3.300,95 10.513,26 0,00 0,00 13.814,21 25.993,24 31/12/2022
509 121400 CEZAR MORENO CONCEICAO TAVARES OFICIAL DO MP BELO HORIZONTE - COMARCA; COORD DE INCLUSAO E MOBILIZACAO SOCIAIS 19.037,29 15.229,84 0,00 18.085,43 13.181,03 5.275,95 0,00 2.796,30 73.605,84 5.275,95 20.524,44 0,00 0,00 25.800,39 47.805,45 31/12/2022
510 243800 CHARLES MARTINS MUNIZ OFICIAL DO MP BELO HORIZONTE - COMARCA; LAB TECNOLOGIA CONTRA LAVAGEM DINHEIRO 15.659,55 6.263,82 0,00 8.665,29 7.307,79 0,00 0,00 1.333,00 39.229,45 3.300,95 10.513,26 0,00 0,00 13.814,21 25.415,24 31/12/2022
511 193500 CHARLIN CESAR KOURLY OFICIAL DO MP ARAGUARI - COMARCA; ARAGUARI-PJ-07PJ 18.312,36 7.324,94 0,00 8.923,47 8.545,77 0,00 0,00 1.911,00 45.017,54 3.895,18 12.569,53 0,00 0,00 16.464,71 28.552,83 31/12/2022
512 385500 CHILLEN PEIXOTO DE MOURA OFICIAL DO MP BELO HORIZONTE - COMARCA; DIVISAO DE MATERIAIS 10.325,15 2.065,03 0,00 6.332,09 4.130,06 0,00 0,00 2.796,30 25.648,63 1.775,64 5.235,04 0,00 0,00 7.010,68 18.637,95 31/12/2022
513 534500 CHRISTIAN DOUGLAS BRITO RUAS OFICIAL DO MP SÃO JOÃO DA PONTE - COMARCA; SAO JOAO DA PONTE-PJ-SECRETARIA 6.694,66 669,47 0,00 3.640,64 2.454,71 0,00 0,00 2.068,62 15.528,10 971,47 2.452,29 0,00 0,00 3.423,76 12.104,34 31/12/2022
514 370600 CHRISTIAN KARINE FELIX PRATES ASSESSOR ADMINISTRATIVO IV BELO HORIZONTE - COMARCA; SUPRIN DE PLANEJAMENTO E COORDENACAO 0,00 0,00 12.920,95 6.460,47 4.306,98 0,00 0,00 1.911,00 25.599,40 1.656,76 6.463,19 0,00 0,00 8.119,95 17.479,45 31/12/2022
515 435800 CHRISTIANA BAHIA ANDRADE PINA ANALISTA DO MP BELO HORIZONTE - COMARCA; LABORATORIO TECNOLOGIA INTELIGENCIA 15.659,55 3.131,91 0,00 6.595,88 6.263,82 0,00 0,00 1.911,00 33.562,16 2.799,85 8.779,21 0,00 0,00 11.579,06 21.983,10 31/12/2022
516 516800 CHRISTIANE FERREIRA DO NASCIMENTO ANALISTA DO MP POUSO ALEGRE - COMARCA; POUSO ALEGRE-PJ-08PJ 11.008,33 2.201,67 0,00 6.771,11 4.403,33 0,00 0,00 1.911,00 26.295,44 1.906,81 5.688,95 0,00 0,00 7.595,76 18.699,68 31/12/2022
517 176000 CHRISTIANE JUNQUEIRA PULITI ANDRADE DE BARROS ASSESSOR ADM. ESPECIAL BELO HORIZONTE - COMARCA; PROCURADORIA-GERAL ADJUNTA INSTITUCIONAL 0,00 19.986,35 24.982,93 17.731,11 13.643,13 5.467,17 0,00 1.911,00 83.721,69 5.467,17 22.388,84 9.507,06 0,00 37.363,07 46.358,62 31/12/2022
518 319200 CHRISTIANE MARIA DE ASSIS RUSSO OFICIAL DO MP BELO HORIZONTE - COMARCA; CAO-ORDEM ECONOMICA E TRIBUTARIA-SECRETARIA 13.341,69 4.002,51 0,00 14.775,91 5.781,40 0,00 0,00 2.796,30 40.697,81 2.568,29 7.873,64 0,00 0,00 10.441,93 30.255,88 31/12/2022
519 510300 CHRISTIANE MARY DE CARVALHO FERREIRA ANALISTA DO MP BELO HORIZONTE - COMARCA; DIRETORIA DE SISTEMAS DE INFORMACAO 11.008,33 2.201,67 0,00 4.698,19 4.403,33 0,00 0,00 1.911,00 24.222,52 1.906,81 5.584,67 0,00 0,00 7.491,48 16.731,04 31/12/2022
520 424900 CHRISTIANE PEREIRA TURNER DE ARAUJO OFICIAL DO MP BELO HORIZONTE - COMARCA; CAO-PATRIMONIO PUBLICO 9.684,23 1.936,85 0,00 4.157,95 3.873,69 0,00 0,00 2.796,30 22.449,02 1.652,59 4.600,67 0,00 0,00 6.253,26 16.195,76 31/12/2022
521 731000 CHRISTIANE TEIXEIRA ANTUNA ASSESSOR ADMINISTRATIVO II BELO HORIZONTE - COMARCA; DIR CONTEUDO JORNALISTICO 0,00 0,00 6.694,66 1.115,78 0,00 0,00 0,00 1.911,00 9.721,44 912,06 1.110,44 0,00 0,00 2.022,50 7.698,94 31/12/2022
522 513700 CHRISTIANE VIEIRA SOARES PEDERSOLI COORDENADOR II BELO HORIZONTE - COMARCA; ASSESSORIA JURIDICA DO PROCON-MG 18.312,36 3.662,47 0,00 9.080,60 7.324,94 0,00 0,00 2.796,30 41.176,67 1.906,81 11.313,05 0,00 0,00 13.219,86 27.956,81 31/12/2022
523 412300 CHRYSTIAN MACHADO RIBEIRO ANALISTA DO MP VARGINHA - COMARCA; VARGINHA-PJ-04PJ 16.169,47 3.233,89 0,00 10.273,98 6.467,79 0,00 0,00 1.911,00 38.056,13 2.897,75 9.118,00 0,00 0,00 12.015,75 26.040,38 31/12/2022
524 513800 CHRYSTIANE DO NASCIMENTO DE MAGALHAES OFICIAL DO MP UBERLÂNDIA - COMARCA; UBERLANDIA-PJ-10PJ 8.650,50 1.730,10 0,00 3.899,83 3.460,20 0,00 0,00 1.911,00 19.651,63 1.454,11 3.913,86 0,00 0,00 5.367,97 14.283,66 31/12/2022
525 497900 CIBELE DE FREITAS SANCHES DIAS ANALISTA DO MP SABARÁ - COMARCA; SABARA-PJ-03PJ 11.008,33 2.201,67 0,00 6.905,97 4.403,33 0,00 0,00 1.911,00 26.430,30 463,58 5.870,91 0,00 0,00 6.334,49 20.095,81 31/12/2022
526 500900 CIBELLE SILVA PRADO ALVARENGA ANALISTA DO MP ITANHANDU - COMARCA; ITANHANDU-PJ-UNPJ 11.008,33 2.201,67 0,00 11.303,19 4.403,33 0,00 0,00 2.796,30 31.712,82 1.906,81 5.688,95 0,00 0,00 7.595,76 24.117,06 31/12/2022
527 296400 CINTIA APARECIDA MOREIRA NAVES E RODRIGUES ANALISTA DO MP CAMPO BELO - COMARCA; CAMPO BELO-PJ-01PJ 20.574,59 6.172,38 0,00 9.810,08 8.915,66 0,00 0,00 1.911,00 47.383,71 4.072,73 13.183,92 0,00 0,00 17.256,65 30.127,06 31/12/2022
528 407900 CINTIA NETO COMELLI ANALISTA DO MP BELO HORIZONTE - COMARCA; CENTRAL DE APOIO TECNICO-SETOR CONTABIL 16.169,47 3.233,89 0,00 7.109,88 6.467,79 0,00 0,00 1.911,00 34.892,03 2.897,75 9.013,74 0,00 0,00 11.911,49 22.980,54 31/12/2022
529 304700 CINTIA QUEIROZ OFICIAL DO MP BELO HORIZONTE - COMARCA; OUVIDORIA DO MPMG 11.008,33 3.302,50 0,00 5.072,46 4.770,28 0,00 0,00 1.911,00 26.064,57 2.082,95 6.298,44 0,00 0,00 8.381,39 17.683,18 31/12/2022
530 286100 CIRO CANGUSSU CORDEIRO OFICIAL DO MP IPATINGA - COMARCA; IPATINGA-PJ-09PJ 8.650,50 2.595,15 0,00 4.030,30 3.748,55 0,00 0,00 2.796,30 21.820,80 1.592,52 4.392,81 0,00 0,00 5.985,33 15.835,47 31/12/2022
531 689900 CISSA NOGUEIRA COLEN ASSESSOR PROCURADOR JUSTICA BELO HORIZONTE - COMARCA; GABINETE DE PROCURADOR DE JUSTIÇA - SALA 608 0,00 0,00 7.857,77 3.928,88 2.619,26 0,00 0,00 1.911,00 16.316,91 1.656,76 3.214,31 0,00 0,00 4.871,07 11.445,84 31/12/2022
532 681700 CLARA FERREIRA ALKIMIM ASSESSOR PROMOTOR JUSTICA PEDRA AZUL - COMARCA; PEDRA AZUL-PJ-02PJ 0,00 0,00 7.857,77 3.928,88 2.619,26 0,00 0,00 1.911,00 16.316,91 1.656,76 3.214,31 0,00 0,00 4.871,07 11.445,84 31/12/2022
533 715500 CLARA ISABELLE SOUSA FARIA ASSESSOR PROCURADOR JUSTICA BELO HORIZONTE - COMARCA; GABINETE DE PROCURADOR DE JUSTIÇA - SALA 712 0,00 0,00 7.857,77 3.928,88 2.619,26 0,00 0,00 1.911,00 16.316,91 1.656,76 3.214,31 0,00 0,00 4.871,07 11.445,84 31/12/2022
534 723100 CLARA PRADO CAMPOS ASSESSOR PROCURADOR JUSTICA BELO HORIZONTE - COMARCA; GABINETE DE PROCURADOR DE JUSTIÇA - SALA 1006 0,00 0,00 7.857,77 4.339,12 0,00 0,00 0,00 1.911,00 14.107,89 1.489,62 1.999,76 0,00 0,00 3.489,38 10.618,51 31/12/2022
535 695500 CLARA RODRIGUES BLACH ASSESSOR PROCURADOR JUSTICA BELO HORIZONTE - COMARCA; GABINETE DE PROCURADOR DE JUSTIÇA - SALA 1003 0,00 0,00 7.857,77 4.874,93 2.619,26 0,00 0,00 1.911,00 17.262,96 1.656,76 3.214,31 0,00 0,00 4.871,07 12.391,89 31/12/2022
536 412500 CLARICE GOMES MAROTTA ANALISTA DO MP BELO HORIZONTE - COMARCA; COORD ESTADUAL DE DEFESA DOS ANIMAIS 15.659,55 4.697,87 0,00 7.128,31 6.785,81 0,00 0,00 1.911,00 36.182,54 3.050,40 9.646,24 0,00 0,00 12.696,64 23.485,90 31/12/2022
537 605300 CLARISSA AZEVEDO ROCHA OFICIAL DO MP BELO HORIZONTE - COMARCA; BH-17PJ PATRIMONIO PUBLICO-SECRETARIA 6.694,66 669,47 0,00 2.710,59 2.454,71 0,00 0,00 1.911,00 14.440,43 971,47 2.452,29 0,00 0,00 3.423,76 11.016,67 31/12/2022
538 308100 CLARISSA DUARTE BELLONI DIRETOR-GERAL BELO HORIZONTE - COMARCA; DIRETORIA-GERAL 30.917,06 9.275,12 0,00 13.658,38 11.820,74 0,00 0,00 4.566,90 70.238,20 4.072,73 19.001,24 4.729,96 0,00 27.803,93 42.434,27 31/12/2022
539 730500 CLARISSA FERNANDES ABREU ASSESSOR PROMOTOR JUSTICA SANTOS DUMONT - COMARCA; SANTOS DUMONT-PJ-02PJ 0,00 0,00 7.857,77 1.964,44 0,00 0,00 0,00 1.911,00 11.733,21 987,00 1.430,30 0,00 0,00 2.417,30 9.315,91 31/12/2022
540 497100 CLARISSA ROCHA GUIDI ANALISTA DO MP BELO HORIZONTE - COMARCA; BH-02PJ FAMILIA-SECRETARIA 13.341,69 2.668,34 0,00 6.383,83 5.336,68 0,00 0,00 3.681,60 31.412,14 2.354,82 7.134,96 0,00 0,00 9.489,78 21.922,36 31/12/2022
541 641800 CLARISSE TAVARES GONCALVES OFICIAL DO MP BELO HORIZONTE - COMARCA; BH-07PJ 01 TRIBUNAL JURI-SECRETARIA 6.483,63 648,36 0,00 2.965,65 2.377,33 0,00 0,00 1.911,00 14.385,97 927,17 2.327,70 0,00 0,00 3.254,87 11.131,10 31/12/2022
542 463700 CLAUDIA ADRIANA FERRAO DIAS ANALISTA DO MP SETE LAGOAS - COMARCA; SETE LAGOAS-PJ-06PJ 11.008,33 2.201,67 0,00 11.303,19 4.403,33 0,00 0,00 1.911,00 30.827,52 1.906,81 5.688,95 0,00 0,00 7.595,76 23.231,76 31/12/2022
543 415400 CLAUDIA ALMEIDA DE VASCONCELLOS BARROS OFICIAL DO MP BELO HORIZONTE - COMARCA; DIVISAO DE SERVICOS 9.684,23 1.936,85 3.585,64 6.133,99 5.068,91 0,00 0,00 1.911,00 28.320,62 1.652,59 7.110,01 0,00 0,00 8.762,60 19.558,02 31/12/2022
544 207000 CLAUDIA APARECIDA VILELA MACHADO ANALISTA DO MP BELO HORIZONTE - COMARCA; CENTRAL DE APOIO TECNICO-SETOR CONTABIL 20.574,59 10.287,30 0,00 11.728,57 10.287,30 0,00 2.057,48 1.911,00 56.846,24 4.731,12 14.674,12 0,00 329,20 19.734,44 37.111,80 31/12/2022
545 365700 CLAUDIA BREGUEZ CUNHA ANALISTA DO MP VARGINHA - COMARCA; VARGINHA-PJ-07PJ 18.312,36 5.493,71 0,00 9.351,68 7.935,36 0,00 0,00 2.796,30 43.889,41 3.602,18 11.555,64 0,00 0,00 15.157,82 28.731,59 31/12/2022
546 430500 CLAUDIA CECILIA SANTANA VENCESLAU OFICIAL DO MP BELO HORIZONTE - COMARCA; LAB TECNOLOGIA CONTRA LAVAGEM DINHEIRO 9.684,23 1.936,85 0,00 4.157,95 3.873,69 0,00 0,00 1.911,00 21.563,72 1.652,59 4.704,94 0,00 0,00 6.357,53 15.206,19 31/12/2022
547 213601 CLAUDIA GONCALVES CALIXTO ASSESSOR PROCURADOR JUSTICA BELO HORIZONTE - COMARCA; PROC. JUSTICA DIR. DIFUSOS E COLETIVOS-SEC 0,00 0,00 7.857,77 3.928,88 0,00 0,00 0,00 1.911,00 13.697,65 1.581,29 2.154,63 0,00 0,00 3.735,92 9.961,73 31/12/2022
548 480400 CLAUDIA GOULART DE SOUZA OFICIAL DO MP PASSOS - COMARCA; PASSOS-PJ-06PJ 9.378,86 2.813,66 0,00 4.825,67 4.064,17 0,00 0,00 1.911,00 22.993,36 1.744,02 5.125,61 0,00 0,00 6.869,63 16.123,73 31/12/2022
549 519800 CLAUDIA HELENA CORREA DE ALMEIDA ANALISTA DO MP BELO HORIZONTE - COMARCA; BH-12PJ JUIZO CRIMINAL-GAB 096PJ 11.008,33 2.201,67 0,00 6.771,11 4.403,33 0,00 0,00 1.911,00 26.295,44 1.906,81 5.688,95 0,00 0,00 7.595,76 18.699,68 31/12/2022
550 422100 CLAUDIA IACOMINI CABRAL ANALISTA DO MP BELO HORIZONTE - COMARCA; CENT DE APOIO TEC-SETOR DEF,IDOSO E INFANC 15.659,55 10.961,70 0,00 9.258,01 8.873,75 0,00 488,06 7.235,25 52.476,32 4.052,61 13.114,32 0,00 0,00 17.166,93 35.309,39 31/12/2022
551 258200 CLAUDIA LAGE MICHALAROS ANALISTA DO MP BELO HORIZONTE - COMARCA; CENTRAL DE APOIO TECN-SETOR DE MEIO AMBIENTE 20.574,59 14.402,22 0,00 21.836,97 13.455,44 5.389,50 0,00 1.911,00 77.569,72 5.389,50 21.198,77 0,00 0,00 26.588,27 50.981,45 31/12/2022
552 284600 CLAUDIA LENI DE FREITAS OFICIAL DO MP CONTAGEM - COMARCA; CONTAGEM-PJ-SECRETARIA 6.694,66 2.677,86 0,00 4.686,26 3.555,11 1.292,82 0,00 1.911,00 20.817,71 1.292,82 4.393,82 0,00 0,00 5.686,64 15.131,07 31/12/2022
553 433600 CLAUDIA LUIZA SANTIAGO FELICIO ANALISTA DO MP BELO HORIZONTE - COMARCA; CENT DE APOIO TEC-SETOR DEF,IDOSO E INFANC 15.659,55 3.131,91 0,00 15.991,61 6.263,82 0,00 482,31 7.172,61 48.701,81 2.799,85 8.570,67 0,00 0,00 11.370,52 37.331,29 31/12/2022
554 317000 CLAUDIA MACHADO ALVES OFICIAL DO MP BELO HORIZONTE - COMARCA; DIR GOVERNANCA TECNOLOGIA INFORMACAO 10.661,25 3.198,38 3.585,64 7.346,95 5.815,09 0,00 0,00 1.911,00 32.518,31 2.010,75 8.349,41 0,00 0,00 10.360,16 22.158,15 31/12/2022
555 155300 CLAUDIA MACIEL MIRANDA OFICIAL DO MP CONGONHAS - COMARCA; CONGONHAS-PJ-02PJ 19.037,29 9.518,65 0,00 14.936,72 9.518,65 0,00 0,00 1.911,00 54.922,31 4.362,16 13.976,94 0,00 0,00 18.339,10 36.583,21 31/12/2022
556 242200 CLAUDIA MICHELLE DIAS MUNIZ BALEEIRO OFICIAL DO MP MONTE AZUL - COMARCA; MONTE AZUL-PJ-SECRETARIA 14.224,47 5.689,79 0,00 6.977,63 6.638,09 0,00 0,00 1.911,00 35.440,98 2.979,50 9.296,60 0,00 0,00 12.276,10 23.164,88 31/12/2022
557 623000 CLAUDIA PATRICIA SILVA RODRIGUES RAPOSEIRAS OFICIAL DO MP BELO HORIZONTE - COMARCA; DIVISÃO DE EDUCAÇÃO PARA O CONSUMO 6.694,66 669,47 0,00 2.826,66 2.454,71 0,00 0,00 2.796,30 15.441,80 971,47 2.348,01 0,00 0,00 3.319,48 12.122,32 31/12/2022
558 418400 CLAUDIA REGINA MARTINS BONIFACIO OFICIAL DO MP ITUIUTABA - COMARCA; ITUIUTABA-PJ-06PJ 9.999,62 1.999,92 0,00 4.475,86 3.999,85 0,00 0,00 1.911,00 22.386,25 1.713,14 4.810,21 0,00 0,00 6.523,35 15.862,90 31/12/2022
559 498300 CLAUDIA SOUTO FARIAS BRAUN OFICIAL DO MP TEÓFILO OTONI - COMARCA; TEOFILO OTONI-PJ-SECRETARIA 6.694,66 1.338,93 0,00 3.947,00 2.677,86 0,00 0,00 1.911,00 16.569,45 1.078,59 2.614,39 0,00 0,00 3.692,98 12.876,47 31/12/2022
560 206500 CLAUDIA VALERIA FONSECA ANDRADE ANALISTA DO MP BELO HORIZONTE - COMARCA; BH-23PJ INF-FISC MED SOC FEC 20.574,59 10.287,30 0,00 15.430,94 11.864,34 4.731,12 0,00 1.911,00 64.799,29 4.731,12 18.498,01 0,00 0,00 23.229,13 41.570,16 31/12/2022
561 277500 CLAUDIO ANTONIO BORGES BRUNSWICK ALVARES OFICIAL DO MP BELO HORIZONTE - COMARCA; BH-15PJ M AMB PAT HIST CULT-GAB 116PJ 11.008,33 3.302,50 0,00 5.072,46 4.770,28 0,00 0,00 1.911,00 26.064,57 2.082,95 6.298,44 0,00 0,00 8.381,39 17.683,18 31/12/2022
562 444800 CLAUDIO ARESIO DO CARMO ANALISTA DO MP SETE LAGOAS - COMARCA; SETE LAGOAS-PJ-01PJ 12.118,97 4.847,59 0,00 5.975,42 5.655,52 0,00 0,00 1.911,00 30.508,50 2.507,86 7.664,56 0,00 0,00 10.172,42 20.336,08 31/12/2022
563 545100 CLAUDIO HENRIQUE MACEDO DE SOUZA FRANSOZO ANALISTA DO MP OURO PRETO - COMARCA; OURO PRETO-PJ-03PJ 11.008,33 1.100,83 0,00 11.181,99 4.036,39 0,00 0,00 2.796,30 30.123,84 1.047,41 5.112,73 0,00 0,00 6.160,14 23.963,70 31/12/2022
564 353500 CLAUDIO HENRIQUE PEDRO DA ROCHA OFICIAL DO MP BELO HORIZONTE - COMARCA; DIVISAO TRANSPORTES 11.008,33 3.302,50 0,00 5.072,46 4.770,28 0,00 0,00 1.911,00 26.064,57 2.082,95 6.089,89 0,00 0,00 8.172,84 17.891,73 31/12/2022
565 265800 CLAUDIO KUPIDLOWSKY FERNANDES OFICIAL DO MP BELO HORIZONTE - COMARCA; SECRETARIA DO PROCON-MG 11.008,33 3.302,50 0,00 5.072,46 4.770,28 0,00 0,00 1.911,00 26.064,57 2.082,95 4.294,04 0,00 0,00 6.376,99 19.687,58 31/12/2022
566 193600 CLAUDIO LEITE FONTES OFICIAL DO MP ITUIUTABA - COMARCA; ITUIUTABA-PJ-02PJ 11.008,33 4.403,33 0,00 5.446,75 5.137,22 0,00 0,00 1.911,00 27.906,63 2.259,08 6.574,64 0,00 0,00 8.833,72 19.072,91 31/12/2022
567 329400 CLAUDIO MARCIO BERNARDES OFICIAL DO MP ITAÚNA - COMARCA; ITAUNA-PJ-03PJ 11.008,33 8.806,66 0,00 10.617,21 6.605,00 0,00 0,00 2.796,30 39.833,50 2.963,61 9.241,64 0,00 0,00 12.205,25 27.628,25 31/12/2022
568 270200 CLAUDIO RABELO ALVES OFICIAL DO MP FORMIGA - COMARCA; FORMIGA-PJ-03PJ 13.341,69 4.002,51 0,00 6.898,58 5.781,40 0,00 0,00 1.911,00 31.935,18 2.568,29 7.612,96 0,00 0,00 10.181,25 21.753,93 31/12/2022
569 264700 CLAUDIO ROBERTO KFURI DE ARAUJO ANALISTA DO MP BELO HORIZONTE - COMARCA; CENTRAL DE APOIO TECNICO-SETOR DE INFORMATICA 20.574,59 6.172,38 0,00 9.300,75 8.915,66 0,00 0,00 1.911,00 46.874,38 4.072,73 12.975,37 0,00 0,00 17.048,10 29.826,28 31/12/2022
570 188600 CLAUDIO SALES OFICIAL DO MP NEPOMUCENO - COMARCA; NEPOMUCENO-PJ-SECRETARIA 16.695,70 13.356,56 0,00 10.424,55 10.017,42 0,00 0,00 2.796,30 53.290,53 4.601,58 15.013,95 0,00 0,00 19.615,53 33.675,00 31/12/2022
571 543300 CLAUDIO SILVA DE CARVALHO ANALISTA DO MP CAMPO BELO - COMARCA; CAMPO BELO-PJ-03PJ 10.325,15 1.032,52 0,00 3.901,84 3.785,89 0,00 0,00 1.911,00 20.956,40 1.610,44 4.559,10 0,00 0,00 6.169,54 14.786,86 31/12/2022
572 160700 CLAUDIO VICENTE HESS ASSESSOR DE GABINETE I BELO HORIZONTE - COMARCA; CENTRAL DE APOIO TECNICO-SETOR DE INFORMATICA 0,00 8.084,74 16.169,47 12.127,10 8.084,74 0,00 0,00 1.911,00 46.377,05 1.656,76 13.526,82 0,00 0,00 15.183,58 31.193,47 31/12/2022
573 312900 CLAUDIO VIEIRA FIRPE OFICIAL DO MP BELO HORIZONTE - COMARCA; DIR RELACOES INSTITUCIONAIS 11.008,33 3.302,50 0,00 5.072,46 4.770,28 0,00 0,00 1.911,00 26.064,57 2.082,95 6.298,44 0,00 0,00 8.381,39 17.683,18 31/12/2022
574 634100 CLEA CRISTINA GUERRA DE FREITAS COSTA OFICIAL DO MP BELO HORIZONTE - COMARCA; BH-18PJ VIOLENCIA DOMESTICA-SECRETARIA 6.483,63 648,36 0,00 6.093,07 2.377,33 0,00 0,00 1.911,00 17.513,39 934,33 2.219,48 0,00 0,00 3.153,81 14.359,58 31/12/2022
575 459200 CLEIA ZILLE PEREIRA ANALISTA DO MP BELO HORIZONTE - COMARCA; BH-07PJ 01 TRIBUNAL DO JURI-GAB 059PJ 11.008,33 2.201,67 0,00 4.698,19 4.403,33 0,00 0,00 3.238,95 25.550,47 1.906,81 5.688,95 0,00 0,00 7.595,76 17.954,71 31/12/2022
576 481800 CLEIDE CARDOSO DA SILVA ANALISTA DO MP MANHUAÇU - COMARCA; MANHUACU-PJ-04PJ 11.008,33 2.201,67 0,00 4.698,19 4.403,33 0,00 0,00 1.911,00 24.222,52 1.906,81 5.480,40 0,00 0,00 7.387,21 16.835,31 31/12/2022
577 347600 CLEIDIMAR DE OLIVEIRA SILVA OFICIAL DO MP PATOS DE MINAS - COMARCA; PATOS DE MINAS-PJ-03PJ 10.661,25 3.198,38 0,00 4.919,06 4.619,88 0,00 0,00 1.911,00 25.309,57 2.010,75 5.631,53 0,00 0,00 7.642,28 17.667,29 31/12/2022
578 396500 CLEIDISON BATISTA DE ANDRADE OFICIAL DO MP RESPLENDOR - COMARCA; RESPLENDOR-PJ-UNPJ 9.684,23 1.936,85 0,00 4.157,95 3.873,69 0,00 0,00 1.911,00 21.563,72 1.652,59 4.600,67 0,00 0,00 6.253,26 15.310,46 31/12/2022
579 535100 CLEISON ALVES DA SILVA ANALISTA DO MP BOA ESPERANÇA - COMARCA; BOA ESPERANCA-PJ-01PJ 11.008,33 1.100,83 0,00 4.203,66 4.036,39 0,00 0,00 1.911,00 22.260,21 1.730,68 4.870,90 0,00 0,00 6.601,58 15.658,63 31/12/2022
580 298100 CLEONICE AUGUSTA BARROS DE OLIVEIRA ANALISTA DO MP JUIZ DE FORA - COMARCA; JUIZ DE FORA-PJ-08PJ 20.574,59 6.172,38 0,00 9.300,75 8.915,66 0,00 0,00 1.911,00 46.874,38 4.072,73 13.183,92 0,00 0,00 17.256,65 29.617,73 31/12/2022
581 264100 CLETO HENRIQUE ANDRADE SILVA ANALISTA DO MP BELO HORIZONTE - COMARCA; DIRETORIA DE SISTEMAS DE INFORMACAO 20.574,59 6.172,38 0,00 9.300,75 17.831,32 0,00 0,00 1.911,00 55.790,04 4.072,73 15.427,17 0,00 0,00 19.499,90 36.290,14 31/12/2022
582 334400 CLEUBA DE OLIVEIRA BARCELOS GONCALVES OFICIAL DO MP DIVINÓPOLIS - COMARCA; COORD REG SAUDE MACRORREGIAO SANITARIA OESTE 11.008,33 3.302,50 0,00 7.334,53 4.770,28 0,00 0,00 1.911,00 28.326,64 2.082,95 6.194,17 0,00 0,00 8.277,12 20.049,52 31/12/2022
583 347500 CLEUSA CORDEIRO DA MATA PIMENTA OFICIAL DO MP CAMPO BELO - COMARCA; CAMPO BELO-PJ-01PJ 11.008,33 8.806,67 0,00 9.907,50 7.592,87 2.963,61 0,00 1.911,00 42.189,98 2.963,61 11.143,30 0,00 0,00 14.106,91 28.083,07 31/12/2022
584 510200 CLEZIO SALES SILVA OFICIAL DO MP BRASÓPOLIS - COMARCA; BRASOPOLIS-PJ-UNPJ 6.694,66 1.338,93 0,00 3.999,14 2.677,86 0,00 0,00 3.771,84 18.482,43 1.078,59 2.822,95 0,00 0,00 3.901,54 14.580,89 31/12/2022
585 323000 CLOTILDE DE PADUA VIEIRA OFICIAL DO MP BELO HORIZONTE - COMARCA; BH-19PJ SAUDE-SECRETARIA 129PJ 9.999,62 2.999,89 0,00 4.626,61 4.333,17 0,00 0,00 1.911,00 23.870,29 1.873,14 5.572,40 0,00 0,00 7.445,54 16.424,75 31/12/2022
586 285200 CLOVIS ANDRE LUDTKE OFICIAL DO MP BELO HORIZONTE - COMARCA; DIVISAO DE MANUTENCAO PREDIAL 11.366,79 3.410,04 0,00 5.463,90 4.925,61 0,00 0,00 1.911,00 27.077,34 2.157,51 6.556,45 0,00 0,00 8.713,96 18.363,38 31/12/2022
587 381100 CONCEICAO APARECIDA TEIXEIRA ARANTES ANALISTA DO MP BELO HORIZONTE - COMARCA; BH-23PJ INFRACIONAL-ASS JURIDICA 16.944,07 3.388,81 0,00 7.890,68 6.777,63 0,00 4.704,84 8.489,51 48.195,54 3.715,75 10.494,65 0,00 0,00 14.210,40 33.985,14 31/12/2022
588 249900 CONSTANTINO CEZAR GOMES MOTA OFICIAL DO MP MONTES CLAROS - COMARCA; COORD REG BACIA RIOS VERDE GRANDE E PARDO 11.008,33 3.302,50 0,00 5.072,46 4.770,28 0,00 0,00 3.681,60 27.835,17 2.082,95 6.089,89 0,00 0,00 8.172,84 19.662,33 31/12/2022
589 481000 CRISHMA ANALIA LOMBELLO ANALISTA DO MP JUIZ DE FORA - COMARCA; JUIZ DE FORA-PJ-13PJ 11.008,33 2.201,67 0,00 11.303,19 4.403,33 0,00 0,00 1.911,00 30.827,52 1.906,81 5.584,67 0,00 0,00 7.491,48 23.336,04 31/12/2022
590 523900 CRISTHYANE BAZOLI COSTA GUEDES COUTO OFICIAL DO MP BELO HORIZONTE - COMARCA; BH-04PJ JUIZO REG PÚBLICOS-SECRETARIA 8.377,76 1.675,55 0,00 3.624,91 3.351,10 0,00 0,00 1.911,00 18.940,32 1.401,74 3.941,19 0,00 0,00 5.342,93 13.597,39 31/12/2022
591 187000 CRISTIAN DAYVSON EVANGELISTA OFICIAL DO MP JUIZ DE FORA - COMARCA; JUIZ DE FORA-PJ-13PJ 16.695,70 6.678,28 0,00 9.733,94 8.317,99 0,00 1.580,00 1.911,00 44.916,91 3.533,05 12.225,97 0,00 0,00 15.759,02 29.157,89 31/12/2022
592 682100 CRISTIAN TRISTAO DE ANDRADE ASSESSOR PROMOTOR JUSTICA TRÊS CORACOES - COMARCA; TRES CORACOES-PJ-04PJ 0,00 0,00 7.857,77 3.928,88 2.619,26 0,00 0,00 1.911,00 16.316,91 1.656,76 3.214,31 0,00 0,00 4.871,07 11.445,84 31/12/2022
593 319800 CRISTIANA GONCALVES DOS SANTOS GUSMAO OFICIAL DO MP PARAOPEBA - COMARCA; PARAOPEBA-PJ-UNPJ 11.008,33 3.302,50 0,00 5.072,46 9.540,56 0,00 0,00 1.911,00 30.834,85 2.082,95 7.610,27 0,00 0,00 9.693,22 21.141,63 31/12/2022
594 520600 CRISTIANA JANAINA BARBOZA JUVENCIO DOS SANTOS ANALISTA DO MP BELO HORIZONTE - COMARCA; BH-02PJ FAMILIA-SECRETARIA 11.008,33 2.201,67 0,00 4.698,19 4.403,33 0,00 0,00 1.911,00 24.222,52 1.906,81 5.688,95 0,00 0,00 7.595,76 16.626,76 31/12/2022
595 195600 CRISTIANA SOARES HALABI OFICIAL DO MP UBERABA - COMARCA; UBERABA-PJ-01PJ 17.614,89 7.045,96 0,00 8.591,47 8.220,28 0,00 0,00 1.911,00 43.383,60 3.738,95 12.028,90 0,00 0,00 15.767,85 27.615,75 31/12/2022
596 218900 CRISTIANE ALVES BELLES OFICIAL DO MP JUIZ DE FORA - COMARCA; JUIZ DE FORA-PJ-10PJ 6.694,66 2.677,86 0,00 3.393,44 3.124,17 0,00 0,00 3.238,95 19.129,08 1.292,82 3.355,71 0,00 0,00 4.648,53 14.480,55 31/12/2022
597 263600 CRISTIANE CARVALHO COUTINHO OFICIAL DO MP BELO HORIZONTE - COMARCA; BH-23PJ INFRACIONAL-SEC EXP 11.736,91 3.521,07 0,00 5.394,50 5.085,99 0,00 0,00 1.911,00 27.649,47 2.234,49 6.718,57 0,00 0,00 8.953,06 18.696,41 31/12/2022
598 541000 CRISTIANE COELHO ALVES OFICIAL DO MP ITABIRA - COMARCA; ITABIRA-PJ-03PJ 6.694,66 669,47 0,00 2.602,62 2.454,71 0,00 0,00 1.911,00 14.332,46 971,47 2.348,01 0,00 0,00 3.319,48 11.012,98 31/12/2022
599 441700 CRISTIANE CORRADO DE ANDRADE ANALISTA DO MP BELO HORIZONTE - COMARCA; DIRETORIA DE SISTEMAS DE INFORMACAO 15.659,55 3.131,91 3.585,64 10.181,52 7.459,03 0,00 492,30 7.281,50 47.791,45 2.799,85 11.080,00 0,00 0,00 13.879,85 33.911,60 31/12/2022
600 375100 CRISTIANE DAS DORES ERCIO DE LIMA OFICIAL DO MP GOVERNADOR VALADARES - COMARCA; GOVERNADOR VALADARES-PJ-12PJ 10.325,15 2.065,03 0,00 4.987,22 4.130,06 0,00 0,00 1.911,00 23.418,46 1.775,64 5.235,04 0,00 0,00 7.010,68 16.407,78 31/12/2022
601 178800 CRISTIANE DE LIMA HOSKEN OFICIAL DO MP BELO HORIZONTE - COMARCA; BH-14PJ DEFESA CONSUMIDOR-GAB 110PJ 18.312,36 7.324,94 0,00 8.923,47 8.545,77 0,00 0,00 1.911,00 45.017,54 3.895,18 12.465,26 0,00 0,00 16.360,44 28.657,10 31/12/2022
602 494000 CRISTIANE DE MELO MARQUEZ OLIVEIRA ANALISTA DO MP UBERLÂNDIA - COMARCA; UBERLANDIA-PJ-06PJ 13.341,69 2.668,34 0,00 5.650,19 5.336,68 0,00 0,00 2.796,30 29.793,20 2.354,82 7.239,23 0,00 0,00 9.594,05 20.199,15 31/12/2022
603 266100 CRISTIANE DE OLIVEIRA CASTRO OFICIAL DO MP BELO HORIZONTE - COMARCA; BH-14PJ DEFESA CONSUMIDOR-SECRETARIA 14.224,47 5.689,79 0,00 8.478,85 14.329,50 0,00 1.580,00 1.911,00 46.213,61 2.979,50 12.176,46 0,00 0,00 15.155,96 31.057,65 31/12/2022
604 329500 CRISTIANE DOS REIS SILVA OFICIAL DO MP ARAXÁ - COMARCA; ARAXA-PJ-04PJ 11.008,33 3.302,50 0,00 5.072,46 4.770,28 0,00 0,00 1.911,00 26.064,57 2.082,95 6.089,89 0,00 0,00 8.172,84 17.891,73 31/12/2022
605 301600 CRISTIANE GODINHO PIRES ANALISTA DO MP BETIM - COMARCA; BETIM-PJ-06PJ 20.574,59 6.172,38 0,00 9.300,75 8.915,66 0,00 0,00 1.911,00 46.874,38 4.072,73 13.183,92 0,00 0,00 17.256,65 29.617,73 31/12/2022
606 406100 CRISTIANE GONCALVES CHAVES ANALISTA DO MP BELO HORIZONTE - COMARCA; BH-14PJ DEFESA CONSUMIDOR-GAB 112PJ 16.169,47 4.850,84 0,00 7.353,69 7.006,77 0,00 0,00 1.911,00 37.291,77 3.156,46 10.013,26 0,00 0,00 13.169,72 24.122,05 31/12/2022
607 487600 CRISTIANE LOPES DE OLIVEIRA OFICIAL DO MP DIVINÓPOLIS - COMARCA; DIVINOPOLIS-PJ-03PJ 7.857,77 1.571,55 0,00 8.127,42 3.143,11 0,00 0,00 1.911,00 22.610,85 1.301,90 3.595,71 0,00 0,00 4.897,61 17.713,24 31/12/2022
608 502500 CRISTIANE MACIEL DE OLIVEIRA GOMES ANALISTA DO MP JUIZ DE FORA - COMARCA; JUIZ DE FORA-PJ-02PJ 11.008,33 2.201,67 0,00 4.698,19 4.403,33 0,00 0,00 2.796,30 25.107,82 1.906,81 5.688,95 0,00 0,00 7.595,76 17.512,06 31/12/2022
609 285500 CRISTIANE MAGALHAES LOURENCO ANALISTA DO MP BELO HORIZONTE - COMARCA; CENTRAL DE APOIO TECNICO-SETOR CONTABIL 20.574,59 6.172,38 0,00 9.810,08 8.915,66 0,00 0,00 1.911,00 47.383,71 4.072,73 13.079,65 0,00 0,00 17.152,38 30.231,33 31/12/2022
610 536500 CRISTIANE MICHELE DE SOUZA ANALISTA DO MP BARÃO DE COCAIS - COMARCA; BARAO DE COCAIS-PJ-UNPJ 11.008,33 1.100,83 0,00 4.203,66 4.036,39 0,00 0,00 1.911,00 22.260,21 1.730,68 4.870,90 0,00 0,00 6.601,58 15.658,63 31/12/2022
611 346600 CRISTIANE NOGUEIRA ANDRADE ANALISTA DO MP BELO HORIZONTE - COMARCA; CENTRAL DE APOIO TECNICO-SETOR CONTABIL 19.037,29 5.711,19 0,00 9.092,47 8.249,49 0,00 0,00 1.911,00 44.001,44 3.752,97 12.077,42 0,00 0,00 15.830,39 28.171,05 31/12/2022
612 234000 CRISTIANE OLIVEIRA TOSTES OFICIAL DO MP JUIZ DE FORA - COMARCA; JUIZ DE FORA-PJ-08PJ 16.169,47 4.850,84 0,00 7.353,69 7.006,77 0,00 0,00 2.796,30 38.177,07 3.156,46 10.013,26 0,00 0,00 13.169,72 25.007,35 31/12/2022
613 445800 CRISTIANE ORZIL COSTA OFICIAL DO MP SANTA LUZIA - COMARCA; SANTA LUZIA-PJ-05PJ 7.857,77 1.571,55 0,00 8.127,42 3.143,11 0,00 0,00 2.796,30 23.496,15 1.301,90 3.595,71 0,00 0,00 4.897,61 18.598,54 31/12/2022
614 616100 CRISTIANE PAES RODRIGUES MARCICANO ANALISTA DO MP CATAGUASES - COMARCA; CATAGUASES-PJ-05PJ 9.378,86 937,89 0,00 3.800,21 3.438,92 0,00 0,00 2.796,30 20.352,18 1.443,89 4.087,06 0,00 0,00 5.530,95 14.821,23 31/12/2022
615 612300 CRISTIANE RIBEIRO DOS REIS ARCANJO OFICIAL DO MP BELO HORIZONTE - COMARCA; DIRETORIA DE PAGAMENTO DE PESSOAL-DPAG 6.694,66 669,47 0,00 2.673,45 2.454,71 0,00 0,00 0,00 12.492,29 1.557,13 2.082,69 0,00 0,00 3.639,82 8.852,47 31/12/2022
616 257700 CRISTIANE RODRIGUES PAES NUNES ANALISTA DO MP BELO HORIZONTE - COMARCA; BH-22PJ PES COM DEF E IDOSOS-ORIENTACAO PSIC 20.574,59 6.172,38 0,00 9.300,75 8.915,66 0,00 0,00 2.796,30 47.759,68 4.072,73 13.079,65 0,00 0,00 17.152,38 30.607,30 31/12/2022
617 510800 CRISTIANE SANTOS FERNANDES ORNELES ANALISTA DO MP BELO HORIZONTE - COMARCA; BH-03PJ EMPRESARIAL-SECRETARIA 11.008,33 2.201,67 0,00 4.698,19 4.403,33 0,00 0,00 1.911,00 24.222,52 1.906,81 5.688,95 0,00 0,00 7.595,76 16.626,76 31/12/2022
618 535701 CRISTIANE SANTOS MIRANDA ANALISTA DO MP CONTAGEM - COMARCA; CONTAGEM-PJ-03PJ 8.932,15 893,22 0,00 3.547,41 3.275,12 0,00 0,00 1.911,00 18.558,90 1.365,27 3.814,99 0,00 0,00 5.180,26 13.378,64 31/12/2022
619 536200 CRISTIANO DE OLIVEIRA ANALISTA DO MP CONCEIÇÃO DO MATO DENTRO - COMARCA; CONCEICAO DO MATO DENTRO-PJ-UNPJ 11.008,33 1.100,83 0,00 4.323,90 4.036,39 0,00 0,00 3.681,60 24.151,05 1.730,68 4.975,17 0,00 0,00 6.705,85 17.445,20 31/12/2022
620 477400 CRISTIANO SOARES ELEUTERIO ANALISTA DO MP BELO HORIZONTE - COMARCA; GABINETE DE PROCURADOR DE JUSTIÇA - SALA 812 13.776,02 2.755,20 0,00 6.087,99 5.510,41 0,00 0,00 1.911,00 30.040,62 2.438,21 7.527,80 0,00 0,00 9.966,01 20.074,61 31/12/2022
621 449400 CRISTIANO TEIXEIRA RODRIGUES LANA ANALISTA DO MP BELO HORIZONTE - COMARCA; BH-18PJ VIOLENCIA DOMESTICA-SECRETARIA 12.118,97 2.423,79 0,00 5.380,55 4.847,59 0,00 0,00 1.911,00 26.681,90 2.120,06 6.426,85 0,00 0,00 8.546,91 18.134,99 31/12/2022
622 239400 CRISTINA DE FATIMA CRUZ E SILVA OFICIAL DO MP MONTE SANTO DE MINAS - COMARCA; MONTE SANTO DE MINAS-PJ-SECRETARIA 14.224,47 4.267,34 0,00 6.494,00 6.163,94 0,00 0,00 1.911,00 33.060,75 2.751,90 8.613,32 0,00 0,00 11.365,22 21.695,53 31/12/2022
623 544000 CRISTINA DE OLIVEIRA TERRA ANALISTA DO MP BELO HORIZONTE - COMARCA; BH-18PJ VIOLENCIA DOMESTICA-SECRETARIA 11.008,33 1.100,83 0,00 10.258,24 4.036,39 0,00 0,00 1.911,00 28.314,79 1.730,68 5.079,45 0,00 0,00 6.810,13 21.504,66 31/12/2022
624 356800 CRISTINA DE PINHO BARROSO OFICIAL DO MP SABINÓPOLIS - COMARCA; SABINOPOLIS-PJ-UNPJ 9.223,00 2.766,90 0,00 4.283,35 3.996,63 0,00 0,00 2.796,30 23.066,18 1.711,60 4.804,87 0,00 0,00 6.516,47 16.549,71 31/12/2022
625 649500 CRISTINA DO DIVINO ESPIRITO SANTOS OFICIAL DO MP DIVINÓPOLIS - COMARCA; DIVINOPOLIS-PJ-12PJ 5.889,39 588,94 0,00 3.201,06 2.159,44 0,00 0,00 1.911,00 13.749,83 832,79 1.960,17 0,00 0,00 2.792,96 10.956,87 31/12/2022
626 727100 CRISTINA DORNELLES CLARET ASSESSOR ADMINISTRATIVO III BELO HORIZONTE - COMARCA; CAO-MEIO AMBIENTE 0,00 0,00 9.684,23 4.035,10 0,00 0,00 0,00 1.911,00 15.630,33 1.229,47 2.122,87 0,00 0,00 3.352,34 12.277,99 31/12/2022
627 348201 CRISTINA MARIA DA SILVA ANALISTA DO MP ARAXÁ - COMARCA; ARAXA-PJ-06PJ 11.008,33 2.201,67 0,00 4.698,19 4.403,33 0,00 0,00 2.796,30 25.107,82 1.906,81 5.688,95 0,00 0,00 7.595,76 17.512,06 31/12/2022
628 434900 CRISTINA MELO DE MADUREIRA ANALISTA DO MP BELO HORIZONTE - COMARCA; BH-07PJ 01 TRIBUNAL JURI-SECRETARIA 15.659,55 3.131,91 0,00 9.759,98 6.263,82 0,00 0,00 1.911,00 36.726,26 2.799,85 8.779,21 0,00 0,00 11.579,06 25.147,20 31/12/2022
629 307700 CRISTINA TEIXEIRA MARQUES OFICIAL DO MP BELO HORIZONTE - COMARCA; CENTRAL DE APOIO TECNICO-SETOR CONTABIL 11.008,33 3.302,50 0,00 5.728,12 4.770,28 0,00 0,00 1.911,00 26.720,23 2.082,95 6.298,44 0,00 0,00 8.381,39 18.338,84 31/12/2022
630 265300 CRISTOVAO SANCHES DE MEDEIROS ANALISTA DO MP BELO HORIZONTE - COMARCA; DIRETORIA DE CONTABILIDADE 19.791,01 5.937,30 0,00 9.444,33 8.576,10 0,00 0,00 1.911,00 45.659,74 3.909,74 12.619,92 0,00 0,00 16.529,66 29.130,08 31/12/2022
631 349800 CROZEIR LUIZ DA SILVA OFICIAL DO MP UNAÍ - COMARCA; UNAI-PJ-SECRETARIA 10.661,25 3.198,38 0,00 4.919,06 4.619,88 0,00 0,00 3.472,29 26.870,86 2.010,75 5.944,35 0,00 0,00 7.955,10 18.915,76 31/12/2022
632 490500 CYNTHIA CRISTINA DE SOUZA OLIVEIRA VALENTE ANALISTA DO MP BELO HORIZONTE - COMARCA; BH-09PJ AUDITORIA MILITAR-SECRETARIA 11.008,33 2.201,67 0,00 6.771,11 4.403,33 0,00 0,00 1.911,00 26.295,44 1.906,81 5.688,95 0,00 0,00 7.595,76 18.699,68 31/12/2022
633 389800 CYNTHIA GARIGLIO DOS SANTOS OFICIAL DO MP PERDIZES - COMARCA; PERDIZES-PJ-SECRETARIA 9.684,23 1.936,85 0,00 4.609,20 3.873,69 0,00 0,00 1.911,00 22.014,97 1.652,59 4.496,39 0,00 0,00 6.148,98 15.865,99 31/12/2022
634 335101 CYNTHIA GONTIJO D ASSUNCAO ANALISTA DO MP BELO HORIZONTE - COMARCA; FEPDC-SECRETARIA EXECUTIVA 11.008,33 2.201,67 3.585,64 8.283,83 5.598,55 0,00 0,00 3.386,50 34.064,52 1.906,81 7.989,74 0,00 0,00 9.896,55 24.167,97 31/12/2022
635 269700 CYNTIA ROCHA CAVALCANTI OFICIAL DO MP UBERLÂNDIA - COMARCA; UBERLANDIA-PJ-06PJ 14.224,47 4.267,34 0,00 6.494,00 6.163,94 0,00 0,00 2.796,30 33.946,05 2.751,90 8.613,32 0,00 0,00 11.365,22 22.580,83 31/12/2022
636 278000 DAIRTON LOPES MARTINS FILHO COORDENADOR II BELO HORIZONTE - COMARCA; DIRETORIA DE SISTEMAS DE INFORMACAO 18.312,36 5.493,71 0,00 9.820,08 7.935,36 0,00 0,00 1.911,00 43.472,51 2.082,95 12.391,22 0,00 0,00 14.474,17 28.998,34 31/12/2022
637 392700 DALIANA CHAVES IBRAIM MARINHO OFICIAL DO MP ITAÚNA - COMARCA; ITAUNA-PJ-04PJ 8.113,66 1.622,73 0,00 8.385,35 3.245,46 0,00 0,00 1.911,00 23.278,20 1.351,04 3.765,72 0,00 0,00 5.116,76 18.161,44 31/12/2022
638 558101 DALLEY TASSIA SILVA ANALISTA DO MP MORADA NOVA DE MINAS - COMARCA; MORADA NOVA DE MINAS-PJ-UNPJ 10.325,15 1.032,52 0,00 9.689,94 3.785,89 0,00 0,00 2.796,30 27.629,80 1.610,44 4.454,82 0,00 0,00 6.065,26 21.564,54 31/12/2022
639 476700 DALTON DAUD ANALISTA DO MP ARAGUARI - COMARCA; ARAGUARI-PJ-05PJ 11.008,33 2.201,67 0,00 4.698,19 4.403,33 0,00 0,00 1.911,00 24.222,52 1.906,81 5.480,40 0,00 0,00 7.387,21 16.835,31 31/12/2022
640 426900 DANIEL ALVES DA SILVA OFICIAL DO MP BELO HORIZONTE - COMARCA; DIVISAO TRANSPORTES 6.694,66 1.338,93 0,00 6.955,00 2.677,86 0,00 0,00 1.911,00 19.577,45 1.078,59 2.614,39 0,00 0,00 3.692,98 15.884,47 31/12/2022
641 122000 DANIEL ANTONIO VIEIRA OFICIAL DO MP ENTRE-RIOS DE MINAS - COMARCA; ENTRE RIOS DE MINAS-PJ-SECRETARIA 11.008,33 8.806,67 0,00 16.851,39 6.605,00 0,00 0,00 1.911,00 45.182,39 2.963,61 8.928,82 0,00 0,00 11.892,43 33.289,96 31/12/2022
642 714000 DANIEL FERREIRA CAMARA ASSESSOR PROMOTOR JUSTICA RIBEIRÃO DAS NEVES - COMARCA; RIBEIRAO DAS NEVES-PJ-12PJ 0,00 0,00 7.857,77 3.928,88 2.619,26 0,00 0,00 1.911,00 16.316,91 1.656,76 3.214,31 0,00 0,00 4.871,07 11.445,84 31/12/2022
643 411000 DANIEL FERREIRA DA SILVA ANALISTA DO MP GOVERNADOR VALADARES - COMARCA; GOVERNADOR VALADARES-PJ-15PJ 15.659,55 4.697,87 0,00 8.061,11 6.785,81 0,00 149,29 5.752,84 41.106,47 3.050,40 9.229,14 0,00 0,00 12.279,54 28.826,93 31/12/2022
644 703500 DANIEL FILIPE DE DEUS SOARES ASSESSOR PROMOTOR JUSTICA ITABIRITO - COMARCA; ITABIRITO-PJ-02PJ 0,00 0,00 7.857,77 3.928,88 2.619,26 0,00 0,00 1.911,00 16.316,91 1.656,76 3.214,31 0,00 0,00 4.871,07 11.445,84 31/12/2022
645 309000 DANIEL GOMES DOS SANTOS ANALISTA DO MP POÇOS DE CALDAS - COMARCA; POCOS DE CALDAS-PJ-05PJ 19.791,01 5.937,30 0,00 8.954,41 8.576,10 0,00 0,00 1.911,00 45.169,82 3.909,74 12.619,92 0,00 0,00 16.529,66 28.640,16 31/12/2022
646 554500 DANIEL GOMES PEREIRA OFICIAL DO MP NANUQUE - COMARCA; NANUQUE-PJ-02PJ 6.694,66 669,47 0,00 2.710,59 2.454,71 0,00 0,00 1.911,00 14.440,43 971,47 2.452,29 0,00 0,00 3.423,76 11.016,67 31/12/2022
647 453000 DANIEL GONCALVES PEREIRA ANALISTA DO MP UNAÍ - COMARCA; UNAI-PJ-02PJ 11.008,33 2.201,67 0,00 4.698,19 4.403,33 0,00 0,00 4.124,25 26.435,77 1.906,81 5.688,95 0,00 0,00 7.595,76 18.840,01 31/12/2022
648 495500 DANIEL GUIMARAES CABRAL OFICIAL DO MP BELO HORIZONTE - COMARCA; BH-17PJ PATRIMONIO PUBLICO-SECRETARIA 8.113,66 1.622,73 0,00 3.517,15 3.245,46 0,00 0,00 2.796,30 19.295,30 1.351,04 3.765,72 0,00 0,00 5.116,76 14.178,54 31/12/2022
649 442900 DANIEL GUIMARAES GONCALVES ANALISTA DO MP UBERLÂNDIA - COMARCA; UBERLANDIA-PJ-03PJ 15.659,55 3.131,91 0,00 9.329,61 6.263,82 0,00 0,00 1.911,00 36.295,89 927,17 9.326,39 0,00 0,00 10.253,56 26.042,33 31/12/2022
650 655900 DANIEL LUIZ DA SILVA ASSESSOR ADMINISTRATIVO II BELO HORIZONTE - COMARCA; DIV FISCAL ADM CONT TERCEIRIZACAO 0,00 0,00 6.694,66 3.347,33 2.231,55 0,00 0,00 1.911,00 14.184,54 1.601,81 2.483,10 0,00 0,00 4.084,91 10.099,63 31/12/2022
651 464600 DANIEL PIACENTINI STIVANIN ANALISTA DO MP ANDRADAS - COMARCA; ANDRADAS-PJ-02PJ 11.008,33 2.201,67 0,00 4.698,19 4.403,33 0,00 532,80 7.723,40 30.567,72 1.906,81 5.688,95 0,00 0,00 7.595,76 22.971,96 31/12/2022
652 417000 DANIEL QUEIROZ FERREIRA ANALISTA DO MP PASSOS - COMARCA; PASSOS-PJ-06PJ 14.224,47 2.844,89 0,00 7.607,51 5.689,79 0,00 0,00 2.796,30 33.162,96 927,17 8.292,41 0,00 0,00 9.219,58 23.943,38 31/12/2022
653 396700 DANIEL SILVA CARNEVALLI SUPERINTENDENTE BELO HORIZONTE - COMARCA; SUPERINTENDENCIA DE TECNOLOGIA DA INFORMACAO 24.982,93 4.996,59 0,00 12.092,01 9.993,17 0,00 0,00 2.796,30 54.861,00 2.897,75 15.904,38 0,00 0,00 18.802,13 36.058,87 31/12/2022
654 489300 DANIEL TABOZA ROCHA ANALISTA DO MP IPATINGA - COMARCA; IPATINGA-PJ-08PJ 11.008,33 2.201,67 0,00 5.677,83 4.403,33 0,00 0,00 2.796,30 26.087,46 927,17 5.975,19 0,00 0,00 6.902,36 19.185,10 31/12/2022
655 414100 DANIEL TARDELI VALADAO ANALISTA DO MP TRÊS CORACOES - COMARCA; TRES CORACOES-PJ-02PJ 15.659,55 3.131,91 0,00 9.329,61 6.263,82 0,00 0,00 3.681,60 38.066,49 927,17 8.909,29 0,00 0,00 9.836,46 28.230,03 31/12/2022
656 731800 DANIEL VASCONCELOS ARAUJO SILVA ASSESSOR ADMINISTRATIVO IV BELO HORIZONTE - COMARCA; DIRETORIA DE REDES E BANCOS DE DADOS 0,00 0,00 12.920,95 1.076,75 0,00 0,00 0,00 1.911,00 15.908,70 909,13 2.822,67 0,00 0,00 3.731,80 12.176,90 31/12/2022
657 446601 DANIEL VIEIRA BUENO ANALISTA DO MP SÃO DOMINGOS DO PRATA - COMARCA; SAO DOMINGOS DO PRATA-PJ-UNPJ 11.008,33 1.100,83 0,00 4.878,69 4.036,39 0,00 0,00 2.796,30 23.820,54 1.730,68 4.975,17 0,00 0,00 6.705,85 17.114,69 31/12/2022
658 253200 DANIELA BATISTA LIMA BARBOSA ASSESSOR ADMINISTRATIVO II BELO HORIZONTE - COMARCA; CENTRAL DE APOIO TECN-SETOR DE MEIO AMBIENTE 0,00 2.008,40 6.694,66 5.413,81 2.901,02 0,00 0,00 1.911,00 18.928,89 1.656,76 3.756,71 0,00 0,00 5.413,47 13.515,42 31/12/2022
659 505800 DANIELA BORGES DE MATTOS RESENDE ANALISTA DO MP JUIZ DE FORA - COMARCA; JUIZ DE FORA-PJ-20PJ 11.008,33 2.201,67 0,00 6.771,11 4.403,33 0,00 0,00 1.911,00 26.295,44 1.906,81 5.688,95 0,00 0,00 7.595,76 18.699,68 31/12/2022
660 478000 DANIELA CARVALHO SOARES ANALISTA DO MP SÃO JOÃO DEL REI - COMARCA; SAO JOAO DEL REI-PJ-01PJ 11.008,33 2.201,67 0,00 6.771,11 4.403,33 0,00 0,00 1.911,00 26.295,44 1.906,81 5.688,95 0,00 0,00 7.595,76 18.699,68 31/12/2022
661 275900 DANIELA CHAGAS SODRE ANALISTA DO MP BELO HORIZONTE - COMARCA; CENTRAL DE APOIO TECNICO-SETOR CONTABIL 20.574,59 6.172,38 0,00 9.810,08 8.915,66 0,00 0,00 1.911,00 47.383,71 4.072,73 13.079,65 0,00 0,00 17.152,38 30.231,33 31/12/2022
662 234301 DANIELA CRUZ SOARES ANALISTA DO MP BELO HORIZONTE - COMARCA; LABORATORIO TECNOLOGIA INTELIGENCIA 20.574,59 6.172,38 0,00 9.300,75 8.915,66 0,00 0,00 1.911,00 46.874,38 4.072,73 13.183,92 0,00 0,00 17.256,65 29.617,73 31/12/2022
663 638000 DANIELA DE ALMEIDA BATISTA ANALISTA DO MP ANDRELÂNDIA - COMARCA; ANDRELANDIA-PJ-UNPJ 9.999,62 999,96 0,00 4.999,76 3.666,53 0,00 0,00 2.796,30 22.462,17 927,17 4.809,40 0,00 0,00 5.736,57 16.725,60 31/12/2022
664 301000 DANIELA DE ALMEIDA E OLIVEIRA ANALISTA DO MP BELO HORIZONTE - COMARCA; DIRETORIA DE SISTEMAS DE INFORMACAO 20.574,59 6.172,38 0,00 9.810,08 8.915,66 0,00 0,00 1.911,00 47.383,71 4.072,73 13.183,92 0,00 0,00 17.256,65 30.127,06 31/12/2022
665 296000 DANIELA DE AZEVEDO SILVA ANALISTA DO MP BRASÓPOLIS - COMARCA; BRASOPOLIS-PJ-UNPJ 20.574,59 8.229,84 0,00 10.000,29 9.601,48 0,00 0,00 1.911,00 50.317,20 4.401,92 14.323,07 0,00 0,00 18.724,99 31.592,21 31/12/2022
666 453500 DANIELA DE CASTRO SOUSA BARBOSA ANALISTA DO MP BELO HORIZONTE - COMARCA; BH-08PJ JUIZADO ESPECIAL-SECRETARIA 11.736,91 2.347,38 0,00 4.995,44 4.694,76 0,00 0,00 1.911,00 25.685,49 2.046,70 6.173,02 0,00 0,00 8.219,72 17.465,77 31/12/2022
667 506000 DANIELA DE OLIVEIRA CAVALIERI ANALISTA DO MP BELO HORIZONTE - COMARCA; BH-14PJ DEFESA CONSUMIDOR-GAB 005PJ 11.008,33 2.201,67 0,00 4.698,19 4.403,33 0,00 0,00 1.911,00 24.222,52 1.906,81 5.688,95 0,00 0,00 7.595,76 16.626,76 31/12/2022
668 546200 DANIELA DE VILHENA LEMES GONCALVES OFICIAL DO MP TRÊS CORACOES - COMARCA; TRES CORACOES-PJ-05PJ 6.694,66 669,47 0,00 2.602,62 2.454,71 0,00 0,00 1.911,00 14.332,46 971,47 2.243,74 0,00 0,00 3.215,21 11.117,25 31/12/2022
669 356400 DANIELA LEAL FERRAZ ANALISTA DO MP MONTES CLAROS - COMARCA; COORD REG PJ DEF EDUC DIR CRIANCA ADOL NORTE 16.695,70 5.008,71 0,00 7.586,28 7.234,80 0,00 0,00 1.911,00 38.436,49 3.265,92 10.392,01 0,00 0,00 13.657,93 24.778,56 31/12/2022
670 501000 DANIELA LOURENCO SANTOS DA SILVA GUIMARAES ANALISTA DO MP BELO HORIZONTE - COMARCA; BH-12PJ JUIZO CRIMINAL-GAB 095PJ 11.008,33 2.201,67 0,00 4.698,19 4.403,33 0,00 0,00 1.911,00 24.222,52 1.906,81 5.584,67 0,00 0,00 7.491,48 16.731,04 31/12/2022
671 195801 DANIELA MARIA DE OLIVEIRA QUEIROZ ANALISTA DO MP ARAGUARI - COMARCA; ARAGUARI-PJ-06PJ 15.659,55 6.263,82 0,00 7.660,73 7.307,79 0,00 0,00 1.911,00 38.802,89 3.300,95 10.513,26 0,00 0,00 13.814,21 24.988,68 31/12/2022
672 511400 DANIELA MARIA LARA DE OLIVEIRA ANALISTA DO MP BOA ESPERANÇA - COMARCA; BOA ESPERANCA-PJ-02PJ 11.008,33 2.201,67 0,00 6.745,04 4.403,33 0,00 0,00 2.796,30 27.154,67 1.906,81 5.584,67 0,00 0,00 7.491,48 19.663,19 31/12/2022
673 252101 DANIELA PAULA ALVES PENA ANALISTA DO MP CONTAGEM - COMARCA; CONTAGEM-PJ-APO TECNICO 16.695,70 6.678,28 0,00 8.522,30 7.791,33 0,00 0,00 1.911,00 41.598,61 3.533,05 11.316,41 0,00 0,00 14.849,46 26.749,15 31/12/2022
674 604700 DANIELA PEIXOTO NOGUEIRA COORDENADOR II BELO HORIZONTE - COMARCA; DIRET DE FORMACAO, APERFEIC. E POS-GRADUACAO 18.312,36 1.831,24 0,00 11.787,56 6.714,53 0,00 0,00 2.796,30 41.441,99 971,47 10.652,45 0,00 0,00 11.623,92 29.818,07 31/12/2022
675 662000 DANIELA RIBAS DE AVILA ASSESSOR ADMINISTRATIVO III BELO HORIZONTE - COMARCA; CENTRO AUTOCOMPOSICAO DE CONFLITOS 0,00 0,00 9.684,23 4.842,11 3.228,08 0,00 0,00 1.911,00 19.665,42 1.656,76 4.386,30 0,00 0,00 6.043,06 13.622,36 31/12/2022
676 462000 DANIELA SOUSA GOMES DO AMARAL ANALISTA DO MP BETIM - COMARCA; BETIM-PJ-04PJ 12.118,97 2.423,79 0,00 7.484,79 4.847,59 0,00 0,00 1.911,00 28.786,14 2.120,06 6.426,85 0,00 0,00 8.546,91 20.239,23 31/12/2022
677 427000 DANIELA TEIXEIRA DINIZ ANDRADE ANALISTA DO MP BELO HORIZONTE - COMARCA; DIRETORIA DE PROJETOS DE EDIFICACOES 11.366,79 2.273,36 3.585,64 8.645,15 5.741,93 0,00 0,00 1.911,00 33.523,87 1.975,64 8.123,62 0,00 0,00 10.099,26 23.424,61 31/12/2022
678 337200 DANIELA TOLEDO SENIUK ANALISTA DO MP BELO HORIZONTE - COMARCA; GABINETE DE PROCURADOR DE JUSTIÇA - SALA 412 20.574,59 6.172,38 0,00 14.915,65 8.915,66 0,00 0,00 1.911,00 52.489,28 4.072,73 13.183,92 0,00 0,00 17.256,65 35.232,63 31/12/2022
679 605600 DANIELE ALZIRA SILVA CABRAL MOREIRA OFICIAL DO MP BELO HORIZONTE - COMARCA; BH-10PJ EXECUÇÃO PENAL-SECRETARIA 6.694,66 669,47 0,00 2.710,59 4.909,42 0,00 0,00 1.911,00 16.895,14 971,47 3.127,33 0,00 0,00 4.098,80 12.796,34 31/12/2022
680 195500 DANIELE CHAVES FONSECA OFICIAL DO MP BELO HORIZONTE - COMARCA; EXTINTA-CGMP-DIV APOIO FISC ORIENT FUNCIONAL 18.312,36 7.324,94 0,00 9.411,69 8.545,77 0,00 0,00 1.911,00 45.505,76 3.895,18 12.569,53 0,00 0,00 16.464,71 29.041,05 31/12/2022
681 323400 DANIELE MEGALE SANTINI OFICIAL DO MP BELO HORIZONTE - COMARCA; EXTINTA-CGMP-DIV APOIO FISC ORIENT FUNCIONAL 12.118,97 3.635,69 0,00 5.811,71 5.251,55 0,00 0,00 1.911,00 28.728,92 2.313,96 6.993,57 0,00 0,00 9.307,53 19.421,39 31/12/2022
682 357900 DANIELE REJANE PINTO VERSIEUX OFICIAL DO MP PEDRO LEOPOLDO - COMARCA; PEDRO LEOPOLDO-PJ-03PJ 11.008,33 3.302,50 0,00 5.072,46 4.770,28 0,00 0,00 1.911,00 26.064,57 2.082,95 6.298,44 0,00 0,00 8.381,39 17.683,18 31/12/2022
683 389500 DANIELE VASCONCELOS AMORIM OFICIAL DO MP SÃO SEBASTIÃO DO PARAÍSO - COMARCA; SAO SEBASTIAO DO PARAISO-PJ-04PJ 9.999,62 1.999,92 0,00 4.286,63 3.999,85 0,00 0,00 1.911,00 22.197,02 1.713,14 5.018,76 0,00 0,00 6.731,90 15.465,12 31/12/2022
684 629700 DANIELLA BASTOS MARTINS BICALHO OFICIAL DO MP GOVERNADOR VALADARES - COMARCA; GOVERNADOR VALADARES-PJ-16PJ 6.483,63 648,36 0,00 6.197,66 2.377,33 0,00 0,00 1.911,00 17.617,98 934,33 2.323,76 0,00 0,00 3.258,09 14.359,89 31/12/2022
685 725500 DANIELLE CAMILE OLIVEIRA FONSECA ASSESSOR PROCURADOR JUSTICA BELO HORIZONTE - COMARCA; GABINETE DE PROCURADOR DE JUSTIÇA - SALA 501 0,00 0,00 7.857,77 3.928,89 0,00 0,00 0,00 1.911,00 13.697,66 1.214,60 1.606,90 0,00 0,00 2.821,50 10.876,16 31/12/2022
686 265000 DANIELLE CASTANHEIRA SCALABRINI OFICIAL DO MP BELO HORIZONTE - COMARCA; JUNTA RECURSAL DO PROCON ESTADUAL 11.008,33 3.302,50 0,00 5.072,46 4.770,28 0,00 0,00 1.911,00 26.064,57 2.082,95 6.194,17 0,00 0,00 8.277,12 17.787,45 31/12/2022
687 490100 DANIELLE DE AVILA SILVA LOPES ANALISTA DO MP BELO HORIZONTE - COMARCA; PROC. JUSTICA DIR. DIFUSOS E COLETIVOS-SEC 11.008,33 3.302,50 0,00 5.072,46 4.770,28 0,00 0,00 2.796,30 26.949,87 2.082,95 6.298,44 0,00 0,00 8.381,39 18.568,48 31/12/2022
688 711100 DANIELLE DOMINGOS LOPES DE MELO ASSESSOR PROCURADOR JUSTICA BELO HORIZONTE - COMARCA; GABINETE DE PROCURADOR DE JUSTIÇA - SALA 703 0,00 0,00 7.857,77 3.928,88 2.619,26 0,00 0,00 1.911,00 16.316,91 1.656,76 3.214,31 0,00 0,00 4.871,07 11.445,84 31/12/2022
689 549600 DANIELLE GOMES LOPES RODRIGUES OFICIAL DO MP VESPASIANO - COMARCA; VESPASIANO-PJ-02PJ 6.694,66 669,47 0,00 6.392,66 2.454,71 0,00 0,00 1.911,00 18.122,50 971,47 2.452,29 0,00 0,00 3.423,76 14.698,74 31/12/2022
690 613000 DANIELLE SILVA OLIVEIRA FRANKLIN ASSESSOR ADMINISTRATIVO IV BELO HORIZONTE - COMARCA; DIRETORIA DE ORCAMENTO-DIOR/SPC 12.920,95 1.292,10 0,00 13.203,21 4.737,68 0,00 0,00 2.796,30 34.950,24 1.009,84 6.693,96 0,00 479,78 8.183,58 26.766,66 31/12/2022
691 722800 DANIELLE VALENTIM SOUZA ASSESSOR PROCURADOR JUSTICA BELO HORIZONTE - COMARCA; GABINETE DE PROCURADOR DE JUSTIÇA - SALA 606 0,00 0,00 7.857,77 3.928,89 0,00 0,00 0,00 1.911,00 13.697,66 1.489,62 1.999,76 0,00 0,00 3.489,38 10.208,28 31/12/2022
692 380800 DANILLO RIBEIRO ANTUNES ANALISTA DO MP MONTES CLAROS - COMARCA; MONTES CLAROS-PJ-SECRETARIA 16.169,47 3.233,89 0,00 8.383,93 6.994,45 0,00 1.580,00 1.911,00 38.272,74 2.897,75 10.027,57 0,00 0,00 12.925,32 25.347,42 31/12/2022
693 453700 DANILO BOTELHO DE CARVALHO SUPERINTENDENTE BELO HORIZONTE - COMARCA; SUPERINTENDENCIA DE FINANCAS 24.982,93 4.996,59 0,00 12.465,45 9.993,17 0,00 0,00 1.911,00 54.349,14 2.524,31 16.063,85 0,00 0,00 18.588,16 35.760,98 31/12/2022
694 391200 DANILO D'AVILA MENDES ANALISTA DO MP MONTES CLAROS - COMARCA; GAECO REGIONAL DE MONTES CLAROS 16.169,47 3.233,89 0,00 6.803,93 6.467,79 0,00 0,00 2.796,30 35.471,38 2.897,75 9.118,00 0,00 0,00 12.015,75 23.455,63 31/12/2022
695 710900 DANILO DE SOUZA RODRIGUES ASSESSOR PROMOTOR JUSTICA IPANEMA - COMARCA; IPANEMA-PJ-01PJ 0,00 0,00 7.857,77 3.928,88 2.619,26 0,00 0,00 1.911,00 16.316,91 1.656,76 3.214,31 0,00 0,00 4.871,07 11.445,84 31/12/2022
696 494900 DANILO GAVIAO AVELINO DE MELLO ANALISTA DO MP POUSO ALEGRE - COMARCA; GAECO REGIONAL DE POUSO ALEGRE 11.008,33 2.201,67 0,00 6.771,11 4.403,33 0,00 0,00 1.911,00 26.295,44 1.906,81 5.688,95 0,00 0,00 7.595,76 18.699,68 31/12/2022
697 604300 DANILO NASCIMENTO SALGADO ANALISTA DO MP JANAÚBA - COMARCA; JANAUBA-PJ-01PJ 10.325,15 1.032,52 0,00 4.068,39 3.785,89 0,00 0,00 1.911,00 21.122,95 1.610,44 4.663,38 0,00 0,00 6.273,82 14.849,13 31/12/2022
698 298300 DANUZA MONICA DE SOUZA DINIZ ANALISTA DO MP BELO HORIZONTE - COMARCA; CAO-FUNDACOES-ASSESSORIA JURIDICA 19.791,01 5.937,30 0,00 9.444,33 8.576,10 0,00 0,00 1.911,00 45.659,74 3.909,74 12.515,65 0,00 0,00 16.425,39 29.234,35 31/12/2022
699 398700 DARCY LUIZ MILEO GREGATTI OFICIAL DO MP LAMBARI - COMARCA; LAMBARI-PJ-SECRETARIA 10.325,15 2.065,03 0,00 6.332,09 4.130,06 0,00 0,00 1.911,00 24.763,33 1.775,64 5.235,04 0,00 0,00 7.010,68 17.752,65 31/12/2022
700 406200 DARIANA AUGUSTA DE TOLEDO PATROCINIO RUIZ COORDENADOR II BELO HORIZONTE - COMARCA; DIRETORIA GESTAO COMPRAS LICITACOES 18.312,36 3.662,47 0,00 9.274,27 7.324,94 0,00 0,00 2.796,30 41.370,34 1.713,14 11.419,56 0,00 0,00 13.132,70 28.237,64 31/12/2022
701 586901 DARIO VITORINO DE CARVALHO SILVA ASSESSOR ADM. ESPECIAL BELO HORIZONTE - COMARCA; DIRETORIA DE SEGURANCA 0,00 0,00 24.982,93 24.982,93 8.327,64 0,00 0,00 1.911,00 60.204,50 1.656,76 14.098,68 0,00 0,00 15.755,44 44.449,06 31/12/2022
702 305000 DARLI LEITE DE OLIVEIRA OFICIAL DO MP ARAÇUAÍ - COMARCA; ARACUAI-PJ-01PJ 6.694,66 2.008,40 0,00 3.165,83 2.901,02 0,00 0,00 1.911,00 16.680,91 1.185,70 2.880,78 0,00 0,00 4.066,48 12.614,43 31/12/2022
703 729400 DAVI PIMENTA ASSESSOR PROMOTOR JUSTICA CANDEIAS - COMARCA; CANDEIAS-PJ-UNPJ 0,00 0,00 7.857,77 1.964,44 0,00 0,00 0,00 1.911,00 11.733,21 987,00 1.430,30 0,00 0,00 2.417,30 9.315,91 31/12/2022
704 122200 DAVID RIBEIRO DOS SANTOS ANALISTA DO MP BORDA DA MATA - COMARCA; BORDA DA MATA-PJ-UNPJ 20.574,59 18.517,14 0,00 17.731,11 13.643,13 5.467,17 0,00 1.911,00 77.844,14 5.467,17 21.850,07 3.629,51 0,00 30.946,75 46.897,39 31/12/2022
705 389400 DAWSON CANEDO MARQUES OFICIAL DO MP TRÊS CORACOES - COMARCA; TRES CORACOES-PJ-01PJ 11.008,33 2.201,67 0,00 5.303,42 4.403,33 0,00 0,00 2.796,30 25.713,05 1.906,81 4.889,03 0,00 0,00 6.795,84 18.917,21 31/12/2022
706 537200 DAYANE TEIXEIRA DE OLIVEIRA CASELLI ANALISTA DO MP BELO HORIZONTE - COMARCA; ASSESS TECNICO-JUR JUNTO AS PROC. DE JUST 9.223,00 922,30 0,00 3.816,15 3.381,77 0,00 0,00 1.911,00 19.254,22 1.416,46 3.992,13 0,00 0,00 5.408,59 13.845,63 31/12/2022
707 256100 DAYSE ROSALY PEREIRA BATISTA OFICIAL DO MP BELO HORIZONTE - COMARCA; BH-08PJ JUIZADO ESPECIAL-SECRETARIA 11.008,33 3.302,50 0,00 5.072,46 4.770,28 0,00 0,00 1.911,00 26.064,57 2.082,95 6.298,44 0,00 0,00 8.381,39 17.683,18 31/12/2022
708 311901 DEBORA APARECIDA DA SILVA ASSESSOR ADMINISTRATIVO I BELO HORIZONTE - COMARCA; BH-23PJ CIVEL-SETOR ATEND PUB 0,00 0,00 4.345,58 2.172,79 1.448,53 0,00 159,34 3.649,23 11.775,47 994,61 1.180,93 0,00 0,00 2.175,54 9.599,93 31/12/2022
709 194301 DEBORA APARECIDA DOS SANTOS ANALISTA DO MP UBERLÂNDIA - COMARCA; UBERLANDIA-PJ-SEC FAMILIA 20.574,59 8.229,84 0,00 10.000,29 9.601,48 0,00 0,00 1.911,00 50.317,20 4.401,92 14.323,07 0,00 0,00 18.724,99 31.592,21 31/12/2022
710 518800 DEBORA CARVALHO FIORATTO COORDENADOR II BELO HORIZONTE - COMARCA; DIRETORIA MATERIAIS E SERVICOS 18.312,36 3.662,47 0,00 9.533,30 7.324,94 0,00 8.580,74 1.911,00 49.324,81 1.454,11 13.187,98 0,00 0,00 14.642,09 34.682,72 31/12/2022
711 444900 DEBORA CLAUDIA PEREIRA ALVES ANALISTA DO MP BELO HORIZONTE - COMARCA; BH-08PJ JUIZADO ESPECIAL-SECRETARIA 11.736,91 2.347,38 0,00 7.239,28 4.694,76 0,00 0,00 1.911,00 27.929,33 2.046,70 6.173,02 0,00 0,00 8.219,72 19.709,61 31/12/2022
712 617700 DEBORA COMANDUCI SCHREIDER ANALISTA DO MP BICAS - COMARCA; BICAS-PJ-UNPJ 10.325,15 1.032,52 0,00 4.247,44 3.785,89 0,00 0,00 1.911,00 21.302,00 1.610,44 4.559,10 0,00 0,00 6.169,54 15.132,46 31/12/2022
713 555700 DEBORA CRISTINA BUITRAGO PEREIRA ANALISTA DO MP BELO HORIZONTE - COMARCA; DIRETORIA GESTAO CONTRATOS CONVENIOS 11.008,33 1.100,83 3.585,64 8.285,28 5.231,60 0,00 0,00 2.796,30 32.007,98 1.730,68 7.380,23 0,00 0,00 9.110,91 22.897,07 31/12/2022
714 513100 DEBORA CRISTINA PEREIRA DE OLIVEIRA ANALISTA DO MP BELO HORIZONTE - COMARCA; BH-23PJ CIVEL-SETOR JURIDICO 12.118,97 2.423,79 0,00 5.380,55 4.847,59 0,00 0,00 3.238,95 28.009,85 2.120,06 6.426,85 0,00 0,00 8.546,91 19.462,94 31/12/2022
715 612100 DEBORA DUARTE SILVA DE SOUZA OFICIAL DO MP RIBEIRÃO DAS NEVES - COMARCA; RIBEIRAO DAS NEVES-PJ-06PJ 6.694,66 2.008,40 0,00 3.121,94 2.901,02 0,00 0,00 1.911,00 16.637,02 1.185,70 2.985,06 0,00 0,00 4.170,76 12.466,26 31/12/2022
716 717500 DEBORA ENDREFFY ORSI PARENZI ASSESSOR PROMOTOR JUSTICA MATEUS LEME - COMARCA; MATEUS LEME-PJ-01PJ 0,00 0,00 7.857,77 3.928,88 0,00 0,00 0,00 1.911,00 13.697,65 1.581,29 2.154,63 0,00 0,00 3.735,92 9.961,73 31/12/2022
717 539700 DEBORA SALES CARVALHO ANALISTA DO MP PATOS DE MINAS - COMARCA; COORD REG PJ DEF EDU DIR CRI ADO AL PAR NOROE 11.008,33 1.100,83 0,00 5.127,41 4.036,39 0,00 0,00 1.911,00 23.183,96 1.047,41 5.112,73 0,00 0,00 6.160,14 17.023,82 31/12/2022
718 424100 DEBORA SANTOS E ALVES ANALISTA DO MP JANUÁRIA - COMARCA; JANUARIA-PJ-01PJ 16.169,47 3.233,89 0,00 7.109,88 6.467,79 0,00 0,00 2.796,30 35.777,33 2.897,75 9.118,00 0,00 0,00 12.015,75 23.761,58 31/12/2022
719 426301 DEBORA SCUCATO MACHADO SOARES OFICIAL DO MP ITABIRA - COMARCA; ITABIRA-PJ-SECRETARIA 6.694,66 1.338,93 0,00 6.955,00 2.677,86 0,00 0,00 2.796,30 20.462,75 1.078,59 2.822,95 0,00 0,00 3.901,54 16.561,21 31/12/2022
720 678100 DEBORA SOUZA COSTA ASSESSOR PROMOTOR JUSTICA BOTELHOS - COMARCA; BOTELHOS-PJ-UNPJ 0,00 0,00 7.857,77 7.857,77 2.619,26 0,00 0,00 1.911,00 20.245,80 1.656,76 3.110,05 0,00 0,00 4.766,81 15.478,99 31/12/2022
721 550200 DEBORA TRINDADE LEITE ANALISTA DO MP MANHUAÇU - COMARCA; MANHUACU-PJ-05PJ 11.008,33 1.100,83 0,00 4.699,64 4.036,39 0,00 0,00 1.911,00 22.756,19 1.730,68 4.870,90 0,00 0,00 6.601,58 16.154,61 31/12/2022
722 438000 DEBORAH COSTA LAGE ANALISTA DO MP BELO HORIZONTE - COMARCA; PROC JUST ATUACAO TRIBUNAIS SUPERIORES-GAB006 15.659,55 3.131,91 0,00 6.595,88 6.263,82 0,00 0,00 1.911,00 33.562,16 2.799,85 8.779,21 0,00 0,00 11.579,06 21.983,10 31/12/2022
723 613700 DEISER MARIA FERREIRA ROSCOE OFICIAL DO MP BELO HORIZONTE - COMARCA; DIVISÃO DE EDUCAÇÃO PARA O CONSUMO 6.694,66 669,47 0,00 2.673,45 2.454,71 0,00 0,00 1.911,00 14.403,29 971,47 2.452,29 0,00 0,00 3.423,76 10.979,53 31/12/2022
724 551900 DEISY ROCHA DA SILVA ANALISTA DO MP CARMO DO PARANAÍBA - COMARCA; CARMO DO PARANAIBA-PJ-01PJ 11.008,33 1.100,83 0,00 6.410,43 4.036,39 0,00 0,00 1.911,00 24.466,98 1.730,68 4.975,17 0,00 0,00 6.705,85 17.761,13 31/12/2022
725 501900 DELI RAQUEL RODRIGUES ANALISTA DO MP ITUIUTABA - COMARCA; ITUIUTABA-PJ-04PJ 11.008,33 2.201,67 0,00 11.303,19 4.403,33 0,00 0,00 1.911,00 30.827,52 1.906,81 5.688,95 0,00 0,00 7.595,76 23.231,76 31/12/2022
726 378600 DELIANE LOPES VIEIRA BREIJAO ANALISTA DO MP JUIZ DE FORA - COMARCA; JUIZ DE FORA-PJ-14PJ 16.169,47 3.233,89 0,00 6.803,93 6.467,79 0,00 0,00 1.911,00 34.586,08 2.897,75 9.013,74 0,00 0,00 11.911,49 22.674,59 31/12/2022
727 730100 DELIENE FRACETE GUTIERREZ ASSESSOR ADMINISTRATIVO I TEÓFILO OTONI - COMARCA; COORD REG APOIO COM INC MOB SOC VALE MUCURI 0,00 0,00 4.345,58 1.086,40 0,00 0,00 0,00 1.911,00 7.342,98 712,65 518,68 0,00 0,00 1.231,33 6.111,65 31/12/2022
728 487700 DENIA FERREIRA MAIA SILVA OFICIAL DO MP TRÊS CORACOES - COMARCA; TRES CORACOES-PJ-04PJ 7.137,75 1.427,55 0,00 4.313,98 2.855,10 0,00 0,00 1.911,00 17.645,38 1.163,66 2.908,79 0,00 0,00 4.072,45 13.572,93 31/12/2022
729 726300 DENILZA RODRIGUES MORAES ASSESSOR ADMINISTRATIVO I BELO HORIZONTE - COMARCA; CENT DE ATENDIMENTO AS PROMOTORIAS DE JUSTICA 0,00 0,00 4.345,58 2.172,79 0,00 0,00 0,00 1.911,00 8.429,37 808,54 525,54 0,00 0,00 1.334,08 7.095,29 31/12/2022
730 424800 DENIS APARECIDO CAMPOS DELFINO ANALISTA DO MP LUZ - COMARCA; LUZ-PJ-UNPJ 14.224,47 2.844,89 0,00 6.010,37 5.689,79 0,00 0,00 1.911,00 30.680,52 2.524,31 7.408,65 0,00 0,00 9.932,96 20.747,56 31/12/2022
731 381400 DENISE ANGELICA MELLO DE PAULA OFICIAL DO MP BELO HORIZONTE - COMARCA; BH-18PJ DIREITOS HUMANOS-SECRETARIA 11.008,33 2.201,67 3.876,29 9.179,71 11.390,86 0,00 0,00 2.796,30 40.453,16 1.906,81 9.742,48 0,00 0,00 11.649,29 28.803,87 31/12/2022
732 702100 DENISE CANDIDO LIMA MACEDO KATOPODIS ASSESSOR PROCURADOR JUSTICA BELO HORIZONTE - COMARCA; GABINETE DE PROCURADOR DE JUSTIÇA - SALA 305 0,00 0,00 7.857,77 4.874,93 2.619,26 0,00 0,00 1.911,00 17.262,96 1.656,76 3.214,31 0,00 0,00 4.871,07 12.391,89 31/12/2022
733 196300 DENISE DE ALMEIDA VILELA FURTADO OFICIAL DO MP BELO HORIZONTE - COMARCA; CENTRAL DE APOIO TECNICO-SECRETARIA 16.695,70 6.678,28 0,00 8.153,94 7.791,33 0,00 0,00 3.238,95 42.558,20 3.533,05 11.316,41 0,00 0,00 14.849,46 27.708,74 31/12/2022
734 271100 DENISE ELOY PEIXOTO OFICIAL DO MP BELO HORIZONTE - COMARCA; DIRETORIA DE INTELIGENCIA 14.224,47 4.267,34 0,00 6.494,00 6.163,94 0,00 0,00 1.911,00 33.060,75 2.751,90 8.613,32 0,00 0,00 11.365,22 21.695,53 31/12/2022
735 385400 DENISE FREITAS DE ASSIS OFICIAL DO MP CARATINGA - COMARCA; CARATINGA-PJ-SECRETARIA 9.684,23 1.936,85 2.679,65 5.497,77 4.766,91 0,00 262,18 4.771,15 29.598,74 1.652,59 6.528,66 0,00 0,00 8.181,25 21.417,49 31/12/2022
736 437100 DENISE NOGUEIRA MAGRI MENDES ANALISTA DO MP BELO HORIZONTE - COMARCA; LAB TECNOLOGIA CONTRA LAVAGEM DINHEIRO 15.659,55 6.263,82 0,00 18.622,42 7.307,79 0,00 0,00 1.911,00 49.764,58 3.300,95 10.304,70 0,00 0,00 13.605,65 36.158,93 31/12/2022
737 524700 DENISE RAMOS GUIMARAES OFICIAL DO MP BELO HORIZONTE - COMARCA; BH-07PJ 01 TRIBUNAL JURI-SECRETARIA 6.694,66 1.338,93 0,00 2.938,20 2.677,86 0,00 0,00 1.911,00 15.560,65 1.078,59 2.822,95 0,00 0,00 3.901,54 11.659,11 31/12/2022
738 239100 DENISE RIBEIRO DOS SANTOS CAETANO OFICIAL DO MP ITANHANDU - COMARCA; ITANHANDU-PJ-SECRETARIA 14.224,47 4.267,34 0,00 6.494,00 6.163,94 0,00 0,00 1.911,00 33.060,75 2.751,90 8.509,04 0,00 0,00 11.260,94 21.799,81 31/12/2022
739 325500 DENISE ROSA TORRES OFICIAL DO MP BELO HORIZONTE - COMARCA; DIRETORIA DE PESSOAL ADMINISTRATIVO - DPAD 12.118,97 3.635,69 0,00 5.811,71 5.251,55 0,00 0,00 1.911,00 28.728,92 2.313,96 7.097,84 0,00 0,00 9.411,80 19.317,12 31/12/2022
740 437200 DENISE VIVIANE DOS SANTOS ANALISTA DO MP BELO HORIZONTE - COMARCA; CGMP-ASSESSORIA JURIDICA 13.341,69 2.668,34 0,00 5.650,19 5.336,68 0,00 0,00 3.238,95 30.235,85 2.354,82 7.134,96 0,00 0,00 9.489,78 20.746,07 31/12/2022
741 267900 DENISIA ALMEIDA SALES OFICIAL DO MP BELO HORIZONTE - COMARCA; BH-18PJ DIREITOS HUMANOS-SECRETARIA 11.008,33 3.302,50 0,00 5.072,46 4.770,28 0,00 0,00 1.911,00 26.064,57 2.082,95 6.194,17 0,00 0,00 8.277,12 17.787,45 31/12/2022
742 480300 DESIREE ARANTES FERREIRA GOUVEA OFICIAL DO MP PRATÁPOLIS - COMARCA; PRATAPOLIS-PJ-UNPJ 6.694,66 1.338,93 0,00 4.686,73 3.037,39 1.078,59 0,00 1.911,00 18.747,30 1.078,59 3.515,04 0,00 0,00 4.593,63 14.153,67 31/12/2022
743 355300 DEYSE CRISTINA MORAIS OFICIAL DO MP PASSOS - COMARCA; PASSOS-PJ-02PJ 11.008,33 3.302,50 0,00 5.298,06 4.770,28 0,00 0,00 1.911,00 26.290,17 2.082,95 6.298,44 0,00 0,00 8.381,39 17.908,78 31/12/2022
744 523700 DIANA CAMPOS RESENDE OFICIAL DO MP SÃO JOÃO DEL REI - COMARCA; SAO JOAO DEL REI-PJ-04PJ 8.377,76 4.188,88 0,00 4.479,44 4.188,88 0,00 0,00 1.911,00 23.145,96 1.803,88 5.228,46 0,00 0,00 7.032,34 16.113,62 31/12/2022
745 241900 DIANA CARDOSO MARTINS OFICIAL DO MP BELO HORIZONTE - COMARCA; CAO-CRIMINAL 11.008,33 4.403,33 0,00 5.997,16 5.137,22 0,00 0,00 1.911,00 28.457,04 2.259,08 6.907,94 0,00 0,00 9.167,02 19.290,02 31/12/2022
746 410100 DIANA GORDILHO SILVEIRA SENA ANALISTA DO MP BELO HORIZONTE - COMARCA; BH-06PJ JUIZO CIVEL-SECRETARIA 16.169,47 3.233,89 0,00 7.109,88 6.467,79 0,00 0,00 1.911,00 34.892,03 2.897,75 9.118,00 0,00 0,00 12.015,75 22.876,28 31/12/2022
747 553000 DIANA MARIA MARQUES ANALISTA DO MP BETIM - COMARCA; BETIM-PJ-07PJ 11.008,33 1.100,83 0,00 4.699,64 4.036,39 0,00 0,00 1.911,00 22.756,19 1.730,68 4.975,17 0,00 0,00 6.705,85 16.050,34 31/12/2022
748 520000 DIARLE TOSTE DOS SANTOS ANALISTA DO MP RIO POMBA - COMARCA; RIO POMBA-PJ-UNPJ 11.008,33 2.201,67 0,00 4.698,19 4.403,33 0,00 0,00 1.911,00 24.222,52 1.906,81 5.022,35 0,00 0,00 6.929,16 17.293,36 31/12/2022
749 539800 DIEGO CAMARGOS RODRIGUES OFICIAL DO MP CONTAGEM - COMARCA; CONTAGEM-PJ-05PJ 6.694,66 669,47 0,00 2.710,59 4.909,42 0,00 540,04 7.802,30 23.326,48 971,47 3.127,33 0,00 0,00 4.098,80 19.227,68 31/12/2022
750 607300 DIEGO CERVEIRA DE SOUZA ANALISTA DO MP PATOS DE MINAS - COMARCA; COORD REG BACIAS PARACATU,URUCUIA E ABAETE 11.008,33 1.100,83 0,00 5.127,41 4.036,39 0,00 0,00 1.911,00 23.183,96 927,17 5.314,23 0,00 0,00 6.241,40 16.942,56 31/12/2022
751 446900 DIEGO DE FREITAS OFICIAL DO MP UBERABA - COMARCA; UBERABA-PJ-06PJ 9.223,00 1.844,60 0,00 3.969,77 3.689,20 0,00 0,00 1.911,00 20.637,57 1.564,03 4.502,77 0,00 0,00 6.066,80 14.570,77 31/12/2022
752 288800 DILENE NEPOMUCENO ALVES OFICIAL DO MP BELO HORIZONTE - COMARCA; DIRETORIA DE PESSOAL ADMINISTRATIVO - DPAD 11.008,33 3.302,50 0,00 7.360,60 4.770,28 0,00 0,00 1.911,00 28.352,71 2.082,95 6.298,44 0,00 0,00 8.381,39 19.971,32 31/12/2022
753 681200 DILLIANY PAULA LOPES SERRANO ASSESSOR PROMOTOR JUSTICA RESPLENDOR - COMARCA; RESPLENDOR-PJ-UNPJ 0,00 0,00 7.857,77 4.874,93 2.619,26 0,00 0,00 2.796,30 18.148,26 1.656,76 3.214,31 0,00 0,00 4.871,07 13.277,19 31/12/2022
754 270101 DILSON DO AMARAL ANALISTA DO MP RIO CASCA - COMARCA; RIO CASCA-PJ-UNPJ 11.008,33 1.100,83 0,00 4.203,66 4.036,39 0,00 0,00 1.911,00 22.260,21 1.730,68 5.079,45 0,00 0,00 6.810,13 15.450,08 31/12/2022
755 466000 DIMITRI GUDE MARCIAL ANALISTA DO MP NANUQUE - COMARCA; NANUQUE-PJ-02PJ 11.008,33 2.201,67 0,00 4.698,19 4.403,33 0,00 0,00 3.681,60 25.993,12 1.906,81 5.376,13 0,00 0,00 7.282,94 18.710,18 31/12/2022
756 516300 DINORA APARECIDA MACEDO BRANDAO ANALISTA DO MP BELO HORIZONTE - COMARCA; BH-19PJ SAUDE-SECRETARIA 150PJ 10.661,25 2.132,25 0,00 4.556,58 4.264,50 0,00 0,00 1.911,00 23.525,58 1.840,17 5.458,35 0,00 0,00 7.298,52 16.227,06 31/12/2022
757 511700 DIOGENES HENRIQUES PEREIRA LOURENCO ANALISTA DO MP BELO HORIZONTE - COMARCA; BH-03PJ EMPRESARIAL-SECRETARIA 11.008,33 2.201,67 0,00 5.677,83 4.403,33 0,00 0,00 2.796,30 26.087,46 927,17 5.975,19 0,00 0,00 6.902,36 19.185,10 31/12/2022
758 604100 DIOGO CESAR DE OLIVEIRA HONORIO ASSESSOR ADMINISTRATIVO III PIUMHI - COMARCA; PIUMHI-PJ-02PJ 0,00 0,00 9.684,23 9.684,23 3.228,08 0,00 0,00 1.911,00 24.507,54 1.656,76 4.386,30 0,00 0,00 6.043,06 18.464,48 31/12/2022
759 259600 DIOGO MESQUITA MAIA ANALISTA DO MP BELO HORIZONTE - COMARCA; DIRET DE APOIO AS PROCURADORIAS DE JUSTICA 19.791,01 17.811,91 0,00 17.731,11 13.643,13 5.467,17 0,00 1.911,00 76.355,33 5.467,17 21.609,32 2.140,70 0,00 29.217,19 47.138,14 31/12/2022
760 386700 DIRCIMAR FERNANDES CARNEIRO OFICIAL DO MP VISCONDE DO RIO BRANCO - COMARCA; VISCONDE DO RIO BRANCO-PJ-03PJ 9.999,62 6.999,73 0,00 5.986,56 5.666,45 0,00 0,00 1.911,00 30.563,36 2.513,11 7.786,99 0,00 0,00 10.300,10 20.263,26 31/12/2022
761 113800 DIRSON APARECIDO GUIMARAES ASSESSOR ADMINISTRATIVO II BELO HORIZONTE - COMARCA; DIVISAO DE MANUTENCAO PREDIAL 0,00 6.025,19 6.694,66 6.359,92 4.239,95 0,00 0,00 1.911,00 25.230,72 1.656,76 6.334,15 0,00 0,00 7.990,91 17.239,81 31/12/2022
762 216700 DOMICIO VALDETE PEREIRA OFICIAL DO MP TEÓFILO OTONI - COMARCA; COORD REG PJ DEF EDU DIR CRIAN ADOL JEQUI MUC 16.695,70 6.678,28 0,00 8.153,94 7.791,33 0,00 0,00 1.911,00 41.230,25 3.533,05 11.107,86 0,00 0,00 14.640,91 26.589,34 31/12/2022
763 192701 DONIZETTI APARECIDO AMORIM ANALISTA DO MP PRATÁPOLIS - COMARCA; PRATAPOLIS-PJ-UNPJ 11.008,33 4.403,33 0,00 5.446,75 5.137,22 0,00 0,00 1.911,00 27.906,63 2.259,08 6.803,66 0,00 0,00 9.062,74 18.843,89 31/12/2022
764 558700 DORCILIA FATIMA DE OLIVEIRA OFICIAL DO MP DIVINÓPOLIS - COMARCA; DIVINOPOLIS-PJ-02PJ 6.694,66 669,47 0,00 3.682,06 2.778,53 971,47 0,00 1.911,00 16.707,19 971,47 2.971,37 0,00 0,00 3.942,84 12.764,35 31/12/2022
765 555300 DOUGLAS CUNHA DE SOUZA ANALISTA DO MP VARZEA DA PALMA - COMARCA; VARZEA DA PALMA-PJ-01PJ 11.008,33 1.100,83 0,00 6.502,67 4.036,39 0,00 0,00 2.796,30 25.444,52 463,58 5.314,23 0,00 0,00 5.777,81 19.666,71 31/12/2022
766 265900 DOUGLAS GOMES MOREIRA ANALISTA DO MP BELO HORIZONTE - COMARCA; CENTRAL DE APOIO TECNICO-SETOR DE ENGENHARIA 20.574,59 6.172,38 0,00 9.300,75 8.915,66 0,00 0,00 1.911,00 46.874,38 4.072,73 13.183,92 0,00 0,00 17.256,65 29.617,73 31/12/2022
767 241000 DOUGLAS MEIRELLES DE CASTRO OFICIAL DO MP CONCEIÇÃO DO RIO VERDE - COMARCA; CONCEICAO DO RIO VERDE-PJ-UNPJ 15.659,55 6.263,82 0,00 8.665,29 7.307,79 0,00 0,00 1.911,00 39.807,45 3.300,95 10.408,98 0,00 0,00 13.709,93 26.097,52 31/12/2022
768 534900 DOUGLAS SILVA E SOUZA ANALISTA DO MP CAMPOS GERAIS - COMARCA; CAMPOS GERAIS-PJ-01PJ 11.008,33 1.100,83 0,00 5.127,41 4.036,39 0,00 0,00 1.911,00 23.183,96 1.047,41 5.194,45 0,00 0,00 6.241,86 16.942,10 31/12/2022
769 638900 DOUGLAS WALLAS CONCEICAO NEVES OFICIAL DO MP RIBEIRÃO DAS NEVES - COMARCA; RIBEIRAO DAS NEVES-PJ-SEC CIVEL 5.889,39 588,94 0,00 2.654,56 2.159,44 0,00 0,00 1.911,00 13.203,33 832,79 1.960,17 0,00 0,00 2.792,96 10.410,37 31/12/2022
770 146800 DUCINALVA AMARAL LOPES REIS OFICIAL DO MP PARAISÓPOLIS - COMARCA; PARAISOPOLIS-PJ-UNPJ 20.574,59 14.402,22 0,00 17.488,40 13.455,44 5.389,50 0,00 1.911,00 73.221,15 5.389,50 20.990,22 0,00 0,00 26.379,72 46.841,43 31/12/2022
771 122500 DUILIO CARLOS FERREIRA UTSCH OFICIAL DO MP CONCEIÇÃO DO MATO DENTRO - COMARCA; CONCEICAO DO MATO DENTRO-PJ-UNPJ 16.695,70 15.026,13 0,00 20.393,21 12.196,85 4.868,71 0,00 1.911,00 71.091,60 4.868,71 19.062,42 0,00 0,00 23.931,13 47.160,47 31/12/2022
772 201800 DULCINEIA ANDRE DE SOUZA OFICIAL DO MP JEQUITINHONHA - COMARCA; JEQUITINHONHA-PJ-SECRETARIA 16.695,70 6.678,28 0,00 8.153,94 7.791,33 0,00 0,00 3.208,17 42.527,42 3.533,05 11.003,58 0,00 0,00 14.536,63 27.990,79 31/12/2022
773 395800 DUVIDIER MEDIRCIO JUNIOR ANALISTA DO MP BELO HORIZONTE - COMARCA; CENTRAL DE APOIO TECNICO-SETOR DE ENGENHARIA 17.614,89 3.522,98 0,00 7.796,16 7.045,96 0,00 0,00 1.911,00 37.890,99 3.175,27 10.078,35 0,00 0,00 13.253,62 24.637,37 31/12/2022
774 604800 ECIA RAMILIS ISSA DE ABREU ANALISTA DO MP BRASÍLIA DE MINAS - COMARCA; BRASILIA DE MINAS-PJ-01PJ 10.325,15 1.032,52 0,00 5.779,18 3.785,89 0,00 0,00 2.796,30 23.719,04 1.610,44 4.663,38 0,00 0,00 6.273,82 17.445,22 31/12/2022
775 273000 EDELFINA APARECIDA GUIMARAES OFICIAL DO MP CACHOEIRA DE MINAS - COMARCA; CACHOEIRA DE MINAS-PJ-UNPJ 12.118,97 8.483,29 0,00 7.536,30 6.867,42 0,00 0,00 1.911,00 36.916,98 3.089,58 9.677,52 0,00 0,00 12.767,10 24.149,88 31/12/2022
776 523300 EDER DOS SANTOS PATRICIO ANALISTA DO MP NOVA SERRANA - COMARCA; NOVA SERRANA-PJ-03PJ 11.008,33 2.201,67 0,00 5.677,83 4.403,33 0,00 0,00 2.796,30 26.087,46 927,17 5.870,91 0,00 0,00 6.798,08 19.289,38 31/12/2022
777 356700 EDER JOSE PACHECO OFICIAL DO MP CAMPO BELO - COMARCA; CAMPO BELO-PJ-04PJ 11.008,33 3.302,50 0,00 8.888,46 4.770,28 0,00 948,00 1.911,00 30.828,57 2.082,95 6.785,09 0,00 0,00 8.868,04 21.960,53 31/12/2022
778 507900 EDERSON SILVA LOPES OFICIAL DO MP BELO HORIZONTE - COMARCA; LABORATORIO TECNOLOGIA INTELIGENCIA 8.113,66 1.622,73 0,00 4.952,34 3.245,46 0,00 0,00 1.911,00 19.845,19 1.351,04 3.557,18 0,00 0,00 4.908,22 14.936,97 31/12/2022
779 296200 EDGARD GOULART MATOSINHO DE LAET JR ANALISTA DO MP GOVERNADOR VALADARES - COMARCA; GOVERNADOR VALADARES-PJ-12PJ 19.791,01 5.937,30 0,00 9.444,33 8.576,10 0,00 0,00 1.911,00 45.659,74 3.909,74 12.411,37 0,00 0,00 16.321,11 29.338,63 31/12/2022
780 295000 EDILA MARIA DA SILVEIRA OFICIAL DO MP FORMIGA - COMARCA; FORMIGA-PJ-01PJ 9.999,62 2.999,89 0,00 6.658,38 4.333,17 0,00 0,00 1.911,00 25.902,06 1.873,14 5.572,40 0,00 0,00 7.445,54 18.456,52 31/12/2022
781 332300 EDILA MARILAC MIRANDA PRADO OFICIAL DO MP DIAMANTINA - COMARCA; DIAMANTINA-PJ-01PJ 11.008,33 5.504,17 0,00 5.821,04 5.504,17 0,00 0,00 1.911,00 29.748,71 2.435,21 7.308,89 0,00 0,00 9.744,10 20.004,61 31/12/2022
782 376600 EDILANE CONSOLACAO ROSA NAZARETH ANALISTA DO MP BETIM - COMARCA; BETIM-PJ-10PJ 16.169,47 3.233,89 0,00 10.880,31 6.467,79 0,00 0,00 1.911,00 38.662,46 463,58 9.693,78 0,00 0,00 10.157,36 28.505,10 31/12/2022
783 309800 EDILZA DOS REIS OFICIAL DO MP UBERLÂNDIA - COMARCA; UBERLANDIA-PJ-03PJ 11.008,33 3.302,50 0,00 5.072,46 4.770,28 0,00 0,00 1.911,00 26.064,57 2.082,95 6.194,17 0,00 0,00 8.277,12 17.787,45 31/12/2022
784 200500 EDINEIA MARIA DE OLIVEIRA ANTUNES OFICIAL DO MP MONTES CLAROS - COMARCA; MONTES CLAROS-PJ-10PJ 18.312,36 9.156,18 0,00 10.758,58 9.156,18 0,00 0,00 1.911,00 49.294,30 4.188,18 13.583,43 0,00 0,00 17.771,61 31.522,69 31/12/2022
785 427700 EDISANGELA SOARES LOPES OFICIAL DO MP PIRAPORA - COMARCA; PIRAPORA-PJ-02PJ 6.694,66 1.338,93 0,00 3.999,14 5.355,72 0,00 0,00 1.911,00 19.299,45 1.078,59 3.559,36 0,00 0,00 4.637,95 14.661,50 31/12/2022
786 555400 EDISON MONTEIRO SAMPAIO NETO ANALISTA DO MP BELO HORIZONTE - COMARCA; BH-12PJ JUIZO CRIMINAL-GAB 094PJ 11.008,33 1.100,83 0,00 4.699,64 4.036,39 0,00 0,00 1.911,00 22.756,19 1.730,68 5.079,45 0,00 0,00 6.810,13 15.946,06 31/12/2022
787 517700 EDMILSON TADEU FERNANDES OFICIAL DO MP POUSO ALEGRE - COMARCA; GAECO REGIONAL DE POUSO ALEGRE 8.377,76 1.675,55 0,00 3.783,37 3.351,10 0,00 0,00 1.911,00 19.098,78 1.401,74 3.941,19 0,00 0,00 5.342,93 13.755,85 31/12/2022
788 358400 EDNA APARECIDA SILVA FERREIRA OFICIAL DO MP CORONEL FABRICIANO - COMARCA; CORONEL FABRICIANO-PJ-02PJ 11.736,91 3.521,07 0,00 5.394,50 5.085,99 0,00 0,00 1.911,00 27.649,47 2.234,49 6.614,30 0,00 0,00 8.848,79 18.800,68 31/12/2022
789 331800 EDNA MARCIA CAMILO DA SILVA OFICIAL DO MP SETE LAGOAS - COMARCA; SETE LAGOAS-PJ-SEC CRIMINAIS 11.008,33 3.302,50 0,00 5.072,46 4.770,28 0,00 0,00 1.911,00 26.064,57 2.082,95 6.194,17 0,00 0,00 8.277,12 17.787,45 31/12/2022
790 327900 EDRIEL SANTANA PEREIRA OFICIAL DO MP TUPACIGUARA - COMARCA; TUPACIGUARA-PJ-01PJ 11.008,33 3.302,50 0,00 5.072,46 4.770,28 0,00 0,00 2.796,30 26.949,87 2.082,95 6.298,44 0,00 0,00 8.381,39 18.568,48 31/12/2022
791 482400 EDSON GARCIA OFICIAL DO MP MACHADO - COMARCA; MACHADO-PJ-02PJ 6.694,66 1.338,93 0,00 2.865,07 2.677,86 0,00 0,00 1.911,00 15.487,52 1.078,59 2.614,39 0,00 0,00 3.692,98 11.794,54 31/12/2022
792 225601 EDSON LABRE FILHO ANALISTA DO MP VARGINHA - COMARCA; VARGINHA-PJ-01PJ 19.791,01 7.916,40 0,00 11.106,77 9.235,80 0,00 1.979,10 1.911,00 51.940,08 4.226,40 13.154,24 0,00 316,66 17.697,30 34.242,78 31/12/2022
793 602700 EDSON NOGUEIRA BUENO OFICIAL DO MP PITANGUI - COMARCA; PITANGUI-PJ-02PJ 6.081,20 608,12 0,00 2.479,16 2.229,77 0,00 0,00 1.911,00 13.309,25 865,50 2.077,57 0,00 0,00 2.943,07 10.366,18 31/12/2022
794 716500 EDUARDA CORREA MOREIRA ASSESSOR ADMINISTRATIVO I BELO HORIZONTE - COMARCA; DIRET DE FORMACAO, APERFEIC. E POS-GRADUACAO 0,00 0,00 7.314,53 2.172,79 1.448,53 0,00 0,00 -172,65 10.763,20 1.025,03 1.100,66 0,00 0,00 2.125,69 8.637,51 31/12/2022
795 414400 EDUARDO ABRANTES CAMPOS ANALISTA DO MP SÃO JOÃO DEL REI - COMARCA; SAO JOAO DEL REI-PJ-02PJ 16.169,47 3.233,89 0,00 7.109,88 6.467,79 0,00 0,00 1.911,00 34.892,03 2.897,75 9.118,00 0,00 0,00 12.015,75 22.876,28 31/12/2022
796 476800 EDUARDO ALVES DE MOURA ANALISTA DO MP UBERLÂNDIA - COMARCA; UBERLANDIA-PJ-02PJ 11.008,33 2.201,67 0,00 5.677,83 4.403,33 0,00 0,00 2.796,30 26.087,46 927,17 5.662,36 0,00 0,00 6.589,53 19.497,93 31/12/2022
797 390800 EDUARDO AMORIM PETTERSEN OFICIAL DO MP CARANGOLA - COMARCA; CARANGOLA-PJ-SECRETARIA 9.684,23 1.936,85 0,00 4.157,95 3.873,69 0,00 0,00 2.081,40 21.734,12 1.652,59 4.809,21 0,00 0,00 6.461,80 15.272,32 31/12/2022
798 461600 EDUARDO ANTONIO DE ASSIS FARIA ASSESSOR ADMINISTRATIVO III BELO HORIZONTE - COMARCA; ASSESS EXECUTIVA DO CONSELHO SUPERIOR DO MP 0,00 0,00 9.684,23 9.684,23 3.228,08 0,00 0,00 1.911,00 24.507,54 1.656,76 4.282,02 0,00 0,00 5.938,78 18.568,76 31/12/2022
799 248800 EDUARDO DE CASTRO AMORIM ANALISTA DO MP BELO HORIZONTE - COMARCA; SUPER DE GESTAO DE PESSOAS-LOTACAO TEMPORARIA 20.574,59 6.172,38 0,00 9.300,75 8.915,66 0,00 490,36 7.260,39 52.714,13 4.072,73 13.183,92 0,00 0,00 17.256,65 35.457,48 31/12/2022
800 209100 EDUARDO DE SOUZA MAIA ANALISTA DO MP BELO HORIZONTE - COMARCA; SUPER DE GESTAO DE PESSOAS-LOTACAO TEMPORARIA 20.574,59 8.229,84 0,00 10.000,29 9.601,48 0,00 0,00 1.911,00 50.317,20 4.401,92 14.114,52 0,00 0,00 18.516,44 31.800,76 31/12/2022
801 633900 EDUARDO GONCALVES PIRES OFICIAL DO MP BELO HORIZONTE - COMARCA; DIRETORIA DE PAGAMENTO DE PESSOAL-DPAG 7.370,10 2.211,03 0,00 3.615,40 3.193,71 0,00 0,00 1.911,00 18.301,24 1.326,19 3.679,77 0,00 0,00 5.005,96 13.295,28 31/12/2022
802 350500 EDUARDO GONCALVES RIBEIRO OFICIAL DO MP VESPASIANO - COMARCA; VESPASIANO-PJ-04PJ 10.325,15 3.097,55 0,00 11.481,85 4.474,23 0,00 0,00 1.911,00 31.289,78 1.940,85 5.806,71 0,00 0,00 7.747,56 23.542,22 31/12/2022
803 115800 EDUARDO HENRIQUE DE CAMPOS MAIA OFICIAL DO MP BELO HORIZONTE - COMARCA; DIV FISCAL ADM CONT TERCEIRIZACAO 19.037,29 9.518,65 0,00 9.915,81 9.518,65 0,00 0,00 1.911,00 49.901,40 4.362,16 13.872,67 0,00 0,00 18.234,83 31.666,57 31/12/2022
804 392600 EDUARDO HENRIQUE DOS SANTOS COSTA ELIAZAR OFICIAL DO MP MATOZINHOS - COMARCA; MATOZINHOS-PJ-01PJ 9.684,23 1.936,85 0,00 9.968,49 3.873,69 0,00 0,00 1.911,00 27.374,26 1.652,59 4.600,67 0,00 0,00 6.253,26 21.121,00 31/12/2022
805 99101 EDUARDO JOSE DE FREITAS NUNES ASSESSOR ADMINISTRATIVO II BELO HORIZONTE - COMARCA; PROC JUST ATUACAO TRIBUNAIS SUPERIORES-GAB007 0,00 2.677,86 6.694,66 4.686,26 3.124,17 0,00 0,00 1.911,00 19.093,95 1.656,76 4.186,28 0,00 0,00 5.843,04 13.250,91 31/12/2022
806 407500 EDUARDO MASCARENHAS CURI AZEVEDO COORDENADOR II BELO HORIZONTE - COMARCA; DIR CONTEUDO JORNALISTICO 18.312,36 3.662,47 0,00 9.080,60 7.324,94 0,00 0,00 2.796,30 41.176,67 1.906,81 11.313,05 0,00 0,00 13.219,86 27.956,81 31/12/2022
807 601300 EDUARDO TRAD VIEIRA OFICIAL DO MP IGARAPÉ - COMARCA; IGARAPE-PJ-SECRETARIA 6.694,66 669,47 0,00 3.048,00 4.909,42 0,00 0,00 1.911,00 17.232,55 971,47 3.127,33 0,00 0,00 4.098,80 13.133,75 31/12/2022
808 257600 EDUARDO VALADARES CABRAL ANALISTA DO MP BELO HORIZONTE - COMARCA; COORD DE INCLUSAO E MOBILIZACAO SOCIAIS 20.574,59 6.172,38 0,00 22.674,24 8.915,66 0,00 0,00 1.911,00 60.247,87 4.072,73 13.183,92 0,00 0,00 17.256,65 42.991,22 31/12/2022
809 545700 EDVAIR FERREIRA DE CARVALHO OFICIAL DO MP ARAGUARI - COMARCA; ARAGUARI-PJ-06PJ 6.694,66 669,47 0,00 2.602,62 2.454,71 0,00 0,00 1.911,00 14.332,46 971,47 2.348,01 0,00 0,00 3.319,48 11.012,98 31/12/2022
810 401700 EDWANIA AMORIM DO CARMO OFICIAL DO MP RIBEIRÃO DAS NEVES - COMARCA; RIBEIRAO DAS NEVES-PJ-03PJ 9.999,62 1.999,92 0,00 6.122,90 3.999,85 0,00 44,00 2.390,98 24.557,27 1.713,14 5.018,76 0,00 0,00 6.731,90 17.825,37 31/12/2022
811 303600 EFIGENIO SARAIVA LOPES ANALISTA DO MP BELO HORIZONTE - COMARCA; DIRETORIA DE PAGAMENTO DE PESSOAL-DPAG 20.574,59 6.172,38 4.939,72 14.240,47 10.562,23 0,00 0,00 1.911,00 58.400,39 4.072,73 16.249,30 0,00 0,00 20.322,03 38.078,36 31/12/2022
812 286000 ELAINE APARECIDA SILVA BERZOINI OFICIAL DO MP JUIZ DE FORA - COMARCA; JUIZ DE FORA-PJ-07PJ 11.008,33 3.302,50 0,00 5.072,46 4.770,28 0,00 0,00 1.911,00 26.064,57 2.082,95 6.298,44 0,00 0,00 8.381,39 17.683,18 31/12/2022
813 509000 ELAINE CANDIDA PONTES OFICIAL DO MP BELO HORIZONTE - COMARCA; BH-02PJ FAMILIA-SECRETARIA 8.932,15 1.786,43 0,00 3.851,10 3.572,86 0,00 0,00 1.911,00 20.053,54 1.508,19 4.309,53 0,00 0,00 5.817,72 14.235,82 31/12/2022
814 283601 ELAINE CRISTINA MEQUELINO DUARTE ANALISTA DO MP ALFENAS - COMARCA; ALFENAS-PJ-02PJ 16.169,47 3.233,89 0,00 6.803,93 6.467,79 0,00 0,00 1.911,00 34.586,08 2.897,75 8.909,46 0,00 0,00 11.807,21 22.778,87 31/12/2022
815 535500 ELAINE DE OLIVEIRA CAMPOS REIS OFICIAL DO MP RIBEIRÃO DAS NEVES - COMARCA; RIBEIRAO NEVES-SEC PJ EXECUCAO PENAL 6.694,66 669,47 0,00 2.710,59 2.454,71 0,00 0,00 1.911,00 14.440,43 971,47 2.452,29 0,00 0,00 3.423,76 11.016,67 31/12/2022
816 455700 ELAINE DE OLIVEIRA CASTRO ANALISTA DO MP POMPÉU - COMARCA; POMPEU-PJ-UNPJ 11.008,33 2.201,67 0,00 4.698,19 4.403,33 0,00 0,00 1.911,00 24.222,52 1.906,81 5.480,40 0,00 0,00 7.387,21 16.835,31 31/12/2022
817 367200 ELAINE MUNIZ BARBOSA ANALISTA DO MP BELO HORIZONTE - COMARCA; DIRETORIA DE SISTEMAS DE INFORMACAO 18.312,36 5.493,71 0,00 9.351,68 7.935,36 0,00 0,00 2.796,30 43.889,41 3.602,18 11.451,37 0,00 0,00 15.053,55 28.835,86 31/12/2022
818 679200 ELAINE RIBEIRO CHAVES ASSESSOR PROCURADOR JUSTICA BELO HORIZONTE - COMARCA; GABINETE DE PROCURADOR DE JUSTIÇA - SALA 614 0,00 0,00 7.857,77 3.928,88 2.619,26 0,00 0,00 1.911,00 16.316,91 1.656,76 3.110,05 0,00 0,00 4.766,81 11.550,10 31/12/2022
819 176900 ELAINE RIBEIRO TAVEIRA OFICIAL DO MP BELO HORIZONTE - COMARCA; DIVISAO FROTA 15.165,83 6.066,33 0,00 7.760,48 7.077,39 0,00 0,00 1.911,00 37.981,03 3.190,36 10.130,56 0,00 0,00 13.320,92 24.660,11 31/12/2022
820 496200 ELAINE SABRINA MOREIRA SCHUWARTEN ANALISTA DO MP IPATINGA - COMARCA; GAECO REGIONAL DE IPATINGA 12.118,97 2.423,79 0,00 5.380,55 4.847,59 0,00 0,00 1.911,00 26.681,90 2.120,06 6.426,85 0,00 0,00 8.546,91 18.134,99 31/12/2022
821 489200 ELAINE VICENTINO GARCIA ANALISTA DO MP BELO HORIZONTE - COMARCA; CENTRAL DE APOIO TECNICO-SETOR CONTABIL 11.008,33 3.302,50 0,00 5.072,46 4.770,28 0,00 0,00 1.911,00 26.064,57 2.082,95 6.089,89 0,00 0,00 8.172,84 17.891,73 31/12/2022
822 731400 ELBERT MENDES PINHEIRO ASSESSOR PROMOTOR JUSTICA BELO HORIZONTE - COMARCA; COORD ESTADUAL DAS PJS DE HAB. E URBANISMO 0,00 0,00 7.857,77 1.309,63 0,00 0,00 0,00 1.911,00 11.078,40 928,07 1.430,30 0,00 0,00 2.358,37 8.720,03 31/12/2022
823 244500 ELCI ALVES DE SOUZA ASSESSOR ADMINISTRATIVO II BELO HORIZONTE - COMARCA; CAO-CONFLITOS AGRARIOS-SECRETARIA 0,00 2.008,40 6.694,66 5.387,74 2.901,02 0,00 0,00 1.911,00 18.902,82 1.656,76 3.652,44 0,00 0,00 5.309,20 13.593,62 31/12/2022
824 472500 ELCI VAZ DE OLIVEIRA FILHO ANALISTA DO MP PIUMHI - COMARCA; PIUMHI-PJ-02PJ 11.008,33 5.504,17 0,00 5.821,04 5.504,17 0,00 0,00 1.911,00 29.748,71 2.435,21 7.517,43 0,00 0,00 9.952,64 19.796,07 31/12/2022
825 385200 ELCI VIANA REIS OFICIAL DO MP RIO PARDO DE MINAS - COMARCA; RIO PARDO DE MINAS-PJ-SECRETARIA 11.008,33 5.504,17 0,00 7.077,55 5.504,17 0,00 0,00 1.911,00 31.005,22 2.435,21 7.517,43 0,00 0,00 9.952,64 21.052,58 31/12/2022
826 289801 ELCIO JOSE DOS SANTOS ANALISTA DO MP BELO HORIZONTE - COMARCA; DIVISAO DE SERVICOS 11.008,33 2.201,67 4.939,72 9.920,18 6.049,91 0,00 0,00 1.911,00 36.030,81 1.906,81 8.858,60 0,00 0,00 10.765,41 25.265,40 31/12/2022
827 319600 ELEN TULER DE ALBERGARIA ANALISTA DO MP BELO HORIZONTE - COMARCA; BH-19PJ SAUDE-SECRETARIA 130PJ 20.574,59 8.229,84 0,00 10.000,29 9.601,48 0,00 0,00 1.911,00 50.317,20 4.401,92 14.323,07 0,00 0,00 18.724,99 31.592,21 31/12/2022
828 205500 ELIANA ALVES DE SOUSA OFICIAL DO MP GOVERNADOR VALADARES - COMARCA; GOVERNADOR VALADARES-PJ-07PJ 11.008,33 4.403,33 0,00 5.446,75 5.137,22 0,00 0,00 1.911,00 27.906,63 2.259,08 6.907,94 0,00 0,00 9.167,02 18.739,61 31/12/2022
829 628800 ELIANA APARECIDA PEREIRA ANALISTA DO MP CAMBUÍ - COMARCA; CAMBUI-PJ-02PJ 9.223,00 922,30 0,00 3.656,19 3.381,77 0,00 0,00 1.911,00 19.094,26 1.416,46 3.887,85 0,00 0,00 5.304,31 13.789,95 31/12/2022
830 301700 ELIANA DA SILVEIRA ANALISTA DO MP BELO HORIZONTE - COMARCA; BH-11PJ COMB CRIME ORGANIZ-GAB 081PJ 18.312,36 5.493,71 0,00 8.300,85 15.870,72 0,00 523,73 7.624,46 56.125,83 3.602,18 13.737,87 0,00 0,00 17.340,05 38.785,78 31/12/2022
831 251500 ELIANA DE LIMA MILAGRES FONSECA ANALISTA DO MP CONTAGEM - COMARCA; CONTAGEM-PJ-16PJ 20.574,59 6.172,38 0,00 9.300,75 8.915,66 0,00 0,00 1.911,00 46.874,38 4.072,73 13.079,65 0,00 0,00 17.152,38 29.722,00 31/12/2022
832 503900 ELIANA DIAS DUTRA FERREIRA OFICIAL DO MP BELO HORIZONTE - COMARCA; DIRETORIA GESTAO COMPRAS LICITACOES 8.650,50 1.730,10 0,00 3.736,19 3.460,20 0,00 0,00 1.911,00 19.487,99 1.454,11 4.018,13 0,00 0,00 5.472,24 14.015,75 31/12/2022
833 413900 ELIANA PINTO DE OLIVEIRA NEVES ANALISTA DO MP CAMPO BELO - COMARCA; CAMPO BELO-PJ-04PJ 14.224,47 2.844,89 0,00 6.010,37 5.689,79 0,00 0,00 1.911,00 30.680,52 2.524,31 7.825,75 0,00 0,00 10.350,06 20.330,46 31/12/2022
834 228200 ELIANA RODRIGUES DA CUNHA PINHEIRO OFICIAL DO MP BELO HORIZONTE - COMARCA; DIRETORIA DE PROJETOS DE EDIFICACOES 14.224,47 4.267,34 0,00 18.491,81 7.081,24 2.751,90 0,00 1.911,00 48.727,76 2.751,90 10.379,12 0,00 0,00 13.131,02 35.596,74 31/12/2022
835 386600 ELIANA SABINO CHAVES PESSOA ANALISTA DO MP CARATINGA - COMARCA; CARATINGA-PJ-06PJ 16.169,47 11.318,64 0,00 14.177,48 10.559,81 4.191,31 0,00 1.911,00 58.327,71 4.191,31 16.179,41 0,00 0,00 20.370,72 37.956,99 31/12/2022
836 677500 ELIANA SILVA ANDRADE ASSESSOR PROMOTOR JUSTICA TRÊS CORACOES - COMARCA; TRES CORACOES-PJ-06PJ 0,00 0,00 7.857,77 3.928,88 2.619,26 0,00 0,00 1.911,00 16.316,91 1.656,76 3.214,31 0,00 0,00 4.871,07 11.445,84 31/12/2022
837 297400 ELIANE AUGUSTA RIBEIRO COSTA ANALISTA DO MP CONSELHEIRO LAFAIETE - COMARCA; CONSELHEIRO LAFAIETE-PJ-05PJ 20.574,59 6.172,38 0,00 9.810,08 8.915,66 0,00 0,00 1.911,00 47.383,71 4.072,73 12.975,37 0,00 0,00 17.048,10 30.335,61 31/12/2022
838 510600 ELIANE CAROLINA MAIA ANALISTA DO MP IGARAPÉ - COMARCA; IGARAPE-PJ-03PJ 11.008,33 2.201,67 0,00 5.248,61 4.403,33 0,00 0,00 1.911,00 24.772,94 1.906,81 5.376,13 0,00 0,00 7.282,94 17.490,00 31/12/2022
839 262600 ELIANE FERREIRA SOARES ASSESSOR ADMINISTRATIVO II BELO HORIZONTE - COMARCA; BH-18PJ DIREITOS HUMANOS-SECRETARIA 0,00 2.677,86 6.694,66 5.814,52 3.124,17 0,00 0,00 1.911,00 20.222,21 1.656,76 4.186,28 0,00 0,00 5.843,04 14.379,17 31/12/2022
840 204400 ELIANE GLAUCE DE QUEIROS MAIA OFICIAL DO MP GUANHÃES - COMARCA; GUANHAES-PJ-02PJ 16.695,70 6.678,28 0,00 19.840,93 15.582,66 0,00 0,00 1.911,00 60.708,57 3.533,05 13.459,03 0,00 0,00 16.992,08 43.716,49 31/12/2022
841 91800 ELIANE KAPLER ALVES OFICIAL DO MP BELO HORIZONTE - COMARCA; DIVISAO DE CONTROLE IMOBILIARIO 20.574,59 14.402,22 0,00 18.375,09 11.658,94 0,00 0,00 1.911,00 66.921,84 5.389,50 17.531,96 0,00 0,00 22.921,46 44.000,38 31/12/2022
842 334200 ELIANE MARCIA DE OLIVEIRA BRITO OFICIAL DO MP BELO HORIZONTE - COMARCA; BH-08PJ JUIZADO ESPECIAL-SECRETARIA 6.694,66 2.008,40 0,00 4.357,64 2.901,02 0,00 0,00 1.911,00 17.872,72 1.185,70 3.193,60 0,00 0,00 4.379,30 13.493,42 31/12/2022
843 365900 ELIANE MARIA DE OLIVEIRA FERREIRA OFICIAL DO MP SETE LAGOAS - COMARCA; SETE LAGOAS-PJ-SEC CRIMINAIS 11.008,33 5.504,17 0,00 5.821,04 5.504,17 0,00 0,00 1.911,00 29.748,71 2.435,21 7.517,43 0,00 0,00 9.952,64 19.796,07 31/12/2022
844 320600 ELIANE STADLER DE SOUZA OFICIAL DO MP FRANCISCO SÁ - COMARCA; FRANCISCO SA-PJ-SECRETARIA 10.325,15 3.097,55 0,00 4.982,09 4.474,23 0,00 0,00 1.911,00 24.790,02 1.940,85 5.702,44 0,00 0,00 7.643,29 17.146,73 31/12/2022
845 448900 ELIAS PEREIRA OTONI ASSESSOR ADMINISTRATIVO II BELO HORIZONTE - COMARCA; BH-18PJ DIREITOS HUMANOS-SECRETARIA 0,00 0,00 6.694,66 6.694,66 2.231,55 0,00 0,00 1.911,00 17.531,87 1.601,81 2.274,54 0,00 0,00 3.876,35 13.655,52 31/12/2022
846 495400 ELICA SOUZA GASPARONI MATTOS OFICIAL DO MP UBÁ - COMARCA; UBA-PJ-06PJ 8.650,50 1.730,10 0,00 5.255,96 3.460,20 0,00 0,00 1.911,00 21.007,76 1.454,11 4.122,40 0,00 0,00 5.576,51 15.431,25 31/12/2022
847 86600 ELIENE FERREIRA DA SILVA OFICIAL DO MP BELO HORIZONTE - COMARCA; BH-22PJ PES COM DEF E IDOSOS-SECRETARIA 23.116,32 16.181,42 0,00 17.731,11 13.643,13 5.467,17 0,00 1.911,00 78.050,15 5.467,17 21.556,13 3.835,52 0,00 30.858,82 47.191,33 31/12/2022
848 183800 ELIENE MARIA CUNHA OFICIAL DO MP BELO HORIZONTE - COMARCA; DIRETORIA DE PESSOAL ADMINISTRATIVO - DPAD 18.312,36 7.324,94 0,00 21.742,12 8.545,77 0,00 0,00 1.911,00 57.836,19 3.895,18 12.465,26 0,00 0,00 16.360,44 41.475,75 31/12/2022
849 172300 ELINA APARECIDA SILVA ASSESSOR ADMINISTRATIVO I BELO HORIZONTE - COMARCA; BH-19PJ SAUDE-SECRETARIA 130PJ 0,00 1.738,23 4.345,58 3.041,90 2.027,94 0,00 0,00 1.911,00 13.064,65 1.516,29 2.010,38 0,00 0,00 3.526,67 9.537,98 31/12/2022
850 492501 ELINE CAMPOS DA FONSECA CUNHA ANALISTA DO MP PONTE NOVA - COMARCA; PONTE NOVA-PJ-05PJ 11.008,33 2.201,67 0,00 6.771,11 4.403,33 0,00 0,00 1.911,00 26.295,44 1.906,81 5.688,95 0,00 0,00 7.595,76 18.699,68 31/12/2022
851 618900 ELISA MOURA VIEIRA MARCATTI OFICIAL DO MP BELO HORIZONTE - COMARCA; GRUPO ESP PROM JUST DEF PROB ADM PAT PUB 6.694,66 669,47 0,00 2.826,66 2.454,71 0,00 0,00 2.796,30 15.441,80 971,47 2.452,29 0,00 0,00 3.423,76 12.018,04 31/12/2022
852 256500 ELISABETE NOGUEIRA ANALISTA DO MP RIBEIRÃO DAS NEVES - COMARCA; RIBEIRAO NEVES-SEC PJ EXECUCAO PENAL 16.695,70 8.347,85 0,00 13.029,76 8.347,85 0,00 0,00 1.911,00 48.332,16 3.800,18 11.823,70 0,00 0,00 15.623,88 32.708,28 31/12/2022
853 355000 ELISANGELA DARLANTONI RIBEIRO OFICIAL DO MP ARAXÁ - COMARCA; ARAXA-PJ-05PJ 10.325,15 3.097,55 0,00 4.770,50 4.474,23 0,00 0,00 1.911,00 24.578,43 1.940,85 5.702,44 0,00 0,00 7.643,29 16.935,14 31/12/2022
854 604400 ELISANGELA DEMASI FERREIRA MOREIRA ANALISTA DO MP CABO VERDE - COMARCA; CABO VERDE-PJ-UNPJ 10.325,15 1.032,52 0,00 4.751,66 3.785,89 0,00 0,00 1.911,00 21.806,22 927,17 4.863,02 0,00 0,00 5.790,19 16.016,03 31/12/2022
855 323800 ELISANGELA GONCALVES DE JESUS OFICIAL DO MP BELO HORIZONTE - COMARCA; DIVISAO FROTA 11.008,33 3.302,50 0,00 5.072,46 4.770,28 0,00 0,00 1.911,00 26.064,57 2.082,95 6.194,17 0,00 0,00 8.277,12 17.787,45 31/12/2022
856 507400 ELISANGELA MIGUEL DA ROCHA SILVA ASSESSOR ADMINISTRATIVO II BELO HORIZONTE - COMARCA; EXTINTA-CGMP-DIV APOIO FISC ORIENT FUNCIONAL 0,00 0,00 6.694,66 3.347,33 2.231,55 0,00 0,00 1.911,00 14.184,54 1.601,81 2.378,82 0,00 0,00 3.980,63 10.203,91 31/12/2022
857 261400 ELISANGELA REZENDE MENDES OFICIAL DO MP POUSO ALEGRE - COMARCA; POUSO ALEGRE-PJ-05PJ 11.008,33 3.302,50 0,00 5.072,46 4.770,28 0,00 0,00 1.911,00 26.064,57 2.082,95 6.298,44 0,00 0,00 8.381,39 17.683,18 31/12/2022
858 534100 ELISANGELA ROSINE SILVA OFICIAL DO MP UBERABA - COMARCA; UBERABA-PJ-06PJ 6.694,66 669,47 0,00 2.602,62 2.454,71 0,00 0,00 1.911,00 14.332,46 971,47 2.452,29 0,00 0,00 3.423,76 10.908,70 31/12/2022
859 634300 ELIUDE GRACA DAMASIO ROSARIO FRANCELINO OFICIAL DO MP BELO HORIZONTE - COMARCA; BH-18PJ VIOLENCIA DOMESTICA-SECRETARIA 5.889,39 588,94 0,00 2.329,21 2.159,44 0,00 0,00 3.681,60 14.648,58 832,79 1.960,17 0,00 0,00 2.792,96 11.855,62 31/12/2022
860 461700 ELIZABETH ALEIXO DA PAZ ANALISTA DO MP JUIZ DE FORA - COMARCA; JUIZ DE FORA-PJ-18PJ 11.008,33 2.201,67 0,00 4.698,19 4.403,33 0,00 0,00 1.911,00 24.222,52 1.906,81 5.688,95 0,00 0,00 7.595,76 16.626,76 31/12/2022
861 227300 ELIZABETH COIMBRA FELIX OFICIAL DO MP BELO HORIZONTE - COMARCA; DIRETORIA DE PAGAMENTO DE PESSOAL-DPAG 16.169,47 6.467,79 0,00 8.260,39 7.545,75 0,00 0,00 1.911,00 40.354,40 3.415,18 10.699,96 0,00 0,00 14.115,14 26.239,26 31/12/2022
862 354800 ELIZABETH DOS REIS OFICIAL DO MP BELO HORIZONTE - COMARCA; DIVISAO DE MATERIAIS 11.008,33 3.302,50 0,00 5.072,46 4.770,28 0,00 0,00 1.911,00 26.064,57 2.082,95 6.194,17 0,00 0,00 8.277,12 17.787,45 31/12/2022
863 612000 ELIZABETH MARIA DE QUEIROZ TANIGUCHI OFICIAL DO MP BELO HORIZONTE - COMARCA; SUPERINTENDENCIA GESTÃO DE PESSOAS 6.081,20 608,12 0,00 3.244,25 2.229,77 0,00 0,00 1.911,00 14.074,34 865,50 2.077,57 0,00 0,00 2.943,07 11.131,27 31/12/2022
864 452800 ELIZANGELA MARIA DAVI OFICIAL DO MP ARCOS - COMARCA; ARCOS-PJ-01PJ 6.694,66 1.338,93 0,00 3.973,07 2.677,86 0,00 0,00 1.911,00 16.595,52 1.078,59 2.718,67 0,00 0,00 3.797,26 12.798,26 31/12/2022
865 496300 ELIZANGELA MARQUES PINTO COELHO OFICIAL DO MP BELO HORIZONTE - COMARCA; DIRETORIA DE PESSOAL ADMINISTRATIVO - DPAD 8.650,50 1.730,10 0,00 3.736,19 3.460,20 0,00 0,00 1.911,00 19.487,99 1.454,11 4.122,40 0,00 0,00 5.576,51 13.911,48 31/12/2022
866 422500 ELIZETE FORTES DA CUNHA ANALISTA DO MP RIBEIRÃO DAS NEVES - COMARCA; RIBEIRAO DAS NEVES-PJ-07PJ 15.659,55 3.131,91 0,00 6.595,88 6.263,82 0,00 0,00 1.911,00 33.562,16 2.799,85 8.674,95 0,00 0,00 11.474,80 22.087,36 31/12/2022
867 506100 ELLEM CRISTINA ROCHA FONSECA BOWEN ANALISTA DO MP GOVERNADOR VALADARES - COMARCA; COORD REG PJ DEF EDU DIR CRIANCA ADOL RIODOCE 11.008,33 2.201,67 0,00 11.303,19 4.403,33 0,00 0,00 1.911,00 30.827,52 1.906,81 5.688,95 0,00 0,00 7.595,76 23.231,76 31/12/2022
868 468200 ELLEN CRISTINA BERNARDES DARE ANALISTA DO MP TRÊS PONTAS - COMARCA; TRES PONTAS-PJ-02PJ 11.008,33 2.201,67 0,00 4.698,19 4.403,33 0,00 0,00 2.796,30 25.107,82 1.906,81 5.584,67 0,00 0,00 7.491,48 17.616,34 31/12/2022
869 418800 ELLEN CRISTINA DE QUEIROZ FERREIRA ANALISTA DO MP BELO HORIZONTE - COMARCA; CENTRAL DE APOIO TECNICO-SETOR CONTABIL 15.659,55 3.131,91 0,00 11.114,48 6.263,82 0,00 0,00 3.238,95 39.408,71 463,58 9.326,39 0,00 0,00 9.789,97 29.618,74 31/12/2022
870 328401 ELLEN CRISTINA FERREIRA MORAIS MONTEIRO ANALISTA DO MP CAMANDUCAIA - COMARCA; CAMANDUCAIA-PJ-UNPJ 15.659,55 3.131,91 0,00 10.232,22 6.263,82 0,00 0,00 1.911,00 37.198,50 2.799,85 8.570,67 0,00 0,00 11.370,52 25.827,98 31/12/2022
871 556100 ELLEN CRISTINE BIANCHIN DA SILVA OFICIAL DO MP SÃO GONÇALO DO SAPUCAÍ - COMARCA; SAO GONCALO DO SAPUCAI-PJ-02PJ 6.694,66 669,47 0,00 6.392,66 2.454,71 0,00 0,00 1.911,00 18.122,50 971,47 2.348,01 0,00 0,00 3.319,48 14.803,02 31/12/2022
872 714500 ELLEN PROENCA CARVALHO DE ARAUJO ASSESSOR PROMOTOR JUSTICA MARIANA - COMARCA; MARIANA-PJ-02PJ 0,00 0,00 7.857,77 4.874,93 2.619,26 0,00 0,00 1.911,00 17.262,96 1.656,76 3.214,31 0,00 0,00 4.871,07 12.391,89 31/12/2022
873 447100 ELLEN ROSANA DE MACEDO BORGES OFICIAL DO MP UBERLÂNDIA - COMARCA; UBERLANDIA-PJ-17PJ 9.684,23 1.936,85 0,00 4.341,17 3.873,69 0,00 0,00 1.911,00 21.746,94 1.652,59 4.809,21 0,00 0,00 6.461,80 15.285,14 31/12/2022
874 477700 ELMA JACOB OFICIAL DO MP BELO HORIZONTE - COMARCA; COORD DE GABINETE DO PGJ 9.378,86 7.503,09 0,00 9.096,50 6.458,76 2.494,33 0,00 1.911,00 36.842,54 2.494,33 9.322,52 0,00 0,00 11.816,85 25.025,69 31/12/2022
875 123300 ELMA PAULA DOS SANTOS COELHO OFICIAL DO MP BELO HORIZONTE - COMARCA; BH-19PJ SAUDE-SECRETARIA 130PJ 20.574,59 18.517,14 0,00 17.731,11 13.643,13 5.467,17 0,00 1.911,00 77.844,14 5.467,17 21.850,07 3.629,51 0,00 30.946,75 46.897,39 31/12/2022
876 728200 ELMITA XISTO DO VALLE ASSESSOR ADMINISTRATIVO I BELO HORIZONTE - COMARCA; DIRET DE FORMACAO, APERFEIC. E POS-GRADUACAO 0,00 0,00 4.345,58 1.448,53 0,00 0,00 0,00 1.911,00 7.705,11 743,36 518,68 0,00 0,00 1.262,04 6.443,07 31/12/2022
877 356500 ELOISA CARDOSO SILVA FRANCA OFICIAL DO MP PEÇANHA - COMARCA; PECANHA-PJ-SECRETARIA 6.694,66 2.008,40 0,00 7.517,36 2.901,02 0,00 0,00 1.911,00 21.032,44 1.185,70 3.089,34 0,00 0,00 4.275,04 16.757,40 31/12/2022
878 251901 ELOISA COSTA E SILVA ANALISTA DO MP BELO HORIZONTE - COMARCA; SUPERINTENDENCIA GESTÃO DE PESSOAS 11.008,33 3.302,50 0,00 5.072,46 4.770,28 0,00 0,00 1.911,00 26.064,57 2.082,95 6.194,17 0,00 0,00 8.277,12 17.787,45 31/12/2022
879 400400 ELOIZA MARIA FERRI PIRES DA SILVA OFICIAL DO MP BELO HORIZONTE - COMARCA; ASSESSORIA DE COMUNICACAO INTEGRADA 9.378,86 1.875,77 0,00 4.033,36 3.751,54 0,00 0,00 1.911,00 20.950,53 1.593,95 4.606,33 0,00 0,00 6.200,28 14.750,25 31/12/2022
880 258000 ELSO CECIANO PALMEIRA OFICIAL DO MP BELO HORIZONTE - COMARCA; DIRET DE PESSOAL DO MINISTERIO PUBLICO - DPMP 14.224,47 9.957,13 5.287,54 11.453,48 9.823,05 0,00 0,00 1.911,00 52.656,67 3.662,27 15.156,40 0,00 0,00 18.818,67 33.838,00 31/12/2022
881 206900 ELVIRA RITA DOS SANTOS ANALISTA DO MP BELO HORIZONTE - COMARCA; CENTRAL DE APOIO TECNICO-SETOR CONTABIL 20.574,59 8.229,84 0,00 14.402,21 11.068,78 4.401,92 0,00 1.911,00 60.588,34 4.401,92 17.147,63 0,00 0,00 21.549,55 39.038,79 31/12/2022
882 506800 ELVIS FERREIRA DA SILVA ANALISTA DO MP BELO HORIZONTE - COMARCA; DIRETORIA DE SISTEMAS DE INFORMACAO 11.008,33 2.201,67 0,00 4.698,19 4.403,33 0,00 0,00 2.796,30 25.107,82 1.906,81 5.376,13 0,00 0,00 7.282,94 17.824,88 31/12/2022
883 602400 ELZA MARIA MOREIRA MUNIZ ANALISTA DO MP RIO PARANAÍBA - COMARCA; RIO PARANAIBA-PJ-UNPJ 11.008,33 1.100,83 0,00 4.699,64 4.036,39 0,00 0,00 1.911,00 22.756,19 1.730,68 4.870,90 0,00 0,00 6.601,58 16.154,61 31/12/2022
884 368401 ELZIRA SIMOES DOS SANTOS ASSESSOR DE GABINETE I BELO HORIZONTE - COMARCA; ASSESSORIA DE COMUNICACAO INTEGRADA 0,00 4.850,84 16.169,47 12.621,69 7.006,77 0,00 0,00 1.911,00 42.559,77 1.656,76 11.660,28 0,00 0,00 13.317,04 29.242,73 31/12/2022
885 437400 EMANOELLE DA SILVA RODRIGUES OFICIAL DO MP UNAÍ - COMARCA; UNAI-PJ-03PJ 8.932,15 1.786,43 0,00 4.020,09 3.572,86 0,00 0,00 2.796,30 21.107,83 1.508,19 4.205,26 0,00 0,00 5.713,45 15.394,38 31/12/2022
886 458900 EMANUELLE CONRAD SILVA FREDERICO NAVES ANALISTA DO MP ALFENAS - COMARCA; ALFENAS-PJ-05PJ 14.224,47 2.844,89 0,00 6.010,37 5.689,79 0,00 0,00 2.796,30 31.565,82 2.524,31 7.721,47 0,00 0,00 10.245,78 21.320,04 31/12/2022
887 284100 EMERSON MAGNO ALMEIDA PEDROSA DA FONSECA ANALISTA DO MP BELO HORIZONTE - COMARCA; CENTRAL DE APOIO TECNICO-SETOR CONTABIL 20.574,59 6.172,38 0,00 22.674,24 8.915,66 0,00 0,00 1.911,00 60.247,87 4.072,73 10.328,07 0,00 0,00 14.400,80 45.847,07 31/12/2022
888 179900 EMERSON MORAIS DIAS OFICIAL DO MP BELO HORIZONTE - COMARCA; SUPERINTENDÊNCIA DE ENGENHARIA E ARQUITETURA 19.037,29 7.614,92 0,00 9.775,99 8.884,07 0,00 0,00 1.911,00 47.223,27 4.057,57 13.131,46 0,00 0,00 17.189,03 30.034,24 31/12/2022
889 488700 EMERSON SIQUEIRA DE SOUSA TEIXEIRA ANALISTA DO MP ITANHOMI - COMARCA; ITANHOMI-PJ-UNPJ 11.008,33 2.201,67 0,00 4.698,19 4.403,33 0,00 0,00 1.911,00 24.222,52 1.906,81 5.376,13 0,00 0,00 7.282,94 16.939,58 31/12/2022
890 194200 EMILIA ALVES FERREIRA RAMOS OFICIAL DO MP UBERLÂNDIA - COMARCA; UBERLANDIA-PJ-SEC CIVEIS CRIMINAIS 12.118,97 4.847,59 0,00 5.975,42 5.655,52 0,00 0,00 1.911,00 30.508,50 2.507,86 7.768,83 0,00 0,00 10.276,69 20.231,81 31/12/2022
891 679500 EMILY DIAS LEMOS E SILVA ASSESSOR PROCURADOR JUSTICA BELO HORIZONTE - COMARCA; GABINETE DE PROCURADOR DE JUSTIÇA - SALA 515 0,00 0,00 7.857,77 3.928,88 2.619,26 0,00 0,00 2.796,30 17.202,21 1.656,76 3.005,77 0,00 0,00 4.662,53 12.539,68 31/12/2022
892 620700 EMILY FONTANA DE SIQUEIRA ANALISTA DO MP BELO HORIZONTE - COMARCA; BH-18PJ VIOLENCIA DOMESTICA-SECRETARIA 10.325,15 1.032,52 0,00 5.862,16 3.785,89 0,00 0,00 2.796,30 23.802,02 1.610,44 4.559,10 0,00 0,00 6.169,54 17.632,48 31/12/2022
893 297000 ENEIDA SOARES COSTA MELO ANALISTA DO MP PIUMHI - COMARCA; PIUMHI-PJ-01PJ 20.574,59 6.172,38 0,00 9.810,08 8.915,66 0,00 0,00 1.911,00 47.383,71 4.072,73 13.183,92 0,00 0,00 17.256,65 30.127,06 31/12/2022
894 276000 ENEZIO RODRIGUES DE SOUZA FILHO OFICIAL DO MP UBERLÂNDIA - COMARCA; UBERLANDIA-PJ-10PJ 11.008,33 3.302,50 0,00 5.072,46 4.770,28 0,00 0,00 1.911,00 26.064,57 2.082,95 6.298,44 0,00 0,00 8.381,39 17.683,18 31/12/2022
895 387700 ENI MARIA DOS REIS OFICIAL DO MP POUSO ALEGRE - COMARCA; POUSO ALEGRE-PJ-07PJ 9.999,62 1.999,92 0,00 6.122,90 3.999,85 0,00 0,00 1.911,00 24.033,29 1.713,14 5.018,76 0,00 0,00 6.731,90 17.301,39 31/12/2022
896 605100 ENIA MAIA ASSESSOR ADMINISTRATIVO IV BELO HORIZONTE - COMARCA; DIRETORIA DE ORCAMENTO-DIOR/SPC 12.920,95 1.292,10 0,00 6.135,05 4.737,68 0,00 0,00 1.911,00 26.996,78 971,47 6.847,01 0,00 0,00 7.818,48 19.178,30 31/12/2022
897 612200 ENILDO GOMES MEIRA FILHO ANALISTA DO MP BELO HORIZONTE - COMARCA; BH-23PJ INFRACIONAL-ASS JURIDICA 10.325,15 1.032,52 0,00 4.011,10 3.785,89 0,00 2.336,40 2.796,30 24.287,36 1.984,26 4.890,26 0,00 0,00 6.874,52 17.412,84 31/12/2022
898 553700 ENIVALDO NOVATO PUBLIO ANALISTA DO MP DIVINÓPOLIS - COMARCA; DIVINOPOLIS-PJ-09PJ 11.008,33 1.100,83 0,00 4.699,64 8.072,78 0,00 0,00 1.911,00 26.792,58 1.730,68 6.085,18 0,00 0,00 7.815,86 18.976,72 31/12/2022
899 680600 ENZO JOSE FERES SOUZA JABER ASSESSOR PROMOTOR JUSTICA NOVO CRUZEIRO - COMARCA; NOVO CRUZEIRO-PJ-SECRETARIA 0,00 0,00 7.857,77 3.928,88 2.619,26 0,00 0,00 1.911,00 16.316,91 1.656,76 3.214,31 0,00 0,00 4.871,07 11.445,84 31/12/2022
900 417300 ERIC BARATTI DA SILVA ANALISTA DO MP FRUTAL - COMARCA; FRUTAL-PJ-05PJ 11.736,91 2.347,38 0,00 7.239,28 4.694,76 0,00 0,00 1.911,00 27.929,33 2.046,70 6.173,02 0,00 0,00 8.219,72 19.709,61 31/12/2022
901 637600 ERIC DA ROCHA CHEHUEN ANALISTA DO MP LIMA DUARTE - COMARCA; LIMA DUARTE-PJ-UNPJ 9.999,62 999,96 0,00 10.072,41 3.666,53 0,00 0,00 1.911,00 26.649,52 927,17 4.809,40 0,00 0,00 5.736,57 20.912,95 31/12/2022
902 398900 ERIC TEIXEIRA SILVA OFICIAL DO MP UBERLÂNDIA - COMARCA; UBERLANDIA-PJ-SEC CIVEIS CRIMINAIS 10.325,15 2.065,03 0,00 4.419,45 4.130,06 0,00 0,00 1.911,00 22.850,69 1.775,64 5.235,04 0,00 0,00 7.010,68 15.840,01 31/12/2022
903 703600 ERICA CORDEIRO SANTOS ASSESSOR PROMOTOR JUSTICA MINAS NOVAS - COMARCA; MINAS NOVAS-PJ-UNPJ 0,00 0,00 7.857,77 3.928,88 2.619,26 0,00 0,00 1.911,00 16.316,91 1.656,76 3.214,31 0,00 0,00 4.871,07 11.445,84 31/12/2022
904 274200 ERICA DE SOUZA ANDRADE OFICIAL DO MP CURVELO - COMARCA; CURVELO-PJ-03PJ 12.118,97 3.635,69 0,00 5.563,37 5.251,55 0,00 0,00 1.911,00 28.480,58 2.313,96 6.993,57 0,00 0,00 9.307,53 19.173,05 31/12/2022
905 225700 ERICA GOMES DO COUTO OFICIAL DO MP BELO HORIZONTE - COMARCA; BH-21PJ TUTELA FUNDACOES-SECRETARIA 16.169,47 6.467,79 0,00 8.711,92 7.545,75 0,00 0,00 2.796,30 41.691,23 3.415,18 10.908,50 0,00 0,00 14.323,68 27.367,55 31/12/2022
906 632600 ERICA LEONOR MARTINS OFICIAL DO MP RESENDE COSTA - COMARCA; RESENDE COSTA-PJ-UNPJ 6.483,63 648,36 0,00 2.527,07 4.754,66 0,00 0,00 1.911,00 16.324,72 934,33 2.977,53 0,00 0,00 3.911,86 12.412,86 31/12/2022
907 524800 ERICA MACHADO DA COSTA E SOUZA ANALISTA DO MP BELO HORIZONTE - COMARCA; ASSESS TECNICO-JUR JUNTO AS PROC. DE JUST 12.118,97 2.423,79 0,00 5.380,55 4.847,59 0,00 904,47 1.911,00 27.586,37 2.120,06 6.675,58 0,00 0,00 8.795,64 18.790,73 31/12/2022
908 249500 ERICA RODRIGUES ANDRADE OFICIAL DO MP SÃO FRANCISCO - COMARCA; SAO FRANCISCO-PJ-02PJ 11.008,33 3.302,50 0,00 5.516,53 4.770,28 0,00 0,00 1.911,00 26.508,64 2.082,95 6.194,17 0,00 0,00 8.277,12 18.231,52 31/12/2022
909 260800 ERICA VIANA GIARDINI DE OLIVEIRA OFICIAL DO MP BELO HORIZONTE - COMARCA; DIRETORIA GESTAO COMPRAS LICITACOES 11.366,79 3.410,04 0,00 5.463,90 4.925,61 0,00 0,00 1.911,00 27.077,34 2.157,51 6.556,45 0,00 0,00 8.713,96 18.363,38 31/12/2022
910 299800 ERICH DOUGLAS RIBEIRO GARCIA ANALISTA DO MP BELO HORIZONTE - COMARCA; CENTRAL DE APOIO TECNICO-SETOR CONTABIL 19.791,01 5.937,30 0,00 9.444,33 8.576,10 0,00 0,00 1.911,00 45.659,74 3.909,74 12.619,92 0,00 0,00 16.529,66 29.130,08 31/12/2022
911 365000 ERICK EDUARDO JOSE DA SILVA OFICIAL DO MP JUIZ DE FORA - COMARCA; JUIZ DE FORA-PJ-12PJ 6.694,66 2.008,40 0,00 3.165,83 2.901,02 0,00 0,00 1.911,00 16.680,91 1.185,70 3.193,60 0,00 0,00 4.379,30 12.301,61 31/12/2022
912 227400 ERIKA DE LAET GOULART BOECHAT OFICIAL DO MP BELO HORIZONTE - COMARCA; BH-17PJ PATRIMONIO PUBLICO-SECRETARIA 16.169,47 4.850,84 0,00 7.353,69 7.006,77 0,00 0,00 1.911,00 37.291,77 3.156,46 9.908,98 0,00 0,00 13.065,44 24.226,33 31/12/2022
913 681301 ERIKA FERNANDA ELISEU FERREIRA ASSESSOR PROCURADOR JUSTICA BELO HORIZONTE - COMARCA; GABINETE DE PROCURADOR DE JUSTIÇA - SALA 411 0,00 0,00 7.857,77 3.928,88 2.619,26 0,00 0,00 1.911,00 16.316,91 1.656,76 3.214,31 0,00 0,00 4.871,07 11.445,84 31/12/2022
914 285100 ERIKA FERREIRA DA SILVA OFICIAL DO MP JUIZ DE FORA - COMARCA; JUIZ DE FORA-PJ-11PJ 11.008,33 3.302,50 0,00 5.072,46 4.770,28 0,00 0,00 1.911,00 26.064,57 2.082,95 6.298,44 0,00 0,00 8.381,39 17.683,18 31/12/2022
915 420100 ERIKA JEANINE VERSIANI DE CASTRO ANALISTA DO MP BELO HORIZONTE - COMARCA; CAO-EDUCACAO 16.169,47 3.233,89 0,00 7.109,88 6.467,79 0,00 0,00 1.911,00 34.892,03 2.897,75 9.118,00 0,00 0,00 12.015,75 22.876,28 31/12/2022
916 677100 ERIKA LAYS CARDOSO FERNANDES ASSESSOR PROMOTOR JUSTICA GRAO MOGOL - COMARCA; GRAO MOGOL-PJ-UNPJ 0,00 0,00 7.857,77 3.928,88 2.619,26 0,00 0,00 1.911,00 16.316,91 1.656,76 3.214,31 0,00 0,00 4.871,07 11.445,84 31/12/2022
917 606900 ERIKA MARIA BARBOSA ANALISTA DO MP BELO HORIZONTE - COMARCA; CAO-SAUDE 9.378,86 937,89 0,00 3.714,48 3.438,92 0,00 0,00 1.911,00 19.381,15 1.443,89 3.982,78 0,00 0,00 5.426,67 13.954,48 31/12/2022
918 491000 ERIKA ROCHA PEREIRA E SILVA COORDENADOR II BELO HORIZONTE - COMARCA; DIR GOVERNANCA TECNOLOGIA INFORMACAO 18.312,36 3.662,47 0,00 8.940,71 7.324,94 0,00 0,00 1.911,00 40.151,48 2.046,70 11.236,11 0,00 0,00 13.282,81 26.868,67 31/12/2022
919 283201 ERIKA STEHLING COORDENADOR I BELO HORIZONTE - COMARCA; CENTRAL DE APOIO TECNICO-SETOR DE ENGENHARIA 14.687,60 2.937,52 0,00 9.585,75 5.875,04 0,00 0,00 1.911,00 34.996,91 1.906,81 8.521,99 0,00 0,00 10.428,80 24.568,11 31/12/2022
920 254000 ERLANDIA DA SILVA MENDES OFICIAL DO MP IPATINGA - COMARCA; IPATINGA-PJ-03PJ 14.224,47 5.689,79 0,00 6.977,63 6.638,09 0,00 0,00 1.911,00 35.440,98 2.979,50 9.088,05 0,00 0,00 12.067,55 23.373,43 31/12/2022
921 348500 ERNILANDIA DE OLIVEIRA DIAS OFICIAL DO MP MONTES CLAROS - COMARCA; MONTES CLAROS-PJ-16PJ 9.999,62 2.999,89 0,00 4.626,61 4.333,17 0,00 0,00 1.911,00 23.870,29 1.873,14 5.572,40 0,00 0,00 7.445,54 16.424,75 31/12/2022
922 199300 ERTON PORTINARI DE ANDRADE OFICIAL DO MP SETE LAGOAS - COMARCA; SETE LAGOAS-PJ-05PJ 16.695,70 6.678,28 0,00 8.153,94 7.791,33 0,00 0,00 1.911,00 41.230,25 3.533,05 11.107,86 0,00 0,00 14.640,91 26.589,34 31/12/2022
923 618800 ESLY DE CARLA AYALLA BARBOSA MENDES OFICIAL DO MP NOVA LIMA - COMARCA; NOVA LIMA-PJ-SECRETARIA 6.081,20 608,12 0,00 2.584,65 2.229,77 0,00 0,00 1.911,00 13.414,74 865,50 2.077,57 0,00 0,00 2.943,07 10.471,67 31/12/2022
924 537000 ESTANISLAU CORREIA ALMEIDA JUNIOR OFICIAL DO MP UBERLÂNDIA - COMARCA; UBERLANDIA-PJ-25PJ 6.694,66 669,47 0,00 2.710,59 2.454,71 0,00 0,00 1.911,00 14.440,43 971,47 2.452,29 0,00 0,00 3.423,76 11.016,67 31/12/2022
925 692100 ESTEFANIA FARIA FERREIRA ASSESSOR PROCURADOR JUSTICA BELO HORIZONTE - COMARCA; GABINETE DE PROCURADOR DE JUSTIÇA - SALA 814 0,00 0,00 7.857,77 7.857,77 2.619,26 0,00 0,00 1.911,00 20.245,80 1.656,76 3.214,31 0,00 0,00 4.871,07 15.374,73 31/12/2022
926 326900 ESTER ALICE PIMENTA OFICIAL DO MP BELO HORIZONTE - COMARCA; COORD DE INCLUSAO E MOBILIZACAO SOCIAIS 11.008,33 3.302,50 0,00 5.072,46 4.770,28 0,00 0,00 1.911,00 26.064,57 2.082,95 6.298,44 0,00 0,00 8.381,39 17.683,18 31/12/2022
927 503700 ESTHER GONCALVES FONSECA ANALISTA DO MP BELO HORIZONTE - COMARCA; DIR CRIACAO E MIDIAS 11.008,33 2.201,67 0,00 4.906,44 4.403,33 0,00 0,00 1.911,00 24.430,77 1.906,81 5.688,95 0,00 0,00 7.595,76 16.835,01 31/12/2022
928 475600 ETIENE DE FATIMA OLIVEIRA PEREIRA ANALISTA DO MP PATROCÍNIO - COMARCA; PATROCINIO-PJ-04PJ 11.008,33 2.201,67 0,00 5.677,83 4.403,33 0,00 0,00 1.911,00 25.202,16 927,17 5.833,99 0,00 0,00 6.761,16 18.441,00 31/12/2022
929 428800 EUGENIA RODRIGUES TRAJANO BORGES ANALISTA DO MP UBERABA - COMARCA; UBERABA-PJ-10PJ 15.659,55 3.131,91 0,00 7.456,93 6.263,82 0,00 482,31 8.057,91 41.052,43 2.799,85 8.779,21 0,00 0,00 11.579,06 29.473,37 31/12/2022
930 272700 EUGENIO DE BARCELOS FILHO OFICIAL DO MP FRUTAL - COMARCA; FRUTAL-PJ-03PJ 9.999,62 2.999,89 0,00 6.658,38 4.333,17 0,00 0,00 1.911,00 25.902,06 1.873,14 5.572,40 0,00 0,00 7.445,54 18.456,52 31/12/2022
931 254100 EULALIA ALVES MIRANDA LUCAS OFICIAL DO MP ALMENARA - COMARCA; ALMENARA-PJ-02PJ 14.224,47 5.689,79 0,00 7.291,54 6.638,09 0,00 0,00 1.911,00 35.754,89 2.979,50 9.192,32 0,00 0,00 12.171,82 23.583,07 31/12/2022
932 641200 EUNICE ELVIRA DA SILVA MATOS OFICIAL DO MP BELO HORIZONTE - COMARCA; BH-14PJ DEFESA CONSUMIDOR-SECRETARIA 5.889,39 588,94 0,00 2.654,56 2.159,44 0,00 0,00 1.911,00 13.203,33 832,79 1.960,17 0,00 0,00 2.792,96 10.410,37 31/12/2022
933 557900 EURIPEDES JOSUE PERES OFICIAL DO MP IBIÁ - COMARCA; IBIA-PJ-UNPJ 6.694,66 669,47 0,00 6.392,66 2.454,71 0,00 0,00 1.911,00 18.122,50 971,47 2.452,29 0,00 0,00 3.423,76 14.698,74 31/12/2022
934 225800 EURO CESAR VIEIRA BARBOSA ANALISTA DO MP BELO HORIZONTE - COMARCA; BH-17PJ PATRIMONIO PUBLICO-SECRETARIA 20.574,59 8.229,84 0,00 10.000,29 9.601,48 0,00 0,00 1.911,00 50.317,20 4.401,92 14.114,52 0,00 0,00 18.516,44 31.800,76 31/12/2022
935 199400 EUSTAQUIO ADAILTON LIMA E SILVA OFICIAL DO MP MANGA - COMARCA; MANGA-PJ-01PJ 18.312,36 12.818,66 0,00 17.126,46 10.377,01 0,00 0,00 1.911,00 60.545,49 4.774,18 15.298,40 0,00 0,00 20.072,58 40.472,91 31/12/2022
936 548000 EVA VILMA LEAO REIS JULIO OFICIAL DO MP BELO HORIZONTE - COMARCA; BH-07PJ 01 TRIBUNAL JURI-SECRETARIA 6.694,66 2.677,86 0,00 3.728,17 3.124,17 0,00 0,00 1.911,00 18.135,86 1.292,82 3.564,27 0,00 0,00 4.857,09 13.278,77 31/12/2022
937 517000 EVALDO SENA COSTA FILHO ANALISTA DO MP CONTAGEM - COMARCA; CONTAGEM-PJ-20PJ 11.008,33 4.403,33 0,00 5.997,16 5.137,22 0,00 0,00 1.911,00 28.457,04 2.259,08 6.699,39 0,00 0,00 8.958,47 19.498,57 31/12/2022
938 217500 EVELANGE LEAO RABELO ASSESSOR ADMINISTRATIVO II BELO HORIZONTE - COMARCA; CAO-PESSOAS IDOSAS E PESSOAS COM DEFICIENCIA 0,00 2.677,86 6.694,66 4.686,26 3.124,17 0,00 0,00 1.911,00 19.093,95 1.656,76 4.186,28 0,00 0,00 5.843,04 13.250,91 31/12/2022
939 679600 EVERTON BARBOSA DA SILVA ASSESSOR PROCURADOR JUSTICA BELO HORIZONTE - COMARCA; GABINETE DE PROCURADOR DE JUSTIÇA - SALA 510 0,00 0,00 7.857,77 3.928,88 2.619,26 0,00 0,00 1.911,00 16.316,91 1.656,76 3.214,31 0,00 0,00 4.871,07 11.445,84 31/12/2022
940 540400 EVIE SARAMELLA DE RESENDE OFICIAL DO MP BARBACENA - COMARCA; BARBACENA-PJ-05PJ 6.694,66 669,47 0,00 2.710,59 2.454,71 0,00 0,00 1.911,00 14.440,43 971,47 2.452,29 0,00 0,00 3.423,76 11.016,67 31/12/2022
941 469000 EWERTON CARDOSO DE SA RODRIGUES ANALISTA DO MP CAMPO BELO - COMARCA; CAMPO BELO-PJ-02PJ 11.008,33 2.201,67 0,00 4.698,19 4.403,33 0,00 0,00 1.911,00 24.222,52 1.906,81 5.480,40 0,00 0,00 7.387,21 16.835,31 31/12/2022
942 368900 FABIANA BARBOSA SIQUEIRA OFICIAL DO MP BELO HORIZONTE - COMARCA; CAO-ORDEM ECONOMICA E TRIBUTARIA-SECRETARIA 11.736,91 3.521,07 0,00 5.394,50 5.085,99 0,00 0,00 1.911,00 27.649,47 2.234,49 6.718,57 0,00 0,00 8.953,06 18.696,41 31/12/2022
943 273800 FABIANA CARNEIRO AMORIM OFICIAL DO MP BELO HORIZONTE - COMARCA; BH-23PJ CIVEL-COORD ADM CIVEL 13.341,69 4.002,51 3.876,29 8.041,95 7.073,50 0,00 0,00 1.911,00 38.246,94 2.568,29 10.360,93 0,00 0,00 12.929,22 25.317,72 31/12/2022
944 519300 FABIANA DE OLIVEIRA LOUREIRO ANALISTA DO MP BELO HORIZONTE - COMARCA; BH-09PJ AUDITORIA MILITAR-SECRETARIA 11.008,33 2.201,67 0,00 4.698,19 4.403,33 0,00 0,00 1.911,00 24.222,52 1.906,81 5.688,95 0,00 0,00 7.595,76 16.626,76 31/12/2022
945 363400 FABIANA DOURADO DUPIN VIEGAS ANALISTA DO MP BELO HORIZONTE - COMARCA; GABINETE DE PROCURADOR DE JUSTIÇA - SALA 705 18.312,36 5.493,71 0,00 12.419,23 7.935,36 0,00 0,00 1.911,00 46.071,66 3.602,18 11.451,37 0,00 0,00 15.053,55 31.018,11 31/12/2022
946 410800 FABIANA DUARTE QUITITE ANALISTA DO MP BELO HORIZONTE - COMARCA; BH-15PJ M AMB PAT HIST CULT-GAB 116PJ 16.169,47 3.233,89 0,00 7.109,88 6.467,79 0,00 0,00 1.911,00 34.892,03 2.897,75 9.118,00 0,00 0,00 12.015,75 22.876,28 31/12/2022
947 419500 FABIANA EULALIA DOS SANTOS ANALISTA DO MP SÃO JOÃO DEL REI - COMARCA; SAO JOAO DEL REI-PJ-01PJ 15.659,55 3.131,91 0,00 9.759,98 6.263,82 0,00 0,00 1.911,00 36.726,26 2.799,85 8.779,21 0,00 0,00 11.579,06 25.147,20 31/12/2022
948 725200 FABIANA LOPES DE JESUS ASSESSOR PROMOTOR JUSTICA CONTAGEM - COMARCA; CONTAGEM-PJ-01PJ 0,00 0,00 7.857,77 3.928,89 0,00 0,00 0,00 1.911,00 13.697,66 1.306,27 1.717,98 0,00 0,00 3.024,25 10.673,41 31/12/2022
949 700300 FABIANA MARCIA DE SOUZA ASSESSOR ADMINISTRATIVO II BELO HORIZONTE - COMARCA; DIRET DE CONTROLE E DE MANUTENCAO DE IMOVEIS 0,00 0,00 6.694,66 4.864,95 2.231,55 0,00 0,00 1.911,00 15.702,16 1.601,81 2.483,10 0,00 0,00 4.084,91 11.617,25 31/12/2022
950 331500 FABIANA PACHECO OFICIAL DO MP GUAXUPÉ - COMARCA; GUAXUPE-PJ-01PJ 11.008,33 3.302,50 0,00 5.072,46 4.770,28 0,00 0,00 2.796,30 26.949,87 2.082,95 6.089,89 0,00 0,00 8.172,84 18.777,03 31/12/2022
951 510700 FABIANA PEREIRA SANTOS BORGES ANALISTA DO MP BELO HORIZONTE - COMARCA; DIRETORIA DE SISTEMAS DE INFORMACAO 11.008,33 2.201,67 4.939,72 9.637,91 6.049,91 0,00 532,39 7.718,91 42.088,84 1.906,81 8.754,33 0,00 0,00 10.661,14 31.427,70 31/12/2022
952 181700 FABIANA SOUZA FERREIRA OFICIAL DO MP BELO HORIZONTE - COMARCA; BH-19PJ SAUDE-SECRETARIA 150PJ 6.694,66 2.677,86 0,00 3.393,44 3.124,17 0,00 0,00 1.911,00 17.801,13 1.292,82 3.355,71 0,00 0,00 4.648,53 13.152,60 31/12/2022
953 272900 FABIANA STOCKLER LEITE OFICIAL DO MP LAJINHA - COMARCA; LAJINHA-PJ-SECRETARIA 11.008,33 5.504,17 0,00 5.821,04 5.504,17 0,00 0,00 1.911,00 29.748,71 2.435,21 7.413,16 0,00 0,00 9.848,37 19.900,34 31/12/2022
954 225500 FABIANE DE FATIMA PORTELLA ANALISTA DO MP BELO HORIZONTE - COMARCA; BH-18PJ DIREITOS HUMANOS-SECRETARIA 20.574,59 8.229,84 0,00 11.029,02 9.601,48 0,00 0,00 1.911,00 51.345,93 4.401,92 14.323,07 0,00 0,00 18.724,99 32.620,94 31/12/2022
955 433800 FABIANE DINIZ MATTOS ANALISTA DO MP BELO HORIZONTE - COMARCA; BH-23PJ INFRACIONAL-ASS JURIDICA 15.659,55 3.131,91 0,00 6.595,88 12.527,64 0,00 5.798,52 3.681,60 47.395,10 3.727,61 11.841,22 0,00 0,00 15.568,83 31.826,27 31/12/2022
956 455000 FABIANO CARVALHO DA SILVA ANALISTA DO MP LAVRAS - COMARCA; LAVRAS-PJ-05PJ 11.008,33 2.201,67 0,00 4.698,19 4.403,33 0,00 0,00 1.911,00 24.222,52 1.906,81 5.688,95 0,00 0,00 7.595,76 16.626,76 31/12/2022
957 498800 FABIANO FURTADO PESSOA COELHO ANALISTA DO MP BELO HORIZONTE - COMARCA; DIRETORIA DE REDES E BANCOS DE DADOS 11.008,33 2.201,67 3.585,64 8.283,83 5.598,55 0,00 0,00 1.911,00 32.589,02 1.906,81 7.781,18 0,00 0,00 9.687,99 22.901,03 31/12/2022
958 663000 FABIANO MARQUES CORREA ASSESSOR ADMINISTRATIVO II BELO HORIZONTE - COMARCA; DIRETORIA DE SUPORTE E MANUTENCAO 0,00 0,00 6.694,66 3.347,33 2.231,55 0,00 540,04 7.802,30 20.615,88 1.458,55 2.522,49 0,00 0,00 3.981,04 16.634,84 31/12/2022
959 394600 FABIANO PALHARES SILVA ANALISTA DO MP BELO HORIZONTE - COMARCA; CENTRAL DE APOIO TECN-SETOR DE MEIO AMBIENTE 16.169,47 3.233,89 0,00 10.843,02 12.935,58 0,00 881,26 1.911,00 45.974,22 2.897,75 12.246,45 0,00 0,00 15.144,20 30.830,02 31/12/2022
960 676600 FABIANO RESENDE VELOSO ASSESSOR PROCURADOR JUSTICA BELO HORIZONTE - COMARCA; GABINETE DE PROCURADOR DE JUSTIÇA - SALA 1002 0,00 0,00 7.857,77 3.928,88 2.619,26 0,00 0,00 1.911,00 16.316,91 1.656,76 3.214,31 0,00 0,00 4.871,07 11.445,84 31/12/2022
961 444400 FABIANO SARAIVA MEDEIROS ANALISTA DO MP BETIM - COMARCA; BETIM-PJ-11PJ 14.224,47 2.844,89 0,00 6.010,37 5.689,79 0,00 0,00 1.911,00 30.680,52 2.524,31 7.617,20 0,00 0,00 10.141,51 20.539,01 31/12/2022
962 408700 FABIANO SOARES PORTILHO ANALISTA DO MP JUIZ DE FORA - COMARCA; GAECO REGIONAL DA ZONA DA MATA-JUIZ DE FORA 15.659,55 3.131,91 0,00 6.595,88 6.263,82 0,00 0,00 1.911,00 33.562,16 2.799,85 8.779,21 0,00 0,00 11.579,06 21.983,10 31/12/2022
963 442600 FABIO CARVALHO VIEIRA ANALISTA DO MP MONTES CLAROS - COMARCA; MONTES CLAROS-PJ-06PJ 11.008,33 2.201,67 0,00 4.698,19 4.403,33 0,00 0,00 1.911,00 24.222,52 1.906,81 5.688,95 0,00 0,00 7.595,76 16.626,76 31/12/2022
964 716600 FABIO DAMASCENA MONTEIRO DE CARVALHO ASSESSOR PROMOTOR JUSTICA JACINTO - COMARCA; JACINTO-PJ-UNPJ 0,00 0,00 7.857,77 3.928,89 2.619,26 0,00 0,00 1.911,00 16.316,92 1.656,76 3.034,24 0,00 0,00 4.691,00 11.625,92 31/12/2022
965 702700 FABIO JUNIOR COSTA BARREIROS ASSESSOR ADMINISTRATIVO I BELO HORIZONTE - COMARCA; DIVISAO DE MANUTENCAO PREDIAL 0,00 0,00 4.345,58 2.172,79 1.448,53 0,00 0,00 2.501,20 10.468,10 1.075,73 601,09 0,00 0,00 1.676,82 8.791,28 31/12/2022
966 240101 FABIO JUNQUEIRA DE ASSIS FONSECA OFICIAL DO MP BELO HORIZONTE - COMARCA; BH-17PJ PATRIMONIO PUBLICO-SECRETARIA 9.223,00 2.766,90 0,00 4.283,35 3.996,63 0,00 527,56 7.666,15 28.463,59 1.711,60 5.013,42 0,00 0,00 6.725,02 21.738,57 31/12/2022
967 271500 FABIO LUIZ VIEIRA OFICIAL DO MP SANTA VITÓRIA - COMARCA; SANTA VITORIA-PJ-UNPJ 11.008,33 3.302,50 0,00 5.072,46 4.770,28 0,00 0,00 1.966,05 26.119,62 2.082,95 6.194,17 0,00 0,00 8.277,12 17.842,50 31/12/2022
968 213100 FABIO PRATES GONCALVES ASSESSOR ADMINISTRATIVO IV BELO HORIZONTE - COMARCA; DIR RELACOES INSTITUCIONAIS 0,00 5.168,38 12.920,95 9.044,66 6.029,78 0,00 0,00 1.911,00 35.074,77 1.656,76 9.466,74 0,00 0,00 11.123,50 23.951,27 31/12/2022
969 436700 FABIO SANTIAGO DE CARVALHO OFICIAL DO MP POÇO FUNDO - COMARCA; POCO FUNDO-PJ-UNPJ 9.684,23 1.936,85 0,00 4.157,95 3.873,69 0,00 0,00 1.911,00 21.563,72 1.652,59 4.809,21 0,00 0,00 6.461,80 15.101,92 31/12/2022
970 208400 FABIOLA DE SOUSA CARDOSO ANALISTA DO MP BELO HORIZONTE - COMARCA; CGMP-ASSESSORIA JURIDICA 20.574,59 8.229,84 5.493,71 12.747,15 11.432,71 0,00 0,00 1.911,00 60.389,00 4.401,92 17.848,20 0,00 0,00 22.250,12 38.138,88 31/12/2022
971 392200 FABIOLA LEROY COSTA ANALISTA DO MP ESMERALDAS - COMARCA; ESMERALDAS-PJ-01PJ 11.008,33 2.201,67 0,00 11.303,19 4.403,33 0,00 0,00 3.681,60 32.598,12 1.906,81 5.688,95 0,00 0,00 7.595,76 25.002,36 31/12/2022
972 409000 FABIOLA MONTEIRO DE CARVALHO CASTRO ANALISTA DO MP BOM SUCESSO - COMARCA; BOM SUCESSO-PJ-UNPJ 13.776,02 2.755,20 0,00 6.087,99 5.510,41 0,00 0,00 1.911,00 30.040,62 2.438,21 7.527,80 0,00 0,00 9.966,01 20.074,61 31/12/2022
973 525800 FABRICIA ALVES DANTAS OFICIAL DO MP MONTES CLAROS - COMARCA; MONTES CLAROS-PJ-01PJ 8.377,76 1.675,55 0,00 3.624,91 3.351,10 0,00 0,00 1.911,00 18.940,32 1.401,74 3.836,92 0,00 0,00 5.238,66 13.701,66 31/12/2022
974 263400 FABRICIA PINTO TEIXEIRA SANTIAGO OFICIAL DO MP BELO HORIZONTE - COMARCA; CAO-FUNDACOES-SECRETARIA 14.224,47 4.267,34 0,00 6.494,00 6.163,94 0,00 0,00 1.911,00 33.060,75 2.751,90 8.404,76 0,00 0,00 11.156,66 21.904,09 31/12/2022
975 420800 FABRICIO BERNARDES DE OLIVEIRA OFICIAL DO MP ITURAMA - COMARCA; ITURAMA-PJ-02PJ 9.684,23 1.936,85 0,00 4.157,95 3.873,69 0,00 0,00 2.851,35 22.504,07 1.652,59 4.704,94 0,00 0,00 6.357,53 16.146,54 31/12/2022
976 474000 FABRICIO DE FREITAS SALES ANALISTA DO MP MONTES CLAROS - COMARCA; COORD REG PP NORTE MINAS GERAIS MONTES CLAROS 11.008,33 2.201,67 0,00 4.698,19 4.403,33 0,00 0,00 1.911,00 24.222,52 1.906,81 5.688,95 0,00 0,00 7.595,76 16.626,76 31/12/2022
977 510100 FABRICIO FURTADO ASSIS DO CARMO ANALISTA DO MP BELO HORIZONTE - COMARCA; SERVICO MEDICO-DEPTO PERIC MEDICA SAUDE OCUP 11.008,33 2.201,67 0,00 5.224,85 4.754,44 0,00 1.053,33 3.681,60 27.924,22 1.906,81 6.364,83 0,00 0,00 8.271,64 19.652,58 31/12/2022
978 519600 FABRICIO GONTIJO SALVATI ANALISTA DO MP JUIZ DE FORA - COMARCA; JUIZ DE FORA-CAO ESPECIALIZADO-SECRETARIA 11.008,33 2.201,67 0,00 6.771,11 4.403,33 0,00 0,00 1.911,00 26.295,44 1.906,81 5.688,95 0,00 0,00 7.595,76 18.699,68 31/12/2022
979 637400 FABRICIO HENRIQUE DA SILVA PASSOS ANALISTA DO MP BELO HORIZONTE - COMARCA; DIR CRIACAO E MIDIAS 11.008,33 1.100,83 3.585,64 8.467,45 5.231,60 0,00 0,00 1.911,00 31.304,85 1.730,68 6.794,38 0,00 2.130,36 10.655,42 20.649,43 31/12/2022
980 428200 FABRICIO ORZIL VIANA ANALISTA DO MP SANTA LUZIA - COMARCA; SANTA LUZIA-PJ-04PJ 11.008,33 2.201,67 0,00 6.771,11 4.403,33 0,00 0,00 1.911,00 26.295,44 1.906,81 5.688,95 0,00 0,00 7.595,76 18.699,68 31/12/2022
981 455600 FABRICIO PAIVA DA ROCHA ANALISTA DO MP SÃO JOÃO DEL REI - COMARCA; SAO JOAO DEL REI-PJ-06PJ 11.008,33 2.201,67 0,00 4.698,19 4.403,33 0,00 0,00 2.796,30 25.107,82 1.906,81 5.584,67 0,00 0,00 7.491,48 17.616,34 31/12/2022
982 511500 FABRICIO RENE CARDOSO DE PADUA ANALISTA DO MP SÃO SEBASTIÃO DO PARAÍSO - COMARCA; SAO SEBASTIAO DO PARAISO-PJ-03PJ 11.008,33 2.201,67 0,00 4.698,19 4.403,33 0,00 0,00 1.911,00 24.222,52 1.906,81 5.688,95 0,00 0,00 7.595,76 16.626,76 31/12/2022
983 496100 FABRICIO RESENDE GONCALVES OFICIAL DO MP ENTRE-RIOS DE MINAS - COMARCA; ENTRE RIOS DE MINAS-PJ-UNPJ 8.377,76 1.675,55 0,00 8.651,57 3.351,10 0,00 0,00 1.911,00 23.966,98 1.401,74 3.941,19 0,00 0,00 5.342,93 18.624,05 31/12/2022
984 650300 FABRICIO ROBERTO AZEVEDO OFICIAL DO MP NOVA SERRANA - COMARCA; NOVA SERRANA-PJ-04PJ 5.266,66 526,67 0,00 2.167,06 1.931,11 0,00 0,00 1.911,00 11.802,50 729,60 1.577,39 0,00 0,00 2.306,99 9.495,51 31/12/2022
985 514900 FADUA MARIA DRUMOND CHEQUER ANALISTA DO MP BETIM - COMARCA; BETIM-PJ-12PJ 11.008,33 2.201,67 0,00 6.718,97 4.403,33 0,00 0,00 1.911,00 26.243,30 1.906,81 5.480,40 0,00 0,00 7.387,21 18.856,09 31/12/2022
986 282500 FANNY FERREIRA MELO OFICIAL DO MP ARAXÁ - COMARCA; ARAXA-PJ-03PJ 11.366,79 3.410,04 0,00 5.463,90 4.925,61 0,00 0,00 1.911,00 27.077,34 2.157,51 6.556,45 0,00 0,00 8.713,96 18.363,38 31/12/2022
987 692500 FARID JUNIOR NUNES DA SILVA ASSESSOR PROCURADOR JUSTICA BELO HORIZONTE - COMARCA; GABINETE DE PROCURADOR DE JUSTIÇA - SALA 912 0,00 0,00 7.857,77 3.928,88 2.619,26 0,00 0,00 1.911,00 16.316,91 1.656,76 3.005,77 0,00 0,00 4.662,53 11.654,38 31/12/2022
988 382800 FATIMA DE OLIVEIRA COELHO E SILVA OFICIAL DO MP BELO HORIZONTE - COMARCA; DIRETORIA DE ADMINISTRACAO FINANCEIRA 9.999,62 2.999,89 3.585,64 6.624,44 5.528,38 0,00 0,00 1.911,00 30.648,97 1.873,14 7.768,92 0,00 0,00 9.642,06 21.006,91 31/12/2022
989 398601 FELIPE ANTONIO HORTA DE PAULA ANALISTA DO MP BELO HORIZONTE - COMARCA; PROC. JUSTICA DIR. DIFUSOS E COLETIVOS-SEC 11.008,33 1.100,83 0,00 4.699,64 4.036,39 0,00 0,00 1.911,00 22.756,19 1.730,68 5.079,45 0,00 0,00 6.810,13 15.946,06 31/12/2022
990 430900 FELIPE BOY VIEIRA ANALISTA DO MP BELO HORIZONTE - COMARCA; DIRETORIA DE SEGURANCA 14.224,47 2.844,89 0,00 7.876,58 5.689,79 0,00 0,00 1.911,00 32.546,73 927,17 8.292,41 0,00 0,00 9.219,58 23.327,15 31/12/2022
991 631700 FELIPE DE MORAIS SIMOES COELHO ANALISTA DO MP BELO HORIZONTE - COMARCA; BH-18PJ VIOLENCIA DOMESTICA-SECRETARIA 9.223,00 922,30 0,00 3.656,19 3.381,77 0,00 0,00 1.911,00 19.094,26 1.416,46 3.992,13 0,00 0,00 5.408,59 13.685,67 31/12/2022
992 549100 FELIPE FERNANDES ALVIM ANALISTA DO MP LAJINHA - COMARCA; LAJINHA-PJ-UNPJ 11.008,33 1.100,83 0,00 4.699,64 4.036,39 0,00 0,00 2.796,30 23.641,49 1.730,68 5.079,45 0,00 0,00 6.810,13 16.831,36 31/12/2022
993 693100 FELIPE FROIS DO AMARAL ASSESSOR PROMOTOR JUSTICA RIBEIRÃO DAS NEVES - COMARCA; RIBEIRAO NEVES-SEC PJ EXECUCAO PENAL 0,00 0,00 7.857,77 3.928,88 2.619,26 0,00 0,00 1.911,00 16.316,91 1.656,76 3.005,77 0,00 0,00 4.662,53 11.654,38 31/12/2022
994 620100 FELIPE GOMES DE AZEVEDO OFICIAL DO MP BELO HORIZONTE - COMARCA; DIVISAO DE SERVICOS 6.081,20 608,12 3.585,64 4.377,47 3.424,99 0,00 0,00 1.911,00 19.988,42 865,50 4.378,35 0,00 0,00 5.243,85 14.744,57 31/12/2022
995 601600 FELIPE RODRIGUES DE SIQUEIRA ANALISTA DO MP BELO HORIZONTE - COMARCA; BH-02PJ FAMILIA-SECRETARIA 11.008,33 1.100,83 0,00 5.503,15 4.036,39 0,00 0,00 1.911,00 23.559,70 927,17 4.914,27 0,00 0,00 5.841,44 17.718,26 31/12/2022
996 628900 FELIX FERNANDO JUNIO VIEIRA ANALISTA DO MP BELO HORIZONTE - COMARCA; BH-21PJ TUTELA DAS FUNDACOES-ASS CURADORES 10.325,15 1.032,52 0,00 5.836,09 3.785,89 0,00 0,00 2.796,30 23.775,95 1.610,44 4.454,82 0,00 0,00 6.065,26 17.710,69 31/12/2022
997 544500 FELLIPE LEMOS MARCONDES BUENO ANALISTA DO MP SÃO SEBASTIÃO DO PARAÍSO - COMARCA; SAO SEBASTIAO DO PARAISO-PJ-04PJ 11.008,33 1.100,83 0,00 4.203,66 4.036,39 0,00 0,00 1.911,00 22.260,21 1.730,68 5.079,45 0,00 0,00 6.810,13 15.450,08 31/12/2022
998 688500 FELLIPE TADEU DE ANDRADE RAMOS ASSESSOR PROCURADOR JUSTICA BELO HORIZONTE - COMARCA; GABINETE DE PROCURADOR DE JUSTIÇA - SALA 907 0,00 0,00 7.857,77 3.928,88 2.619,26 0,00 0,00 1.911,00 16.316,91 1.656,76 3.214,31 0,00 0,00 4.871,07 11.445,84 31/12/2022
999 612600 FERNANDA ADRIANA DE PAULA GUIDO ANALISTA DO MP BELO HORIZONTE - COMARCA; SUPERINTENDENCIA GESTÃO DE PESSOAS 10.325,15 1.032,52 0,00 4.011,10 3.785,89 0,00 0,00 2.796,30 21.950,96 1.610,44 4.663,38 0,00 0,00 6.273,82 15.677,14 31/12/2022
1000 508400 FERNANDA AGANETTI MATTOS DE OLIVEIRA ANALISTA DO MP BELO HORIZONTE - COMARCA; SUPER DE RECURSOS HUMANOS-COOP REMOTA 11.008,33 2.201,67 0,00 5.677,83 4.403,33 0,00 0,00 3.681,60 26.972,76 927,17 6.227,75 0,00 0,00 7.154,92 19.817,84 31/12/2022
1001 453600 FERNANDA ALBERNAZ RABELO ANALISTA DO MP BELO HORIZONTE - COMARCA; GABINETE DE PROCURADOR DE JUSTIÇA - SALA 616 11.008,33 2.201,67 0,00 4.698,19 4.403,33 0,00 0,00 2.796,30 25.107,82 1.906,81 5.688,95 0,00 0,00 7.595,76 17.512,06 31/12/2022
1002 255600 FERNANDA ALINA DE ALMEIDA ANDRADE OFICIAL DO MP BELO HORIZONTE - COMARCA; DIRETORIA DE INTELIGENCIA 11.008,33 3.302,50 0,00 5.072,46 4.770,28 0,00 0,00 1.911,00 26.064,57 2.082,95 6.298,44 0,00 0,00 8.381,39 17.683,18 31/12/2022
1003 443200 FERNANDA ALMEIDA LOPES ANALISTA DO MP CONTAGEM - COMARCA; CONTAGEM-PJ-10PJ 15.659,55 3.131,91 0,00 7.456,93 6.263,82 0,00 137,80 4.299,62 36.949,63 2.799,85 8.570,67 0,00 0,00 11.370,52 25.579,11 31/12/2022
1004 281100 FERNANDA ANANIAS MEIRA ANALISTA DO MP BELO HORIZONTE - COMARCA; BH-23PJ INFRACIONAL-ASS JURIDICA 19.791,01 5.937,30 0,00 9.444,33 8.576,10 0,00 1.323,18 1.911,00 46.982,92 4.121,45 12.925,58 0,00 0,00 17.047,03 29.935,89 31/12/2022
1005 539000 FERNANDA BARBOSA ALVES ANALISTA DO MP UBERABA - COMARCA; UBERABA-PJ-04PJ 11.008,33 1.100,83 0,00 4.203,66 4.036,39 0,00 0,00 2.796,30 23.145,51 1.730,68 5.079,45 0,00 0,00 6.810,13 16.335,38 31/12/2022
1006 451200 FERNANDA BLOISE PRADO OFICIAL DO MP BELO HORIZONTE - COMARCA; GAECO - SECRETARIA 9.223,00 1.844,60 0,00 3.969,77 3.689,20 0,00 0,00 1.911,00 20.637,57 1.564,03 4.502,77 0,00 0,00 6.066,80 14.570,77 31/12/2022
1007 427900 FERNANDA BRAGA CARNEIRO BICALHO ANALISTA DO MP PEÇANHA - COMARCA; PECANHA-PJ-SECRETARIA 11.008,33 2.201,67 0,00 4.698,19 4.403,33 0,00 0,00 1.911,00 24.222,52 1.906,81 5.584,67 0,00 0,00 7.491,48 16.731,04 31/12/2022
1008 507100 FERNANDA CABRINI VAZ MOTA ANALISTA DO MP BELO HORIZONTE - COMARCA; DIVISAO DE MATERIAIS 11.008,33 2.201,67 0,00 5.677,83 4.403,33 0,00 0,00 3.681,60 26.972,76 927,17 5.975,19 0,00 0,00 6.902,36 20.070,40 31/12/2022
1009 259800 FERNANDA CALZAVARA DE SOUSA OFICIAL DO MP BELO HORIZONTE - COMARCA; DIRET DE INFORMACAO E CONHECIMENTO-DINC/CEAF 14.224,47 4.267,34 5.493,71 9.240,86 7.995,17 0,00 0,00 2.796,30 44.017,85 2.751,90 12.034,17 0,00 0,00 14.786,07 29.231,78 31/12/2022
1010 494400 FERNANDA CAMPOS BARATA OFICIAL DO MP JUIZ DE FORA - COMARCA; JUIZ DE FORA-PJ-08PJ 6.694,66 1.338,93 0,00 2.938,20 2.677,86 0,00 0,00 1.911,00 15.560,65 1.078,59 2.822,95 0,00 0,00 3.901,54 11.659,11 31/12/2022
1011 555600 FERNANDA CAROLINE RIBEIRO ANALISTA DO MP BELO HORIZONTE - COMARCA; DIRETORIA GESTAO CONTRATOS CONVENIOS 11.008,33 1.100,83 0,00 4.699,64 4.036,39 0,00 0,00 1.911,00 22.756,19 1.730,68 5.079,45 0,00 0,00 6.810,13 15.946,06 31/12/2022
1012 692000 FERNANDA CESAR SILVA ASSESSOR PROCURADOR JUSTICA BELO HORIZONTE - COMARCA; GABINETE DE PROCURADOR DE JUSTIÇA - SALA 809 0,00 0,00 7.857,77 4.874,93 2.619,26 0,00 0,00 1.911,00 17.262,96 1.656,76 3.214,31 0,00 0,00 4.871,07 12.391,89 31/12/2022
1013 294500 FERNANDA COSTA FLORES OFICIAL DO MP PARÁ DE MINAS - COMARCA; PARA DE MINAS-PJ-04PJ 11.736,91 3.521,07 0,00 5.635,07 5.085,99 0,00 0,00 1.911,00 27.890,04 2.234,49 6.822,85 0,00 0,00 9.057,34 18.832,70 31/12/2022
1014 344500 FERNANDA CRISTINA DE SOUZA PAZ ASSESSOR ADMINISTRATIVO II BELO HORIZONTE - COMARCA; CENTRAL DE APOIO TECN-SETOR DE MEIO AMBIENTE 0,00 0,00 6.694,66 3.347,33 2.231,55 0,00 0,00 1.911,00 14.184,54 1.601,81 2.274,54 0,00 0,00 3.876,35 10.308,19 31/12/2022
1015 538100 FERNANDA CRISTINA DOS SANTOS ROSA OFICIAL DO MP RIBEIRÃO DAS NEVES - COMARCA; RIBEIRAO DAS NEVES-PJ-04PJ 6.694,66 2.008,40 0,00 7.517,36 2.901,02 0,00 0,00 1.911,00 21.032,44 1.185,70 3.193,60 0,00 0,00 4.379,30 16.653,14 31/12/2022
1016 337800 FERNANDA CRISTINA ROLAND CLIMACO MENDES COORDENADOR II BELO HORIZONTE - COMARCA; DIRETORIA DE PAGAMENTO DE PESSOAL-DPAG 18.312,36 5.493,71 0,00 9.334,74 7.935,36 0,00 0,00 1.911,00 42.987,17 2.568,29 12.124,28 0,00 0,00 14.692,57 28.294,60 31/12/2022
1017 545400 FERNANDA CUNHA GUIMARAES ANALISTA DO MP CAPINÓPOLIS - COMARCA; CAO-CIVEL 11.008,33 1.100,83 0,00 4.203,66 4.036,39 0,00 0,00 1.911,00 22.260,21 1.730,68 5.079,45 0,00 0,00 6.810,13 15.450,08 31/12/2022
1018 429801 FERNANDA CUNHA PINHEIRO DA SILVA ANALISTA DO MP BELO HORIZONTE - COMARCA; ASSESSORIA DE COMUNICACAO INTEGRADA 11.008,33 2.201,67 0,00 4.698,19 4.403,33 0,00 0,00 1.911,00 24.222,52 1.906,81 5.480,40 0,00 0,00 7.387,21 16.835,31 31/12/2022
1019 408000 FERNANDA DAS NEVES RAMOS ANALISTA DO MP BELO HORIZONTE - COMARCA; FEPDC-SECRETARIA EXECUTIVA 15.659,55 3.131,91 0,00 6.595,88 6.263,82 0,00 0,00 1.911,00 33.562,16 2.799,85 8.779,21 0,00 0,00 11.579,06 21.983,10 31/12/2022
1020 496000 FERNANDA DE ALMEIDA VIANA ANALISTA DO MP BELO HORIZONTE - COMARCA; PROC JUST ATUACAO TRIBUNAIS SUPERIORES-GAB002 11.008,33 2.201,67 0,00 4.698,19 4.403,33 0,00 0,00 3.681,60 25.993,12 1.906,81 5.480,40 0,00 0,00 7.387,21 18.605,91 31/12/2022
1021 266700 FERNANDA DE CASTRO LUCAS OFICIAL DO MP BELO HORIZONTE - COMARCA; DIRET DE DESENV DE RECURSOS HUMANOS-DDRH 14.224,47 4.267,34 5.493,71 9.240,86 7.995,17 0,00 0,00 2.796,30 44.017,85 2.751,90 12.034,17 0,00 0,00 14.786,07 29.231,78 31/12/2022
1022 433200 FERNANDA DE FIGUEIREDO NORTE ANALISTA DO MP BELO HORIZONTE - COMARCA; ASSESS JUR DO CONS SUPERIOR DO MINISTERIO PUB 15.659,55 3.131,91 0,00 6.595,88 6.263,82 0,00 0,00 1.911,00 33.562,16 2.799,85 8.570,67 0,00 0,00 11.370,52 22.191,64 31/12/2022
1023 419200 FERNANDA DE MIRANDA MARTINS SIMOES ANALISTA DO MP UBERLÂNDIA - COMARCA; UBERLANDIA-PJ-17PJ 16.169,47 3.233,89 0,00 7.109,88 6.467,79 0,00 0,00 2.796,30 35.777,33 2.897,75 9.118,00 0,00 0,00 12.015,75 23.761,58 31/12/2022
1024 441400 FERNANDA DE MORAIS PINTO ANALISTA DO MP BELO HORIZONTE - COMARCA; PROC. JUSTICA DIR. DIFUSOS E COLETIVOS-SEC 14.224,47 2.844,89 0,00 6.010,37 5.689,79 0,00 0,00 1.911,00 30.680,52 2.524,31 7.825,75 0,00 0,00 10.350,06 20.330,46 31/12/2022
1025 432200 FERNANDA DE MOURA GUIMARAES ANALISTA DO MP BELO HORIZONTE - COMARCA; BH-26 CRIME CONT CRIAN ADOL-SECRETARIA 15.659,55 3.131,91 0,00 7.456,93 6.263,82 0,00 0,00 1.911,00 34.423,21 2.799,85 8.779,21 0,00 0,00 11.579,06 22.844,15 31/12/2022
1026 461800 FERNANDA DE OLIVEIRA SANTOS ANALISTA DO MP JUIZ DE FORA - COMARCA; JUIZ DE FORA-PJ-21PJ 12.118,97 2.423,79 0,00 5.151,32 4.847,59 0,00 0,00 2.796,30 27.337,97 2.120,06 6.426,85 0,00 0,00 8.546,91 18.791,06 31/12/2022
1027 432500 FERNANDA DE PAULA PINTO ANALISTA DO MP BELO HORIZONTE - COMARCA; PROC JUST ATUACAO TRIBUNAIS SUPERIORES-GAB003 14.224,47 2.844,89 0,00 6.010,37 11.379,58 0,00 0,00 2.796,30 37.255,61 2.524,31 9.390,44 0,00 0,00 11.914,75 25.340,86 31/12/2022
1028 729700 FERNANDA DE SOUZA GUIMARAES ASSESSOR ADMINISTRATIVO I BELO HORIZONTE - COMARCA; DIRETORIA DE PAGAMENTO DE PESSOAL-DPAG 0,00 0,00 4.345,58 1.086,40 0,00 0,00 0,00 1.911,00 7.342,98 712,65 518,68 0,00 0,00 1.231,33 6.111,65 31/12/2022
1029 431600 FERNANDA DIAS BARBOSA PEREIRA ANALISTA DO MP BELO HORIZONTE - COMARCA; BH-02PJ FAMILIA-SECRETARIA 15.659,55 3.131,91 0,00 10.232,22 6.263,82 0,00 0,00 2.796,30 38.083,80 2.799,85 8.466,39 0,00 0,00 11.266,24 26.817,56 31/12/2022
1030 162200 FERNANDA FERNANDES MONTEIRO ASSESSOR ADMINISTRATIVO II BELO HORIZONTE - COMARCA; BH-18PJ VIOLENCIA DOMESTICA-SECRETARIA 0,00 2.677,86 6.694,66 4.686,26 3.124,17 0,00 0,00 1.911,00 19.093,95 1.656,76 3.977,73 0,00 0,00 5.634,49 13.459,46 31/12/2022
1031 512800 FERNANDA FERREIRA BARBOSA MOREIRA ANALISTA DO MP IPATINGA - COMARCA; IPATINGA-PJ-05PJ 11.008,33 2.201,67 0,00 5.677,83 4.403,33 0,00 0,00 2.796,30 26.087,46 927,17 5.975,19 0,00 0,00 6.902,36 19.185,10 31/12/2022
1032 329200 FERNANDA GABRIEL GUZELLA OFICIAL DO MP BELO HORIZONTE - COMARCA; DIRET DE PLANOS PROJETOS E PROGRAMAS INST 11.008,33 3.302,50 0,00 5.072,46 4.770,28 0,00 524,73 7.635,33 32.313,63 2.082,95 6.298,44 0,00 0,00 8.381,39 23.932,24 31/12/2022
1033 324200 FERNANDA GEORGIA NEVES ZAHAN OFICIAL DO MP IPANEMA - COMARCA; IPANEMA-PJ-01PJ 11.008,33 8.806,67 0,00 9.011,84 6.605,00 0,00 0,00 1.911,00 37.342,84 2.963,61 9.345,92 0,00 0,00 12.309,53 25.033,31 31/12/2022
1034 548200 FERNANDA GONCALVES DE CARVALHO ZUZA OFICIAL DO MP TUPACIGUARA - COMARCA; TUPACIGUARA-PJ-01PJ 6.694,66 669,47 0,00 2.710,59 2.454,71 0,00 0,00 1.911,00 14.440,43 971,47 2.452,29 0,00 0,00 3.423,76 11.016,67 31/12/2022
1035 355400 FERNANDA HELENA BASQUES OFICIAL DO MP SABARÁ - COMARCA; SABARA-PJ-01PJ 11.008,33 3.302,50 0,00 5.072,46 4.770,28 0,00 0,00 1.911,00 26.064,57